[[{"header":{"parameterUnit":"m.s-1","parameterCategory":1,"la1":31.0,"la2":29.5877,"lo1":-88.7671,"lo2":-86.6584,"dy":0.0162,"dx":0.0185,"nx":115,"ny":88,"refTime":"2023-06-19T12:00:00:Z","depth":0,"parameterNumber":2,"parameterNumberName":"U-component_of_WINDS"},"data":[0.0,0.0,0.0,0.0,0.0,0.0,0.0,0.0,0.0,0.0,0.0,0.0,0.0,0.0,0.0,0.0,0.0,0.0,0.0,0.0,0.0,0.0,0.0,0.0,0.0,0.0,0.0,0.0,0.0,0.0,0.0,0.0,0.0,0.0,0.0,0.0,0.0,0.0,0.0,0.0,0.0,0.0,0.0,0.0,0.0,0.0,0.0,0.0,0.0,0.0,0.0,0.0,0.0,0.0,0.0,0.0,0.0,0.0,0.0,0.0,0.0,0.0,0.0,0.0,0.0,0.0,0.0,0.0,0.0,0.0,0.0,0.0,0.0,0.0,0.0,0.0,0.0,0.0,0.0,0.0,0.0,0.0,0.0,0.0,0.0,0.0,0.0,0.0,0.0,0.0,0.0,0.0,0.0,0.0,0.0,0.0,0.0,0.0,0.0,0.0,0.0,0.0,0.0,0.0,0.0,0.0,0.0,0.0,0.0,0.0,0.0,0.0,0.0,0.0,0.0,0.0,0.0,0.0,0.0,0.0,0.0,0.0,0.0,0.0,0.0,0.0,0.0,0.0,0.0,0.0,0.0,0.0,0.0,0.0,0.0,0.0,0.0,0.0,0.0,0.0,0.0,0.0,0.0,0.0,0.0,0.0,0.0,0.0,0.0,0.0,0.0,0.0,0.0,0.0,0.0,0.0,0.0,0.0,0.0,0.0,0.0,0.0,0.0,0.0,0.0,0.0,0.0,0.0,0.0,0.0,0.0,0.0,0.0,0.0,0.0,0.0,0.0,0.0,0.0,0.0,0.0,0.0,0.0,0.0,0.0,0.0,0.0,0.0,0.0,0.0,0.0,0.0,0.0,0.0,0.0,0.0,0.0,0.0,0.0,0.0,0.0,0.0,0.0,0.0,0.0,0.0,0.0,0.0,0.0,0.0,0.0,0.0,0.0,0.0,0.0,0.0,0.0,0.0,0.0,0.0,0.0,0.0,0.0,0.0,0.0,0.0,0.0,0.0,0.0,0.0,0.0,0.0,0.0,0.0,0.0,0.0,0.0,0.0,0.0,0.0,0.0,0.0,0.0,0.0,0.0,0.0,0.0,0.0,0.0,0.0,0.0,0.0,0.0,0.0,0.0,0.0,0.0,0.0,0.0,0.0,0.0,0.0,0.0,0.0,0.0,0.0,0.0,0.0,0.0,0.0,0.0,0.0,0.0,0.0,0.0,0.0,0.0,0.0,0.0,0.0,0.0,0.0,0.0,0.0,0.0,0.0,0.0,0.0,0.0,0.0,0.0,0.0,0.0,0.0,0.0,0.0,0.0,0.0,0.0,0.0,0.0,0.0,0.0,0.0,0.0,0.0,0.0,0.0,0.0,0.0,0.0,0.0,0.0,0.0,0.0,0.0,0.0,0.0,0.0,0.0,0.0,0.0,0.0,0.0,0.0,0.0,0.0,0.0,0.0,0.0,0.0,0.0,0.0,0.0,0.0,0.0,0.0,0.0,0.0,0.0,0.0,0.0,0.0,0.0,0.0,0.0,0.0,0.0,0.0,0.0,0.0,0.0,0.0,0.0,0.0,0.0,0.0,0.0,0.0,0.0,0.0,0.0,0.0,0.0,0.0,0.0,0.0,0.0,0.0,0.0,0.0,0.0,0.0,0.0,0.0,0.0,0.0,0.0,0.0,0.0,0.0,0.0,0.0,0.0,0.0,0.0,0.0,0.0,0.0,0.0,0.0,0.0,0.0,0.0,0.0,0.0,0.0,0.0,0.0,0.0,0.0,0.0,0.0,0.0,0.0,0.0,0.0,0.0,0.0,0.0,0.0,0.0,0.0,0.0,0.0,0.0,0.0,0.0,0.0,0.0,0.0,0.0,0.0,0.0,0.0,0.0,0.0,0.0,0.0,0.0,0.0,0.0,0.0,0.0,0.0,0.0,0.0,0.0,0.0,0.0,0.0,0.0,0.0,0.0,0.0,0.0,0.0,0.0,0.0,0.0,0.0,0.0,0.0,0.0,0.0,0.0,0.0,0.0,0.0,0.0,0.0,0.0,0.0,0.0,0.0,0.0,0.0,0.0,0.0,0.0,0.0,0.0,0.0,0.0,0.0,0.0,0.0,0.0,0.0,0.0,0.0,0.0,0.0,0.0,0.0,0.0,0.0,0.0,0.0,0.0,0.0,0.0,0.0,0.0,0.0,0.0,0.0,0.0,0.0,0.0,0.0,0.0,0.0,0.0,0.0,0.0,0.0,0.0,0.0,0.0,0.0,0.0,0.0,0.0,0.0,0.0,0.0,0.0,0.0,0.0,0.0,0.0,0.0,0.0,0.0,0.0,0.0,0.0,0.0,0.0,0.0,0.0,0.0,0.0,0.0,0.0,0.0,0.0,0.0,0.0,0.0,0.0,0.0,0.0,0.0,0.0,0.0,0.0,0.0,0.0,0.0,0.0,0.0,0.0,0.0,0.0,0.0,0.0,0.0,0.0,0.0,0.0,0.0,0.0,0.0,0.0,0.0,0.0,0.0,0.0,0.0,0.0,0.0,0.0,0.0,0.0,0.0,0.0,0.0,0.0,0.0,0.0,0.0,0.0,0.0,0.0,0.0,0.0,0.0,0.0,0.0,0.0,0.0,0.0,0.0,0.0,0.0,0.0,0.0,0.0,0.0,0.0,0.0,0.0,0.0,0.0,0.0,0.0,0.0,0.0,0.0,0.0,0.0,0.0,0.0,0.0,0.0,0.0,0.0,0.0,0.0,0.0,0.0,0.0,0.0,0.0,0.0,0.0,0.0,0.0,0.0,0.0,0.0,0.0,0.0,0.0,0.0,0.0,0.0,0.0,0.0,0.0,0.0,0.0,0.0,0.0,0.0,0.0,0.0,0.0,0.0,0.0,0.0,0.0,0.0,0.0,0.0,0.0,0.0,0.0,0.0,0.0,0.0,0.0,0.0,0.0,0.0,0.0,0.0,0.0,0.0,0.0,0.0,0.0,0.0,0.0,0.0,0.0,0.0,0.0,0.0,0.0,0.0,0.0,0.0,0.0,0.0,0.0,0.0,0.0,0.0,0.0,0.0,0.0,0.0,0.0,0.0,0.0,0.0,0.0,0.0,0.0,0.0,0.0,0.0,0.0,0.0,0.0,0.0,0.0,0.0,0.0,0.0,0.0,0.0,0.0,0.0,0.0,0.0,0.0,0.0,0.0,0.0,0.0,0.0,0.0,0.0,0.0,0.0,0.0,0.0,0.0,0.0,0.0,0.0,0.0,0.0,0.0,0.0,0.0,0.0,0.0,0.0,0.0,0.0,0.0,0.0,0.0,0.0,0.0,0.0,0.0,0.0,0.0,0.0,0.0,0.0,0.0,0.0,0.0,0.0,0.0,0.0,0.0,0.0,0.0,0.0,0.0,0.0,0.0,0.0,0.0,0.0,0.0,0.0,0.0,0.0,0.0,0.0,0.0,0.0,0.0,0.0,0.0,0.0,0.0,0.0,0.0,0.0,0.0,0.0,0.0,0.0,0.0,0.0,0.0,0.0,0.0,0.0,0.0,0.0,0.0,0.0,0.0,0.0,0.0,0.0,0.0,0.0,0.0,0.0,0.0,0.0,0.0,0.0,0.0,0.0,0.0,0.0,0.0,0.0,0.0,0.0,0.0,0.0,0.0,0.0,0.0,0.0,0.0,0.0,0.0,0.0,0.0,0.0,0.0,0.0,0.0,0.0,0.0,0.0,0.0,0.0,0.0,0.0,0.0,0.0,0.0,0.0,0.0,0.0,0.0,0.0,0.0,0.0,0.0,0.0,0.0,0.0,0.0,0.0,0.0,0.0,0.0,0.0,0.0,0.0,0.0,0.0,0.0,0.0,0.0,0.0,0.0,0.0,0.0,0.0,0.0,0.0,0.0,0.0,0.0,0.0,0.0,0.0,0.0,0.0,0.0,0.0,0.0,0.0,0.0,0.0,0.0,0.0,0.0,0.0,0.0,0.0,0.0,0.0,0.0,0.0,0.0,0.0,0.0,0.0,0.0,0.0,0.0,0.0,0.0,0.0,0.0,0.0,0.0,0.0,0.0,0.0,0.0,0.0,0.0,0.0,0.0,0.0,0.0,0.0,0.0,0.0,0.0,0.0,0.0,0.0,0.0,0.0,0.0,0.0,0.0,0.0,0.0,0.0,0.0,0.0,0.0,0.0,0.0,0.0,0.0,0.0,0.0,0.0,0.0,0.0,0.0,0.0,0.0,0.0,0.0,0.0,0.0,0.0,0.0,0.0,0.0,0.0,0.0,-0.6919,0.0,0.0,0.0,0.0,0.0,0.0,0.0,0.0,0.0,0.0,0.0,0.0,0.0,0.0,0.0,0.0,0.0,0.0,0.0,0.0,0.0,0.0,0.0,0.0,0.0,0.0,0.0,0.0,0.0,0.0,0.0,0.0,0.0,0.0,0.0,0.0,0.0,0.0,0.0,0.0,0.0,0.0,0.0,0.0,0.0,0.0,0.0,0.0,0.0,0.0,0.0,0.0,0.0,0.0,0.0,0.0,0.0,0.0,0.0,0.0,0.0,0.0,0.0,0.0,0.0,0.0,0.0,0.0,0.0,0.0,0.0,0.0,0.0,0.0,0.0,0.0,0.0,0.0,0.0,0.0,0.0,0.0,0.0,0.0,0.0,0.0,0.0,0.0,0.0,0.0,0.0,0.0,0.0,0.0,0.0,0.0,0.0,0.0,0.0,0.0,0.0,0.0,0.0,0.0,0.0,0.0,0.0,0.0,0.0,0.0,-0.5867,-0.638,-0.6743,-0.7077,-0.7531,0.0,0.0,0.0,0.0,0.0,0.0,0.0,0.0,0.0,0.0,0.0,0.0,0.0,0.0,0.0,0.0,0.0,0.0,0.0,0.0,0.0,0.0,0.0,0.0,0.0,0.0,0.0,0.0,0.0,0.0,0.0,0.0,0.0,0.0,0.0,0.0,0.0,0.0,0.0,0.0,0.0,0.0,0.0,0.0,0.0,0.0,0.0,0.0,0.0,0.0,0.0,0.0,0.0,0.0,0.0,0.0,0.0,0.0,0.0,0.0,0.0,0.0,0.0,0.0,0.0,0.0,0.0,0.0,0.0,0.0,0.0,0.0,0.0,0.0,0.0,0.0,0.0,0.0,0.0,0.0,0.0,0.0,0.0,0.0,0.0,0.0,0.0,0.0,0.0,0.0,0.0,0.0,0.0,0.0,0.0,0.0,0.0,0.0,0.0,0.0,0.0,0.0,0.0,0.0,0.0,0.0,0.0,0.0,0.0,0.0,0.0,0.0,-0.8003,-0.8282,-0.8306,0.0,0.0,0.0,0.0,0.0,0.0,0.0,0.0,0.0,0.0,0.0,0.0,0.0,0.0,0.0,0.0,0.0,0.0,0.0,0.0,0.0,0.0,0.0,0.0,0.0,0.0,0.0,0.0,0.0,0.0,0.0,0.0,0.0,0.0,0.0,0.0,0.0,0.0,0.0,0.0,0.0,0.0,0.0,0.0,0.0,0.0,0.0,0.0,0.0,0.0,0.0,0.0,0.0,0.0,0.0,0.0,0.0,0.0,0.0,0.0,0.0,0.0,0.0,0.0,0.0,0.0,0.0,0.0,0.0,0.0,0.0,0.0,0.0,0.0,0.0,0.0,0.0,0.0,0.0,0.0,0.0,0.0,0.0,0.0,0.0,0.0,0.0,0.0,0.0,0.0,0.0,0.0,0.0,0.0,0.0,0.0,0.0,0.0,0.0,0.0,0.0,0.0,0.0,0.0,0.0,0.0,0.0,0.0,0.0,0.0,-0.7669,-0.93,-0.9368,0.0,-0.9746,0.0,0.0,0.0,0.0,0.0,0.0,0.0,0.0,0.0,0.0,0.0,0.0,0.0,0.0,0.0,0.0,0.0,0.0,0.0,0.0,0.0,0.0,0.0,0.0,0.0,0.0,0.0,0.0,0.0,0.0,0.0,0.0,0.0,0.0,0.0,0.0,0.0,0.0,0.0,0.0,0.0,0.0,0.0,0.0,0.0,0.0,0.0,0.0,0.0,0.0,0.0,0.0,0.0,0.0,0.0,0.0,0.0,0.0,0.0,0.0,0.0,0.0,0.0,0.0,0.0,0.0,0.0,0.0,0.0,0.0,0.0,0.0,0.0,0.0,0.0,0.0,0.0,0.0,0.0,0.0,0.0,0.0,0.0,0.0,0.0,0.0,0.0,0.0,0.0,0.0,0.0,0.0,0.0,0.0,0.0,0.0,0.0,0.0,0.0,0.0,0.0,0.0,0.0,0.0,0.0,0.0,0.0,0.0,0.0,0.0,-0.9043,-1.0423,-1.0226,-1.0171,0.0,0.0,0.0,0.0,0.0,0.0,0.0,0.0,0.0,0.0,0.0,0.0,0.0,0.0,0.0,0.0,0.0,0.0,0.0,0.0,0.0,0.0,0.0,0.0,0.0,0.0,0.0,0.0,0.0,0.0,0.0,0.0,0.0,0.0,0.0,0.0,0.0,0.0,0.0,0.0,0.0,0.0,0.0,0.0,0.0,0.0,0.0,0.0,0.0,0.0,0.0,0.0,0.0,0.0,0.0,0.0,0.0,0.0,0.0,0.0,0.0,0.0,0.0,0.0,0.0,0.0,0.0,0.0,0.0,0.0,0.0,0.0,0.0,0.0,0.0,0.0,0.0,0.0,0.0,0.0,0.0,0.0,0.0,0.0,0.0,0.0,0.0,0.0,0.0,0.0,0.0,0.0,0.0,0.0,0.0,0.0,0.0,0.0,0.0,0.0,0.0,0.0,0.0,0.0,0.0,0.0,0.0,0.0,0.0,0.0,-0.968,-1.0331,-1.16,-1.1403,-1.1212,-1.116,0.0,0.0,0.0,0.0,0.0,0.0,0.0,0.0,0.0,0.0,0.0,0.0,0.0,0.0,0.0,0.0,0.0,0.0,0.0,0.0,0.0,0.0,0.0,0.0,0.0,0.0,0.0,0.0,0.0,0.0,0.0,0.0,0.0,0.0,0.0,0.0,0.0,0.0,0.0,0.0,0.0,0.0,0.0,0.0,0.0,0.0,0.0,0.0,0.0,0.0,0.0,0.0,0.0,0.0,0.0,0.0,0.0,0.0,0.0,0.0,0.0,0.0,0.0,0.0,0.0,0.0,0.0,0.0,0.0,0.0,0.0,0.0,0.0,0.0,0.0,0.0,0.0,0.0,0.0,0.0,0.0,0.0,0.0,0.0,0.0,0.0,0.0,0.0,0.0,0.0,0.0,0.0,0.0,0.0,0.0,0.0,0.0,0.0,0.0,0.0,0.0,0.0,0.0,0.0,0.0,0.0,0.0,0.0,-1.1619,-1.0887,-1.1412,-1.3293,-1.3239,-1.3041,0.0,0.0,0.0,0.0,0.0,0.0,0.0,0.0,0.0,0.0,0.0,0.0,0.0,0.0,0.0,0.0,0.0,0.0,0.0,0.0,0.0,0.0,0.0,0.0,0.0,0.0,0.0,0.0,0.0,0.0,0.0,0.0,0.0,0.0,0.0,0.0,0.0,0.0,0.0,0.0,0.0,0.0,0.0,0.0,0.0,0.0,0.0,0.0,0.0,0.0,0.0,0.0,0.0,0.0,0.0,0.0,0.0,0.0,0.0,0.0,0.0,0.0,0.0,0.0,0.0,0.0,0.0,0.0,0.0,0.0,0.0,0.0,0.0,0.0,0.0,0.0,0.0,0.0,0.0,0.0,0.0,0.0,0.0,0.0,0.0,0.0,0.0,0.0,0.0,0.0,0.0,0.0,0.0,0.0,0.0,0.0,0.0,0.0,0.0,0.0,0.0,0.0,0.0,0.0,0.0,0.0,0.0,0.0,0.0,-1.1024,-1.1882,-1.2973,-1.4115,-1.3482,-1.3023,0.0,0.0,0.0,0.0,0.0,0.0,0.0,0.0,0.0,0.0,0.0,0.0,0.0,0.0,0.0,0.0,0.0,0.0,0.0,0.0,0.0,0.0,0.0,0.0,0.0,0.0,0.0,0.0,0.0,0.0,0.0,0.0,0.0,0.0,0.0,0.0,0.0,0.0,0.0,0.0,0.0,0.0,0.0,0.0,0.0,0.0,0.0,0.0,0.0,0.0,0.0,0.0,0.0,0.0,0.0,0.0,0.0,0.0,0.0,0.0,0.0,0.0,0.0,0.0,0.0,0.0,0.0,0.0,0.0,0.0,0.0,0.0,0.0,0.0,0.0,0.0,0.0,0.0,0.0,0.0,0.0,0.0,0.0,0.0,0.0,0.0,0.0,0.0,0.0,0.0,0.0,0.0,0.0,0.0,0.0,0.0,0.0,0.0,0.0,0.0,0.0,0.0,0.0,0.0,0.0,0.0,0.0,0.0,0.0,-1.1975,0.0,-1.4674,-1.489,-1.4142,-1.3399,0.0,0.0,0.0,0.0,0.0,0.0,0.0,0.0,0.0,0.0,0.0,0.0,0.0,0.0,0.0,0.0,0.0,0.0,0.0,0.0,0.0,0.0,0.0,0.0,0.0,0.0,0.0,0.0,0.0,0.0,0.0,0.0,0.0,0.0,0.0,0.0,0.0,0.0,0.0,0.0,0.0,0.0,0.0,0.0,0.0,0.0,0.0,0.0,0.0,0.0,0.0,0.0,0.0,0.0,0.0,0.0,0.0,0.0,0.0,0.0,0.0,0.0,0.0,0.0,0.0,0.0,0.0,0.0,0.0,0.0,0.0,0.0,0.0,0.0,0.0,0.0,0.0,0.0,0.0,0.0,0.0,0.0,0.0,0.0,0.0,0.0,0.0,0.0,0.0,0.0,0.0,0.0,0.0,0.0,0.0,0.0,0.0,0.0,0.0,0.0,0.0,0.0,0.0,0.0,0.0,0.0,0.0,0.0,-1.2646,-1.4681,-1.6053,-1.6407,-1.5698,-1.541,-1.4307,0.0,0.0,0.0,0.0,0.0,0.0,0.0,0.0,0.0,0.0,0.0,0.0,0.0,0.0,0.0,0.0,0.0,0.0,0.0,0.0,0.0,0.0,0.0,0.0,0.0,0.0,0.0,0.0,0.0,0.0,0.0,0.0,0.0,0.0,0.0,0.0,0.0,0.0,0.0,0.0,0.0,0.0,0.0,0.0,0.0,0.0,0.0,0.0,0.0,0.0,0.0,0.0,0.0,0.0,0.0,0.0,0.0,0.0,0.0,0.0,0.0,0.0,0.0,0.0,0.0,0.0,0.0,0.0,0.0,0.0,0.0,0.0,0.0,0.0,0.0,0.0,0.0,0.0,0.0,0.0,0.0,0.0,0.0,0.0,0.0,0.0,0.0,0.0,0.0,0.0,0.0,0.0,0.0,0.0,0.0,0.0,0.0,0.0,0.0,0.0,0.0,0.0,0.0,0.0,0.0,0.0,0.0,0.0,0.0,-1.342,-1.5415,-1.6761,-1.7168,-1.5644,-1.4974,0.0,0.0,0.0,0.0,0.0,0.0,0.0,0.0,0.0,0.0,0.0,0.0,0.0,0.0,0.0,0.0,0.0,0.0,0.0,0.0,0.0,0.0,0.0,0.0,0.0,0.0,0.0,0.0,0.0,0.0,0.0,0.0,0.0,0.0,0.0,0.0,0.0,0.0,0.0,0.0,0.0,0.0,0.0,0.0,0.0,0.0,0.0,0.0,0.0,0.0,0.0,0.0,0.0,0.0,0.0,0.0,0.0,0.0,0.0,0.0,0.0,0.0,0.0,0.0,0.0,0.0,0.0,0.0,0.0,0.0,0.0,0.0,0.0,0.0,0.0,0.0,0.0,0.0,0.0,0.0,0.0,0.0,0.0,0.0,0.0,0.0,0.0,0.0,0.0,0.0,0.0,0.0,0.0,0.0,0.0,0.0,0.0,0.0,0.0,0.0,0.0,0.0,0.0,0.0,0.0,0.0,0.0,0.0,0.0,-1.4847,-1.6792,-1.7947,-1.8008,-1.6296,-1.5385,-1.5369,0.0,0.0,0.0,0.0,0.0,0.0,0.0,0.0,0.0,0.0,0.0,0.0,0.0,0.0,0.0,0.0,0.0,0.0,0.0,0.0,0.0,0.0,0.0,0.0,0.0,0.0,0.0,0.0,0.0,0.0,0.0,0.0,0.0,0.0,0.0,0.0,0.0,0.0,0.0,0.0,0.0,0.0,0.0,0.0,0.0,0.0,0.0,0.0,0.0,0.0,0.0,0.0,0.0,0.0,0.0,0.0,0.0,0.0,0.0,0.0,0.0,0.0,0.0,0.0,0.0,0.0,0.0,0.0,0.0,0.0,0.0,0.0,0.0,0.0,0.0,0.0,0.0,0.0,0.0,0.0,0.0,0.0,0.0,0.0,0.0,0.0,0.0,0.0,0.0,0.0,0.0,0.0,0.0,0.0,0.0,0.0,0.0,0.0,0.0,0.0,0.0,0.0,0.0,0.0,0.0,0.0,0.0,0.0,-1.8037,-1.9844,-1.9941,-1.8301,-1.7416,-1.5802,0.0,0.0,0.0,0.0,0.0,0.0,0.0,0.0,0.0,0.0,0.0,0.0,0.0,0.0,0.0,0.0,0.0,0.0,0.0,0.0,0.0,0.0,0.0,0.0,0.0,0.0,0.0,0.0,0.0,0.0,0.0,0.0,0.0,0.0,0.0,0.0,0.0,0.0,0.0,0.0,0.0,0.0,0.0,0.0,0.0,0.0,0.0,0.0,0.0,0.0,0.0,0.0,0.0,0.0,0.0,0.0,0.0,0.0,0.0,0.0,0.0,0.0,0.0,0.0,0.0,0.0,0.0,0.0,0.0,0.0,0.0,0.0,0.0,0.0,0.0,0.0,0.0,0.0,0.0,0.0,0.0,0.0,0.0,0.0,0.0,0.0,0.0,0.0,0.0,0.0,0.0,0.0,0.0,0.0,0.0,0.0,0.0,0.0,0.0,0.0,0.0,0.0,0.0,0.0,0.0,0.0,0.0,0.0,0.0,-1.8564,-2.104,-2.1928,-2.0879,-1.8931,-1.7357,0.0,0.0,0.0,0.0,0.0,0.0,0.0,0.0,0.0,0.0,0.0,0.0,0.0,0.0,0.0,0.0,0.0,0.0,0.0,0.0,0.0,0.0,0.0,0.0,0.0,0.0,0.0,0.0,0.0,0.0,0.0,0.0,0.0,0.0,0.0,0.0,0.0,0.0,0.0,0.0,0.0,0.0,0.0,0.0,0.0,0.0,0.0,0.0,0.0,0.0,0.0,0.0,0.0,0.0,0.0,0.0,0.0,0.0,0.0,0.0,0.0,0.0,0.0,0.0,0.0,0.0,0.0,0.0,0.0,0.0,0.0,0.0,0.0,0.0,0.0,0.0,0.0,0.0,0.0,0.0,0.0,0.0,0.0,0.0,0.0,0.0,0.0,0.0,0.0,0.0,0.0,0.0,0.0,0.0,0.0,0.0,0.0,0.0,0.0,0.0,0.0,0.0,0.0,0.0,0.0,0.0,0.0,0.0,-1.9371,-2.0261,-2.2377,-2.3423,-2.3159,-2.0837,-1.8828,0.0,0.0,0.0,0.0,0.0,0.0,0.0,0.0,0.0,0.0,0.0,0.0,0.0,0.0,0.0,0.0,0.0,0.0,0.0,0.0,0.0,0.0,0.0,0.0,0.0,0.0,0.0,0.0,0.0,0.0,0.0,0.0,0.0,0.0,0.0,0.0,0.0,0.0,0.0,0.0,0.0,0.0,0.0,0.0,0.0,0.0,0.0,0.0,0.0,0.0,0.0,0.0,0.0,0.0,0.0,0.0,0.0,0.0,0.0,0.0,0.0,0.0,0.0,0.0,0.0,0.0,0.0,0.0,0.0,0.0,0.0,0.0,0.0,0.0,0.0,0.0,0.0,0.0,0.0,0.0,0.0,0.0,0.0,0.0,0.0,0.0,0.0,0.0,0.0,0.0,0.0,0.0,0.0,0.0,0.0,0.0,0.0,0.0,0.0,0.0,0.0,0.0,0.0,0.0,0.0,0.0,0.0,0.0,-2.0155,-2.2296,-2.3617,-2.4466,-2.4846,-2.2637,-1.9966,0.0,0.0,0.0,0.0,0.0,0.0,0.0,0.0,0.0,0.0,0.0,0.0,0.0,0.0,0.0,0.0,0.0,0.0,0.0,0.0,0.0,0.0,0.0,0.0,0.0,0.0,0.0,0.0,0.0,0.0,0.0,0.0,0.0,0.0,0.0,0.0,0.0,0.0,0.0,0.0,0.0,0.0,0.0,0.0,0.0,0.0,0.0,0.0,0.0,0.0,0.0,0.0,0.0,0.0,0.0,0.0,0.0,0.0,0.0,0.0,0.0,0.0,0.0,0.0,0.0,0.0,0.0,0.0,0.0,0.0,0.0,0.0,0.0,0.0,0.0,0.0,0.0,0.0,0.0,0.0,0.0,0.0,0.0,0.0,0.0,0.0,0.0,0.0,0.0,0.0,0.0,0.0,0.0,0.0,0.0,0.0,0.0,0.0,0.0,0.0,0.0,0.0,0.0,0.0,0.0,0.0,0.0,0.0,-2.0172,-2.2157,-2.3521,-2.4454,-2.4903,-2.2282,-1.9907,0.0,0.0,0.0,0.0,0.0,0.0,0.0,0.0,0.0,0.0,0.0,0.0,0.0,0.0,0.0,0.0,0.0,0.0,0.0,0.0,0.0,0.0,0.0,0.0,0.0,0.0,0.0,0.0,0.0,0.0,0.0,0.0,0.0,0.0,0.0,0.0,0.0,0.0,0.0,0.0,0.0,0.0,0.0,0.0,0.0,0.0,0.0,0.0,-1.5961,0.0,0.0,0.0,0.0,0.0,0.0,0.0,0.0,0.0,0.0,0.0,0.0,0.0,0.0,0.0,0.0,0.0,0.0,0.0,0.0,0.0,0.0,0.0,0.0,0.0,0.0,0.0,0.0,0.0,0.0,0.0,0.0,0.0,0.0,0.0,0.0,0.0,0.0,0.0,0.0,0.0,0.0,0.0,0.0,0.0,0.0,0.0,0.0,0.0,0.0,0.0,0.0,0.0,0.0,0.0,0.0,0.0,0.0,0.0,-2.0741,-2.2723,-2.3901,-2.4638,-2.5032,-2.2516,-2.0423,0.0,0.0,0.0,0.0,0.0,0.0,0.0,0.0,0.0,0.0,0.0,0.0,0.0,0.0,0.0,0.0,0.0,0.0,0.0,0.0,0.0,0.0,0.0,0.0,0.0,0.0,0.0,0.0,0.0,0.0,0.0,0.0,0.0,0.0,0.0,0.0,0.0,0.0,0.0,0.0,0.0,0.0,0.0,0.0,0.0,0.0,0.0,0.0,0.0,0.0,0.0,0.0,0.0,0.0,0.0,0.0,0.0,0.0,0.0,0.0,0.0,0.0,0.0,0.0,0.0,0.0,0.0,0.0,0.0,0.0,0.0,0.0,0.0,0.0,0.0,0.0,0.0,0.0,0.0,0.0,0.0,0.0,0.0,0.0,0.0,0.0,0.0,0.0,0.0,0.0,0.0,0.0,0.0,0.0,0.0,0.0,0.0,0.0,0.0,0.0,0.0,0.0,0.0,0.0,0.0,0.0,0.0,-1.8904,-2.1493,-2.3639,-2.4482,-2.5135,-2.543,-2.3165,-2.1144,-1.9448,0.0,0.0,0.0,0.0,0.0,0.0,0.0,0.0,0.0,0.0,0.0,0.0,0.0,0.0,0.0,0.0,0.0,0.0,0.0,0.0,0.0,0.0,0.0,0.0,0.0,0.0,0.0,0.0,0.0,0.0,0.0,0.0,0.0,0.0,0.0,0.0,0.0,0.0,-1.2923,-1.438,0.0,0.0,0.0,0.0,0.0,0.0,0.0,0.0,-1.7529,0.0,0.0,0.0,0.0,0.0,0.0,0.0,0.0,0.0,0.0,0.0,0.0,0.0,0.0,0.0,0.0,0.0,0.0,0.0,0.0,0.0,0.0,0.0,0.0,0.0,0.0,0.0,0.0,0.0,0.0,0.0,0.0,0.0,0.0,0.0,0.0,0.0,0.0,0.0,0.0,0.0,0.0,0.0,0.0,0.0,0.0,0.0,0.0,0.0,0.0,0.0,0.0,0.0,0.0,0.0,0.0,-1.8006,-1.9352,-2.1511,-2.4482,-2.5237,-2.5618,-2.5637,-2.3918,-2.19,-1.9687,0.0,0.0,0.0,0.0,0.0,0.0,0.0,0.0,0.0,0.0,0.0,0.0,0.0,0.0,0.0,0.0,0.0,0.0,0.0,0.0,0.0,0.0,0.0,0.0,0.0,0.0,0.0,0.0,0.0,0.0,0.0,0.0,0.0,0.0,0.0,0.0,0.0,0.0,0.0,-1.5895,-1.6211,0.0,0.0,0.0,0.0,0.0,0.0,0.0,0.0,-1.84,0.0,0.0,0.0,0.0,0.0,0.0,0.0,0.0,0.0,0.0,0.0,0.0,0.0,0.0,0.0,0.0,0.0,0.0,0.0,0.0,0.0,0.0,0.0,0.0,0.0,0.0,0.0,0.0,0.0,0.0,0.0,0.0,0.0,0.0,0.0,0.0,0.0,0.0,0.0,0.0,0.0,0.0,0.0,0.0,0.0,0.0,0.0,0.0,0.0,0.0,0.0,0.0,0.0,0.0,0.0,-1.751,-1.9929,-2.2337,-2.4702,-2.5466,-2.5792,-2.5533,-2.3484,-2.1423,0.0,0.0,0.0,0.0,0.0,0.0,0.0,0.0,0.0,0.0,0.0,0.0,0.0,0.0,0.0,0.0,0.0,0.0,0.0,0.0,0.0,0.0,0.0,0.0,0.0,0.0,0.0,0.0,0.0,0.0,0.0,0.0,0.0,0.0,0.0,0.0,0.0,0.0,0.0,0.0,-1.6309,-1.6694,-1.6728,0.0,0.0,0.0,0.0,0.0,0.0,-1.8198,-1.842,0.0,0.0,0.0,0.0,0.0,0.0,0.0,0.0,0.0,0.0,0.0,0.0,0.0,0.0,0.0,0.0,0.0,0.0,0.0,0.0,0.0,0.0,0.0,0.0,0.0,0.0,0.0,0.0,0.0,0.0,0.0,0.0,0.0,0.0,0.0,0.0,0.0,0.0,0.0,0.0,0.0,0.0,0.0,0.0,0.0,0.0,0.0,0.0,0.0,0.0,0.0,0.0,0.0,0.0,0.0,-1.6743,-2.0061,-2.2735,-2.4592,-2.554,-2.5724,-2.5209,-2.3091,-2.1102,0.0,0.0,0.0,0.0,0.0,0.0,0.0,0.0,0.0,0.0,0.0,0.0,0.0,0.0,0.0,0.0,0.0,0.0,0.0,0.0,0.0,0.0,0.0,0.0,0.0,0.0,0.0,0.0,0.0,0.0,0.0,0.0,0.0,0.0,0.0,0.0,0.0,0.0,0.0,0.0,0.0,-1.7442,-1.6911,-1.7734,0.0,0.0,0.0,0.0,-1.8522,-1.8839,0.0,0.0,0.0,0.0,0.0,0.0,0.0,0.0,0.0,0.0,0.0,0.0,0.0,0.0,0.0,0.0,0.0,0.0,0.0,0.0,0.0,0.0,0.0,0.0,0.0,0.0,0.0,0.0,0.0,0.0,0.0,0.0,0.0,0.0,0.0,0.0,0.0,0.0,0.0,0.0,0.0,0.0,0.0,0.0,0.0,0.0,0.0,0.0,0.0,0.0,0.0,0.0,0.0,0.0,0.0,0.0,-1.732,-1.9177,-2.1476,-2.4134,-2.534,-2.5377,-2.4597,-2.3542,-2.1682,0.0,0.0,0.0,0.0,0.0,0.0,0.0,0.0,0.0,0.0,0.0,0.0,0.0,0.0,0.0,0.0,0.0,0.0,0.0,0.0,0.0,0.0,0.0,0.0,0.0,0.0,0.0,0.0,0.0,0.0,0.0,0.0,0.0,0.0,0.0,0.0,0.0,0.0,0.0,0.0,0.0,-1.8739,-1.9128,-1.9033,-1.9023,0.0,0.0,-1.9777,-2.0272,-2.09,0.0,0.0,0.0,0.0,0.0,0.0,0.0,0.0,0.0,0.0,0.0,0.0,0.0,0.0,0.0,0.0,0.0,0.0,0.0,0.0,0.0,0.0,0.0,0.0,0.0,0.0,0.0,0.0,0.0,0.0,0.0,0.0,0.0,0.0,0.0,0.0,0.0,0.0,0.0,0.0,0.0,0.0,0.0,0.0,0.0,0.0,0.0,0.0,0.0,0.0,0.0,0.0,0.0,0.0,0.0,-1.3932,-1.6727,-1.9246,-2.1719,-2.4097,-2.5061,-2.5182,-2.435,-2.2889,-2.1165,0.0,0.0,0.0,0.0,0.0,0.0,0.0,0.0,0.0,0.0,0.0,0.0,0.0,0.0,0.0,0.0,0.0,0.0,0.0,0.0,0.0,0.0,0.0,0.0,0.0,0.0,0.0,0.0,0.0,0.0,0.0,0.0,0.0,0.0,0.0,0.0,0.0,0.0,0.0,0.0,0.0,0.0,-1.9131,-1.9605,0.0,0.0,0.0,-2.0527,-2.071,0.0,0.0,0.0,0.0,0.0,0.0,0.0,0.0,0.0,0.0,0.0,0.0,0.0,0.0,0.0,0.0,0.0,0.0,0.0,0.0,0.0,0.0,0.0,0.0,0.0,0.0,0.0,0.0,0.0,0.0,0.0,0.0,0.0,0.0,0.0,0.0,0.0,0.0,0.0,0.0,0.0,0.0,0.0,0.0,0.0,0.0,0.0,0.0,0.0,0.0,0.0,0.0,0.0,0.0,0.0,0.0,0.0,-1.5777,-1.8941,-2.1466,-2.3528,-2.4546,-2.4629,-2.3694,-2.2207,0.0,0.0,0.0,0.0,0.0,0.0,0.0,0.0,0.0,0.0,0.0,0.0,0.0,0.0,0.0,0.0,0.0,0.0,0.0,0.0,0.0,0.0,0.0,0.0,0.0,0.0,0.0,-1.0621,0.0,0.0,0.0,0.0,0.0,0.0,0.0,0.0,0.0,0.0,0.0,0.0,0.0,0.0,-2.0112,-1.9461,-2.0311,-2.1031,0.0,0.0,-2.1231,-2.1095,-2.1423,-2.1369,0.0,0.0,0.0,0.0,0.0,0.0,0.0,0.0,0.0,0.0,0.0,0.0,0.0,0.0,0.0,0.0,0.0,0.0,0.0,0.0,0.0,0.0,0.0,0.0,0.0,0.0,0.0,0.0,0.0,0.0,0.0,0.0,0.0,0.0,0.0,0.0,0.0,0.0,0.0,0.0,0.0,0.0,0.0,0.0,0.0,0.0,0.0,0.0,0.0,0.0,0.0,0.0,0.0,0.0,0.0,-1.475,-1.773,-2.0002,-2.1648,-2.3412,-2.3657,-2.2483,-2.197,-2.0393,0.0,0.0,0.0,0.0,0.0,0.0,0.0,0.0,0.0,0.0,0.0,0.0,0.0,0.0,0.0,0.0,0.0,0.0,0.0,0.0,0.0,0.0,0.0,0.0,0.0,0.0,0.0,0.0,0.0,0.0,0.0,0.0,0.0,0.0,0.0,0.0,0.0,0.0,0.0,0.0,0.0,-2.0914,-2.1008,-2.1272,-2.171,0.0,0.0,-2.2291,-2.1829,-2.2818,-2.3001,-2.0919,0.0,0.0,0.0,0.0,0.0,0.0,0.0,0.0,0.0,0.0,0.0,0.0,0.0,0.0,0.0,0.0,0.0,0.0,0.0,0.0,0.0,0.0,0.0,0.0,0.0,0.0,0.0,0.0,0.0,0.0,0.0,0.0,0.0,0.0,0.0,0.0,0.0,0.0,0.0,0.0,0.0,0.0,0.0,0.0,0.0,0.0,0.0,0.0,0.0,0.0,0.0,0.0,0.0,-1.2812,-1.4288,-1.7212,-1.953,-2.1122,-2.2631,-2.307,-2.2337,-2.1784,-2.0237,0.0,0.0,0.0,0.0,0.0,0.0,0.0,0.0,0.0,0.0,0.0,0.0,0.0,0.0,0.0,0.0,0.0,0.0,0.0,0.0,0.0,0.0,0.0,0.0,0.0,0.0,0.0,0.0,-1.1948,-1.227,-1.2917,0.0,0.0,0.0,0.0,0.0,0.0,0.0,0.0,0.0,0.0,-2.1135,-2.1372,-2.2024,0.0,0.0,-2.2409,-2.2529,-2.197,-2.2392,-2.2452,-2.1429,-2.1013,0.0,0.0,0.0,0.0,0.0,0.0,0.0,0.0,0.0,0.0,0.0,0.0,0.0,0.0,0.0,0.0,0.0,0.0,0.0,0.0,0.0,0.0,0.0,0.0,0.0,0.0,0.0,0.0,0.0,0.0,0.0,0.0,0.0,0.0,0.0,0.0,0.0,0.0,0.0,0.0,0.0,0.0,0.0,0.0,0.0,0.0,0.0,0.0,0.0,0.0,0.0,0.0,-1.266,-1.3909,-1.6612,-1.8765,-2.0509,-2.1766,-2.2351,-2.197,-2.1507,-2.0153,0.0,0.0,0.0,0.0,0.0,0.0,0.0,0.0,0.0,0.0,0.0,0.0,0.0,0.0,0.0,0.0,0.0,0.0,0.0,0.0,0.0,0.0,0.0,0.0,0.0,0.0,0.0,0.0,-1.2531,-1.3157,-1.3933,0.0,0.0,0.0,0.0,0.0,0.0,0.0,0.0,0.0,0.0,-2.1154,-2.1451,-2.2193,-2.2565,-2.2209,-2.2426,-2.2443,-2.209,-2.2069,-2.1949,-2.1491,0.0,0.0,0.0,0.0,0.0,0.0,0.0,0.0,0.0,0.0,0.0,0.0,0.0,0.0,0.0,0.0,0.0,0.0,0.0,0.0,0.0,0.0,0.0,0.0,0.0,0.0,0.0,0.0,0.0,0.0,0.0,0.0,0.0,0.0,0.0,0.0,0.0,0.0,0.0,0.0,0.0,0.0,0.0,0.0,0.0,0.0,0.0,0.0,0.0,0.0,0.0,0.0,0.0,-1.2441,-1.3535,-1.5691,-1.7552,-1.9445,-2.0802,-2.1415,-2.1131,-2.1108,-1.9971,-1.7568,0.0,0.0,0.0,0.0,0.0,0.0,0.0,0.0,0.0,0.0,0.0,0.0,0.0,0.0,0.0,0.0,0.0,0.0,0.0,0.0,0.0,0.0,0.0,0.0,0.0,0.0,-1.1915,-1.2996,-1.4018,0.0,0.0,0.0,0.0,0.0,0.0,0.0,0.0,0.0,0.0,-2.0039,-2.082,-2.1471,-2.1784,-2.2173,-2.274,-2.2462,-2.2205,-2.2145,-2.199,-2.1649,0.0,0.0,0.0,0.0,0.0,0.0,0.0,0.0,0.0,0.0,0.0,0.0,0.0,0.0,0.0,0.0,0.0,0.0,0.0,0.0,0.0,0.0,0.0,0.0,0.0,0.0,0.0,-1.3213,-1.32,0.0,0.0,0.0,0.0,0.0,0.0,0.0,0.0,0.0,0.0,0.0,-1.3622,-1.2978,0.0,0.0,0.0,0.0,0.0,0.0,0.0,0.0,0.0,0.0,0.0,0.0,-1.2949,-1.4173,-1.6335,-1.8322,-2.0046,-2.1042,-2.1572,-2.153,-2.0998,-1.9696,-1.7568,0.0,0.0,0.0,0.0,0.0,0.0,0.0,0.0,0.0,0.0,0.0,0.0,0.0,0.0,0.0,0.0,0.0,0.0,0.0,0.0,0.0,0.0,0.0,0.0,0.0,-1.222,0.0,0.0,0.0,0.0,0.0,0.0,0.0,0.0,0.0,0.0,0.0,-1.8906,-1.9609,-2.0469,-2.1055,-2.1291,-2.1836,-2.2168,0.0,0.0,0.0,0.0,0.0,0.0,0.0,0.0,0.0,0.0,0.0,0.0,0.0,0.0,-2.0664,-2.0957,-2.1016,-2.1094,-2.1387,0.0,0.0,0.0,0.0,0.0,0.0,0.0,0.0,0.0,0.0,0.0,0.0,0.0,0.0,0.0,0.0,-1.3494,0.0,0.0,0.0,0.0,0.0,0.0,0.0,0.0,-1.4055,-1.417,-1.4361,-1.4177,-1.4076,0.0,-1.4303,-1.3767,0.0,0.0,0.0,0.0,0.0,0.0,0.0,0.0,-1.3134,-1.4255,-1.6229,-1.7994,-1.9586,-2.0534,-2.1031,-2.1021,-2.0319,-1.9274,-1.7954,-1.7287,-1.6733,0.0,0.0,0.0,0.0,0.0,0.0,0.0,0.0,0.0,0.0,0.0,0.0,0.0,0.0,0.0,0.0,0.0,0.0,0.0,0.0,0.0,0.0,0.0,-1.2656,0.0,0.0,0.0,0.0,0.0,0.0,0.0,0.0,0.0,-1.9062,-1.9219,-1.9629,-2.0488,-2.0977,-2.1289,-2.1445,0.0,0.0,0.0,0.0,0.0,0.0,0.0,-2.1214,-2.1115,-2.1387,-2.168,-2.168,-2.1562,-2.1565,-2.1465,0.0,0.0,-2.1016,-2.0996,-2.1094,-2.1367,-2.1191,-2.1056,-2.1155,-2.0879,-2.0625,0.0,0.0,0.0,0.0,0.0,0.0,0.0,0.0,-1.4148,-1.4442,0.0,-1.4068,0.0,0.0,0.0,0.0,0.0,0.0,0.0,0.0,-1.487,-1.5164,-1.5444,-1.5712,-1.5698,-1.5431,-1.518,-1.4565,-1.3841,-1.2763,0.0,0.0,0.0,0.0,0.0,0.0,-1.2988,-1.3899,-1.5305,-1.6809,-1.8287,-1.9268,-1.9799,-1.9889,-1.9201,-1.876,-1.8687,-1.7917,-1.7495,-1.7477,-1.7092,0.0,0.0,0.0,0.0,0.0,0.0,0.0,0.0,0.0,0.0,0.0,0.0,0.0,0.0,0.0,0.0,0.0,0.0,0.0,0.0,-1.2101,0.0,0.0,0.0,0.0,0.0,0.0,0.0,0.0,0.0,0.0,-1.998,-2.0312,-2.0898,-2.1758,0.0,0.0,0.0,0.0,-2.1406,-2.1816,-2.1894,-2.2012,-2.2383,-2.2109,-2.1855,-2.1836,0.0,0.0,-2.2519,-2.2414,-2.2241,-2.1997,-2.1855,-2.1602,-2.086,-2.0684,-2.0684,-2.0723,-2.0703,-2.0742,-2.1094,-2.0859,-2.0684,-1.8176,0.0,0.0,0.0,0.0,-1.6051,-1.5847,-1.5324,-1.5324,-1.519,-1.495,-1.4696,0.0,0.0,0.0,0.0,0.0,0.0,-1.479,-1.5177,-1.5658,-1.6059,-1.6326,-1.642,-1.6299,-1.6019,-1.5697,-1.5259,-1.4608,-1.3957,-1.317,-1.2371,0.0,0.0,0.0,0.0,-1.379,-1.5106,-1.5951,-1.7393,-1.9619,-1.9669,-1.9782,-1.9871,-1.9714,-1.9311,-1.8742,-1.836,-1.7934,-1.7495,-1.725,0.0,0.0,0.0,0.0,0.0,0.0,0.0,0.0,0.0,0.0,0.0,0.0,0.0,0.0,0.0,0.0,0.0,0.0,0.0,-1.2486,-1.3586,-1.4502,0.0,0.0,0.0,0.0,0.0,0.0,0.0,0.0,0.0,-2.166,-2.1055,-2.0879,0.0,0.0,-2.1738,-2.1875,-2.1777,-2.1738,-2.1875,0.0,0.0,0.0,-2.1758,-2.1777,-2.1484,-2.1928,-2.2493,-2.291,-2.2867,-2.278,-2.2428,-2.1836,-2.1426,-2.1523,-2.1504,-2.1602,-2.1836,-2.1484,-2.1094,-2.1172,-2.0879,-2.0605,-2.0765,-1.8604,-1.8929,-1.851,-1.7584,-1.7398,-1.6786,-1.5832,-1.5832,-1.5698,-1.5471,-1.5244,-1.507,-1.495,-1.483,0.0,0.0,0.0,-1.5458,-1.5765,-1.6233,-1.6593,-1.6887,-1.6994,-1.6901,-1.6607,-1.6091,-1.5655,-1.5297,-1.483,-1.419,-1.3394,0.0,0.0,-1.2904,-1.3339,-1.4487,-1.6126,-1.6876,-1.8208,-2.0223,-1.9957,-1.9733,-1.9633,-1.9677,-1.9439,-1.8962,-1.8635,-1.8397,-1.799,-1.7749,-1.7454,0.0,0.0,0.0,0.0,0.0,0.0,0.0,0.0,0.0,0.0,0.0,-1.473,-1.3867,0.0,0.0,0.0,-1.402,-1.3784,-1.4698,-1.5659,0.0,0.0,0.0,0.0,0.0,0.0,0.0,-2.1055,-2.1328,-2.1758,-2.2402,-2.1836,-2.166,-2.2519,-2.2207,-2.1934,-2.2109,0.0,-2.1816,-2.166,-2.2051,-2.2227,-2.1816,-2.2109,-2.2344,-2.2266,-2.2415,-2.2785,-2.3301,-2.328,-2.3024,-2.2715,-2.2324,-2.2012,-2.2129,-2.2129,-2.207,-2.2012,-2.1445,-2.0996,-2.0977,-2.0762,-2.0566,-2.3547,-2.3046,-2.1913,-2.0716,-1.9621,-1.8697,-1.7505,-1.6128,-1.6019,-1.6139,-1.6299,-1.5752,-1.5778,-1.6219,-1.5952,0.0,0.0,-1.5765,-1.6059,-1.6353,-1.6647,-1.6927,-1.7194,-1.7448,-1.7435,-1.7141,-1.6302,-1.5901,-1.5912,-1.5698,-1.5324,-1.476,-1.4018,-1.3588,-1.3417,-1.4015,-1.5172,-1.7039,-1.7733,-1.8848,-2.0138,-2.0032,-1.9751,-1.9329,-1.9292,-1.9292,-1.9274,-1.8926,-1.8705,-1.8705,-1.8339,-1.7954,-1.7587,0.0,0.0,0.0,0.0,0.0,0.0,0.0,0.0,0.0,0.0,0.0,0.0,0.0,0.0,0.0,-1.602,0.0,-1.7596,-1.7875,0.0,0.0,0.0,-1.9701,-2.0586,-2.1426,-2.1934,-2.1934,0.0,0.0,-2.2519,0.0,-2.2852,-2.3633,-2.2695,-2.209,-2.25,-2.2207,-2.1797,-2.1465,-2.2279,-2.2949,-2.2441,-2.2695,-2.3105,-2.3457,-2.3398,-2.3262,-2.3574,-2.3398,-2.3164,-2.3105,-2.3105,-2.2969,-2.2617,-2.25,-2.2227,-2.1543,-2.1035,-2.0723,-2.0762,-2.0762,-2.0762,-2.5451,-2.5645,-2.543,-2.3894,-2.1744,-2.0899,-2.0089,-1.9189,-1.8016,-1.7288,-1.6914,-1.6553,-1.6219,-1.5939,-1.5858,-1.5912,-1.6072,-1.6366,-1.666,-1.6954,-1.7235,-1.7422,-1.7475,-1.7555,-1.7435,-1.7154,-1.6843,-1.6632,-1.65,-1.7063,-1.688,-1.6007,-1.6832,-1.6257,-1.4379,-1.5297,-1.6388,-1.7379,-1.731,-1.7908,-1.9332,-2.0014,-2.0044,-1.9311,-1.9292,-1.9292,-1.9292,-1.8926,-1.8705,-1.8705,-1.8339,-1.8082,-1.799,-1.8082,0.0,0.0,0.0,0.0,0.0,0.0,0.0,0.0,0.0,-1.7128,-1.6146,0.0,-1.6822,0.0,-1.7764,-1.7858,-1.7593,-1.8426,0.0,0.0,-1.998,-2.0356,-2.15,-2.2051,-2.2363,-2.2363,-2.2656,-2.2871,-2.2988,-2.2988,-2.3066,-2.3262,-2.2754,-2.2519,-2.291,-2.2637,-2.2324,-2.2266,-2.2715,-2.2871,-2.2266,-2.2383,-2.2832,-2.3223,-2.3203,-2.3184,-2.3281,-2.3223,-2.3144,-2.3125,-2.2871,-2.2754,-2.293,-2.25,-2.2148,-2.2148,-2.1875,-2.1562,-2.1562,-2.1562,-2.1562,-2.6245,-2.6591,-2.6591,-2.5738,-2.428,-2.314,-2.1786,-2.0194,-1.9212,-1.8287,-1.7328,-1.7034,-1.6647,-1.6246,-1.6486,-1.662,-1.6687,-1.6967,-1.7181,-1.7355,-1.7502,-1.7582,-1.7582,-1.7582,-1.7803,-1.8053,-1.74,-1.7252,-1.768,-1.7978,-1.7819,-1.7232,-1.8957,-1.878,-1.6805,-1.7056,-1.7674,-1.8483,-1.9076,-1.9558,-1.9938,-2.0359,-2.0228,-1.9604,-1.9402,-1.9292,-1.9292,-1.9091,-1.8962,-1.8981,-1.876,-1.8577,-1.8394,-1.854,-1.8577,0.0,0.0,0.0,0.0,0.0,0.0,0.0,0.0,0.0,0.0,0.0,-1.8276,-1.8852,-1.969,-2.0029,-1.9362,-1.9989,-2.0559,-2.0885,-2.1156,-2.1438,-2.2084,-2.2539,-2.2793,-2.2793,-2.3008,-2.3144,-2.3144,-2.3144,-2.3144,-2.3144,-2.2773,-2.2598,-2.2793,-2.2656,-2.2461,-2.2285,-2.2754,-2.2988,-2.25,-2.2637,-2.2871,-2.3086,-2.3144,-2.3144,-2.3144,-2.3144,-2.3144,-2.3125,-2.2949,-2.2793,-2.2832,-2.2676,-2.25,-2.2461,-2.248,-2.2305,-2.1973,-2.1894,-2.1894,-2.6628,-2.6591,-2.6591,-2.6591,-2.6554,-2.5145,-2.3037,-2.058,-2.0178,-1.9204,-1.7975,-1.7833,-1.7469,-1.725,-1.7757,-1.7852,-1.7736,-1.788,-1.7898,-1.7793,-1.7779,-1.7793,-1.7793,-1.7779,-1.8408,-1.9317,-1.8114,-1.7988,-1.9108,-1.894,-1.8889,-1.879,-2.0798,-2.1016,-1.9686,-1.9088,-1.9228,-1.9846,-2.1573,-2.2006,-2.1218,-2.0851,-2.0484,-2.0099,-1.9677,-1.9457,-1.9457,-1.9402,-1.9402,-1.9537,-1.9421,-1.9256,-1.8981,-1.9256,-1.9311,0.0,-1.9274,0.0,0.0,0.0,0.0,0.0,0.0,0.0,0.0,-1.8972,-1.9866,-2.0604,-2.1414,-2.1812,-2.1665,-2.187,-2.1992,-2.2051,-2.2383,-2.2598,-2.2598,-2.291,-2.3144,-2.3144,-2.3144,-2.3144,-2.3144,-2.3144,-2.3144,-2.3125,-2.2852,-2.2656,-2.2617,-2.2578,-2.2383,-2.2012,-2.2578,-2.2988,-2.3047,-2.3105,-2.3125,-2.3144,-2.3144,-2.3144,-2.3144,-2.3144,-2.3144,-2.3144,-2.3125,-2.3008,-2.2656,-2.2891,-2.2988,-2.2695,-2.2871,-2.2852,-2.2285,-2.2129,-2.2051,-2.6885,-2.6591,-2.6591,-2.6591,-2.6554,-2.5918,-2.427,-2.1979,-2.1352,-2.0674,-2.0261,-2.02,-2.0138,-2.0076,-2.02,-2.0231,-2.0169,-2.0231,-1.9746,-1.8916,-1.8916,-1.8916,-1.8916,-1.8916,-1.9435,-2.057,-2.0302,-2.0271,-2.0476,-2.1325,-2.1293,-2.0483,-2.2201,-2.2264,-2.0744,0.0,0.0,0.0,-2.187,-2.2447,-2.1658,-2.1548,-2.131,-2.0888,-2.0503,0.0,-2.0283,-1.9989,-2.0034,-2.0513,-2.0071,0.0,0.0,0.0,0.0,0.0,0.0,0.0,0.0,0.0,0.0,0.0,-2.0274,-2.0227,-2.0208,-2.0712,-2.1072,-2.1142,-2.1588,-2.2031,-2.2259,-2.2383,-2.2539,-2.2871,-2.2969,-2.3027,-2.3027,-2.3105,-2.3144,-2.3144,-2.3144,-2.3144,-2.3144,-2.3144,-2.3144,-2.3164,-2.3066,-2.3027,-2.3027,-2.2734,-2.25,-2.2422,-2.2598,-2.2773,-2.3086,-2.3144,-2.3144,-2.3144,-2.3144,-2.3144,-2.3144,-2.3144,-2.3144,-2.3144,-2.3144,-2.3125,-2.3027,-2.2999,-2.3105,-2.294,-2.3086,-2.3086,-2.293,-2.2891,-2.291,-2.694,0.0,-2.6591,-2.6591,0.0,-2.6347,-2.5076,-2.3293,-2.2732,-2.2087,-2.1506,-2.1506,-2.141,-2.1235,-2.1235,-2.1139,-2.0893,-2.0893,-2.057,-2.0055,-2.0055,-2.0055,-2.0055,-2.0055,-2.057,-2.1591,-2.1183,-2.12,-2.1709,-2.2401,-2.2485,-2.1973,-2.3604,-2.3835,-2.2601,-2.2768,-2.2369,-2.1281,-2.2152,-2.2337,-2.1768,-2.153,-2.1328,-2.1108,0.0,0.0,0.0,0.0,0.0,0.0,0.0,0.0,0.0,0.0,0.0,-2.0521,-2.0521,-2.0594,-2.0796,-2.09,-2.1077,-2.1281,-2.154,-2.1542,-2.121,-2.1633,-2.1935,-2.1851,-2.2194,-2.2598,-2.2793,-2.2832,-2.291,-2.3105,-2.3144,-2.3144,-2.3144,-2.3144,-2.3144,-2.3144,-2.3144,-2.3144,-2.3144,-2.3144,-2.3242,-2.3418,-2.3457,-2.3457,-2.3418,-2.3086,-2.2832,-2.2832,-2.2832,-2.2891,-2.3086,-2.3144,-2.3144,-2.3144,-2.3144,-2.3144,-2.3144,-2.3144,-2.3144,-2.3144,-2.3144,-2.3144,-2.3144,-2.3144,-2.3144,-2.3144,-2.3144,-2.3144,-2.3144,-2.3144,-2.3144,-2.705,-2.6682,-2.67,-2.6682,-2.6772,-2.6454,-2.5736,-2.4611,0.0,0.0,0.0,-2.2494,-2.2314,-2.2034,-2.2034,-2.1767,-2.1505,-2.1489,-2.1387,-2.12,-2.1183,-2.1183,-2.12,-2.12,-2.1709,-2.2736,-2.1912,-2.1912,-2.2754,-2.3219,-2.3392,-2.353,-2.4747,-2.4996,-2.4262,-2.3602,-2.3033,-2.2557,-2.2538,-2.2355,-2.1951,-2.1621,-2.1401,-2.1328,-2.0943,-2.0741,-2.0723,-2.0649,-2.0649,-2.0723,-2.0668,-2.0649,-2.0808,-2.0723,-2.0723,-2.0741,-2.0723,-2.0955,-2.1286,-2.1479,-2.1802,-2.2157,-2.2353,-2.2225,-2.169,-2.2233,-2.2532,-2.2532,-2.2862,-2.3144,-2.3144,-2.3144,-2.3144,-2.3144,-2.3144,-2.3144,-2.3144,-2.3144,-2.3164,-2.3223,-2.3281,-2.3301,-2.3379,-2.3418,-2.3477,-2.3789,-2.3809,-2.3789,-2.373,-2.3379,-2.3105,-2.3105,-2.3086,-2.3125,-2.3144,-2.3144,-2.3144,-2.3144,-2.3144,-2.3144,-2.3144,-2.3144,-2.3144,-2.3144,-2.3144,-2.3144,-2.3144,-2.3144,-2.3144,-2.3144,-2.3144,-2.3144,-2.3144,-2.3144,-2.3144,-2.7271,-2.6989,-2.6881,-2.7098,-2.7295,-2.6667,-2.6268,-2.5894,-2.4,-2.3595,-2.4199,-2.3999,-2.3981,-2.4108,-2.3909,-2.3791,-2.3737,-2.3935,-2.342,0.0,-2.2501,-2.2501,-2.2316,-2.2215,-2.282,-2.3836,-2.3737,-2.3854,-2.399,-2.4372,-2.4572,-2.4608,-2.5179,-2.5142,-2.4721,-2.4574,-2.4152,-2.34,-2.3363,-2.318,-2.2701,-2.2722,-2.252,-2.2153,-2.1768,-2.1566,-2.1548,-2.1218,-2.1286,-2.1794,-2.1305,-2.1268,-2.1813,-2.1636,-2.1566,-2.1566,-2.1743,-2.1957,-2.2013,-2.2189,-2.2385,-2.2706,-2.2706,-2.2561,-2.2358,-2.2572,-2.2804,-2.2804,-2.2931,-2.3144,-2.3144,-2.3164,-2.3164,-2.3164,-2.3144,-2.3144,-2.3164,-2.3164,-2.3301,-2.3613,-2.3691,-2.3848,-2.4102,-2.418,-2.4069,-2.4016,-2.3991,-2.3828,-2.3809,-2.3418,-2.3164,-2.3144,-2.3144,-2.3144,-2.3184,-2.3144,-2.3144,-2.3144,-2.3144,-2.3144,-2.3144,-2.3144,-2.3144,-2.3144,-2.3144,-2.3144,-2.3144,-2.3144,-2.3144,-2.3144,-2.3144,-2.3144,-2.3144,-2.3144,-2.3144,-2.7472,-2.7008,-2.7206,-2.7314,-2.7422,-2.7125,-2.6899,-2.6778,-2.5669,-2.5417,-2.5871,-2.5871,-2.5759,-2.5554,-2.5433,-2.5108,-2.45,-2.4583,-2.4254,-2.3637,-2.3719,-2.3719,-2.3619,-2.3538,-2.3963,-2.4464,-2.4262,-2.4362,-2.4664,-2.4785,-2.4859,-2.4979,-2.5061,-2.4959,-2.4776,-2.4556,-2.4262,-2.3877,-2.3657,-2.3249,-2.2884,-2.2866,-2.2774,-2.2667,-2.2557,-2.2446,-2.2242,-2.2057,-2.2017,-2.2264,-2.1901,-2.1813,-2.2246,-2.2087,-2.1909,-2.198,-2.2087,-2.2195,-2.2498,-2.2549,-2.2706,-2.2969,-2.2969,-2.3066,-2.3121,-2.3017,-2.2969,-2.2969,-2.3057,-2.3242,-2.3457,-2.3496,-2.3574,-2.3809,-2.3633,-2.3496,-2.3496,-2.3496,-2.3574,-2.3769,-2.4004,-2.4199,-2.4394,-2.4414,-2.4419,-2.4442,-2.4438,-2.4453,-2.4453,-2.4102,-2.3828,-2.3809,-2.3652,-2.3516,-2.3477,-2.3281,-2.3164,-2.3144,-2.3144,-2.3144,-2.3144,-2.3144,-2.3144,-2.3144,-2.3144,-2.3144,-2.3144,-2.3144,-2.3144,-2.3144,-2.3144,-2.3144,-2.3144,-2.3144,-2.3144,-2.7706,-2.7206,-2.7422,-2.753,-2.753,-2.753,-2.7554,-2.7391,-2.716,-2.7138,-2.7168,-2.7125,-2.6861,-2.6473,-2.6349,-2.5908,-2.5164,-2.521,-2.5043,-2.4846,-2.4808,-2.4808,-2.4808,-2.4734,-2.4783,-2.4877,-2.449,-2.4516,-2.4849,-2.484,-2.4914,-2.5173,-2.5006,-2.4867,-2.4776,-2.4464,-2.4343,-2.4251,-2.3932,-2.3584,-2.3012,-2.2994,-2.2957,-2.296,-2.3111,-2.3057,-2.2851,-2.2833,-2.2775,-2.2636,-2.2452,-2.2415,-2.2485,-2.2321,-2.2176,-2.2227,-2.2246,-2.241,-2.2897,-2.3063,-2.326,-2.3349,-2.3437,-2.3574,-2.3848,-2.3633,-2.3418,-2.3418,-2.3477,-2.3594,-2.3867,-2.3926,-2.4062,-2.4355,-2.4141,-2.3945,-2.3926,-2.3926,-2.3984,-2.4082,-2.4375,-2.459,-2.4687,-2.4707,-2.4805,-2.4866,-2.5039,-2.5078,-2.5019,-2.4766,-2.4609,-2.457,-2.4199,-2.3789,-2.3769,-2.3418,-2.3184,-2.3144,-2.3144,-2.3144,-2.3144,-2.3144,-2.3144,-2.3144,-2.3144,-2.3144,-2.3144,-2.3144,-2.3144,-2.3144,-2.3144,-2.3144,-2.3144,-2.3144,-2.3144,-2.7891,-2.7853,-2.7853,-2.7853,-2.7872,-2.8087,-2.8048,-2.7902,-2.8009,-2.8028,-2.7688,-2.6731,-2.6427,-2.6557,-2.637,-2.6229,-2.6115,-2.634,-2.6096,-2.575,-2.5956,-2.5956,-2.5591,-2.5256,-2.5136,-2.5358,-2.4802,-2.4553,-2.4528,-2.4739,-2.5061,-2.5374,-2.5326,-2.5124,-2.4812,-2.4739,-2.4638,-2.4449,-2.4583,-2.428,-2.3547,-2.3492,-2.3213,-2.2866,-2.296,-2.3017,-2.3243,-2.3243,-2.3317,-2.354,-2.3199,-2.3009,-2.2972,-2.265,-2.2353,-2.2246,-2.253,-2.3055,-2.3621,-2.3991,-2.4258,-2.4297,-2.4258,-2.4277,-2.4355,-2.4316,-2.4297,-2.4297,-2.4297,-2.4258,-2.4355,-2.4355,-2.4394,-2.4512,-2.4414,-2.4355,-2.4355,-2.4355,-2.4512,-2.4922,-2.4941,-2.5137,-2.543,-2.5508,-2.541,-2.5137,-2.5385,-2.5405,-2.5251,-2.5078,-2.5137,-2.5254,-2.4629,-2.3926,-2.3828,-2.3437,-2.3301,-2.3223,-2.3164,-2.3096,-2.3115,-2.3076,-2.3144,-2.3144,-2.3144,-2.3144,-2.3144,-2.3144,-2.3144,-2.3144,-2.3144,-2.3144,-2.3144,-2.3144,-2.3144,-2.8067,-2.796,-2.8067,-2.833,-2.8505,-2.8398,-2.833,-2.8524,-2.8398,-2.8174,-2.8155,-2.7593,-2.7458,-2.7333,-2.7228,-2.6989,-2.657,-2.6655,-2.6522,-2.6313,-2.6378,-2.6397,-2.6275,-2.6123,-2.5994,-2.5945,-2.5703,-2.5488,-2.5488,-2.5573,-2.5629,-2.5674,-2.5693,-2.5367,-2.4997,-2.5405,-2.5301,-2.4566,-2.5058,-2.4883,-2.4202,-2.4251,-2.4288,-2.4202,-2.4175,-2.4106,-2.4089,-2.4146,-2.4126,-2.4063,-2.389,-2.3702,-2.3886,-2.3549,-2.3343,-2.3286,-2.3745,-2.4023,-2.416,-2.4316,-2.4414,-2.4414,-2.4414,-2.4512,-2.4766,-2.4805,-2.4902,-2.5098,-2.4727,-2.4512,-2.4746,-2.4805,-2.4902,-2.5098,-2.4961,-2.4805,-2.4805,-2.4805,-2.4883,-2.5059,-2.5293,-2.5508,-2.5684,-2.5723,-2.5664,-2.5488,-2.5604,-2.5565,-2.5449,-2.5469,-2.5547,-2.5586,-2.5039,-2.4609,-2.4492,-2.418,-2.3945,-2.3848,-2.3672,-2.3427,-2.3133,-2.3135,-2.3144,-2.3144,-2.3144,-2.3144,-2.3144,-2.3144,-2.3144,-2.3144,-2.3144,-2.3144,-2.3144,-2.3232,-2.3339,-2.8524,-2.8416,-2.8524,-2.873,-2.8887,-2.8594,-2.8574,-2.8691,-2.8418,-2.8301,-2.8301,-2.8301,-2.8194,-2.8067,-2.796,-2.768,-2.7218,-2.7199,-2.7132,-2.6968,-2.6929,-2.6949,-2.6929,-2.6795,-2.674,-2.6778,-2.6645,-2.6465,-2.6465,-2.622,-2.6022,-2.6135,-2.605,-2.5844,-2.5405,-2.6031,-2.5899,-2.5077,-2.5579,-2.5597,-2.5195,-2.5293,-2.5247,-2.5095,-2.4994,-2.4887,-2.491,-2.4871,-2.4813,-2.4805,-2.4481,-2.4423,-2.459,-2.4307,-2.4117,-2.419,-2.4663,-2.4834,-2.4609,-2.4707,-2.4785,-2.4785,-2.4785,-2.4902,-2.5176,-2.5254,-2.5391,-2.5605,-2.5156,-2.4941,-2.5176,-2.5254,-2.5391,-2.5664,-2.543,-2.5254,-2.5254,-2.5254,-2.5254,-2.5293,-2.5527,-2.5723,-2.5723,-2.5723,-2.5723,-2.5703,-2.5723,-2.5723,-2.5723,-2.5723,-2.5723,-2.5723,-2.543,-2.5215,-2.5078,-2.4629,-2.4473,-2.4336,-2.4043,-2.3621,-2.3166,-2.3075,-2.3144,-2.3144,-2.3144,-2.3144,-2.3144,-2.3144,-2.3164,-2.3144,-2.3144,-2.3144,-2.3144,-2.3339,-2.3426,-2.9512,-2.9492,-2.9512,-2.9277,-2.8926,-2.8887,-2.8672,-2.8457,-2.832,-2.8301,-2.8301,-2.8301,-2.8301,-2.8281,-2.8301,-2.8281,-2.8262,-2.8135,-2.799,-2.7825,-2.7844,-2.7883,-2.7776,-2.7228,-2.7372,-2.7951,-2.7695,-2.7272,-2.6959,-2.6266,-2.621,-2.6797,-2.6959,-2.6503,-2.6031,-2.6664,-2.6674,-2.6172,-2.6494,-2.6636,-2.65,-2.6598,-2.6031,-2.5168,-2.496,-2.5039,-2.5197,-2.5294,-2.5373,-2.5664,-2.5254,-2.5039,-2.5,-2.4668,-2.4473,-2.4492,-2.4824,-2.5039,-2.5078,-2.5391,-2.5605,-2.5625,-2.5566,-2.5644,-2.5625,-2.5684,-2.5742,-2.5762,-2.5703,-2.5664,-2.5684,-2.5644,-2.5664,-2.5723,-2.5703,-2.5664,-2.5684,-2.5625,-2.5703,-2.5664,-2.5703,-2.5723,-2.5723,-2.5723,-2.5723,-2.5723,-2.5723,-2.5723,-2.5723,-2.5723,-2.5723,-2.5723,-2.5664,-2.5566,-2.5137,-2.4902,-2.4609,-2.4512,-2.4375,-2.3777,-2.3326,-2.3133,-2.3105,-2.3203,-2.332,-2.332,-2.3203,-2.3144,-2.3184,-2.3184,-2.3144,-2.3144,-2.3232,-2.3144,-2.3319,-2.957,-2.957,-2.957,-2.9629,-2.9687,-2.916,-2.8984,-2.9062,-2.8516,-2.8301,-2.8301,-2.8301,-2.8301,-2.8301,-2.8301,-2.8301,-2.8301,-2.8301,-2.8281,-2.8174,-2.8174,-2.8194,-2.8194,-2.8145,-2.8134,-2.8358,-2.8691,-2.8769,-2.8629,-2.8167,-2.7967,-2.8081,-2.8229,-2.7891,-2.7517,-2.8109,-2.8095,-2.7036,-2.7429,-2.74,-2.6699,-2.6859,-2.6686,-2.6261,-2.5772,-2.5621,-2.5547,-2.5547,-2.5645,-2.5723,-2.5586,-2.5488,-2.5488,-2.5352,-2.5254,-2.5273,-2.541,-2.5488,-2.5508,-2.5644,-2.5723,-2.5723,-2.5723,-2.5762,-2.5781,-2.5977,-2.6152,-2.6152,-2.6152,-2.6152,-2.6094,-2.5918,-2.5742,-2.5723,-2.5723,-2.5723,-2.5723,-2.5723,-2.5723,-2.5723,-2.5723,-2.5723,-2.5723,-2.5723,-2.5723,-2.5723,-2.5723,-2.5723,-2.5723,-2.5723,-2.5723,-2.5723,-2.5723,-2.5684,-2.5566,-2.541,-2.5254,-2.5137,-2.4961,-2.4594,-2.4249,-2.39,-2.3926,-2.3977,-2.3938,-2.3809,-2.3769,-2.3555,-2.3496,-2.3223,-2.3203,-2.3319,-2.3339,-2.3406,-2.3667,-3.0,-3.0,-3.0,-3.0059,-3.0098,-2.9434,-2.9219,-2.9277,-2.8594,-2.8301,-2.8301,-2.8301,-2.8301,-2.832,-2.8437,-2.8496,-2.8476,-2.8359,-2.8301,-2.832,-2.8437,-2.8496,-2.8555,-2.8797,-2.8843,-2.8881,-2.9603,-2.9951,-2.9746,-2.9292,-2.9086,-2.9182,-2.9334,-2.9103,-2.8611,-2.9327,-2.9128,-2.8172,-2.8466,-2.8252,-2.7505,-2.7513,-2.748,-2.7226,-2.673,-2.6381,-2.6172,-2.6016,-2.5957,-2.5937,-2.582,-2.5723,-2.5723,-2.5723,-2.5723,-2.5723,-2.5723,-2.5723,-2.5723,-2.5723,-2.5801,-2.5937,-2.5957,-2.5996,-2.6133,-2.6426,-2.6562,-2.6602,-2.6602,-2.6582,-2.6543,-2.6328,-2.6055,-2.582,-2.5723,-2.5723,-2.5723,-2.5723,-2.5723,-2.5723,-2.5723,-2.5723,-2.5742,-2.5723,-2.5723,-2.5723,-2.5723,-2.5723,-2.5723,-2.5723,-2.5723,-2.5723,-2.5723,-2.5723,-2.5684,-2.5605,-2.5586,-2.5508,-2.5254,-2.5137,-2.5019,-2.4707,-2.4531,-2.4697,-2.4677,-2.4453,-2.4297,-2.4043,-2.375,-2.3418,-2.3398,-2.3406,-2.358,-2.3774,-2.3947,-3.0859,-3.082,-3.0879,-3.0586,-3.0215,-2.9726,-2.9316,-2.8984,-2.8496,-2.8301,-2.8301,-2.8301,-2.832,-2.8398,-2.8711,-2.8887,-2.8867,-2.8594,-2.8437,-2.8457,-2.8769,-2.8926,-2.8945,-2.9205,-2.9458,-2.9629,-3.0465,-3.0551,-3.0176,-2.9676,-2.9543,-3.0023,-3.0101,-2.9812,-2.9161,-2.9773,-2.9867,-2.9234,-2.9381,-2.9297,-2.8965,-2.8828,-2.8476,-2.7851,-2.7734,-2.7519,-2.707,-2.6641,-2.6387,-2.6348,-2.6035,-2.5781,-2.584,-2.5859,-2.5801,-2.584,-2.5801,-2.5781,-2.5801,-2.584,-2.6055,-2.6309,-2.6387,-2.6523,-2.6797,-2.6953,-2.7012,-2.7012,-2.7012,-2.7012,-2.7012,-2.6934,-2.6621,-2.5937,-2.5898,-2.5898,-2.584,-2.5781,-2.5762,-2.584,-2.5879,-2.5781,-2.5781,-2.5879,-2.5918,-2.5918,-2.5898,-2.5918,-2.5937,-2.5898,-2.5781,-2.582,-2.5879,-2.5918,-2.584,-2.5762,-2.5762,-2.5723,-2.541,-2.5195,-2.5176,-2.4961,-2.4863,-2.4938,-2.4957,-2.4805,-2.4609,-2.4355,-2.4102,-2.3789,-2.3693,-2.3652,-2.3827,-2.4042,-2.4095,-3.0898,-3.0898,-3.0898,-3.082,-3.0586,-2.9883,-2.9473,-2.9297,-2.8613,-2.8301,-2.8301,-2.8301,-2.8457,-2.8711,-2.8867,-2.9082,-2.9336,-2.9219,-2.918,-2.9199,-2.9316,-2.9375,-2.9453,-2.9785,-3.0137,-3.0449,-3.0797,-3.0876,-3.0644,-3.0412,-3.0431,-3.0413,-3.0529,-3.049,-2.9988,-3.047,-3.0334,-2.9945,-3.0,-2.9785,-2.9414,-2.9375,-2.9219,-2.9023,-2.8984,-2.8769,-2.8301,-2.7363,-2.6855,-2.6816,-2.6699,-2.6621,-2.6602,-2.6621,-2.6621,-2.6621,-2.6621,-2.6621,-2.6602,-2.6602,-2.6641,-2.6797,-2.6816,-2.6875,-2.7031,-2.7305,-2.7461,-2.7461,-2.7461,-2.7461,-2.7422,-2.7168,-2.6914,-2.6641,-2.6621,-2.6562,-2.6543,-2.6582,-2.6621,-2.6621,-2.6621,-2.6621,-2.6602,-2.6582,-2.6543,-2.6543,-2.6562,-2.6562,-2.6543,-2.6309,-2.6348,-2.6543,-2.6406,-2.6269,-2.6328,-2.6328,-2.6289,-2.6133,-2.5801,-2.543,-2.5371,-2.5312,-2.5215,-2.5176,-2.5195,-2.5117,-2.4922,-2.4687,-2.4434,-2.4369,-2.4354,-2.4317,-2.4206,-2.4351,-2.4486,-3.0898,-3.0898,-3.0898,-3.0898,-3.0801,-3.0098,-2.9805,-2.9707,-2.9082,-2.8769,-2.875,-2.8594,-2.875,-2.9101,-2.916,-2.9414,-2.9805,-2.998,-3.0059,-3.0019,-2.9844,-2.9805,-2.9863,-3.0254,-3.0586,-3.084,-3.0898,-3.0898,-3.0898,-3.0898,-3.0762,-3.0645,-3.0762,-3.0762,-3.0645,-3.0762,-3.0723,-3.0488,-3.0449,-3.0332,-3.0078,-2.9902,-2.9805,-2.9785,-2.9648,-2.9355,-2.8906,-2.8262,-2.7734,-2.7324,-2.7109,-2.7012,-2.7012,-2.6992,-2.7012,-2.7012,-2.7012,-2.6992,-2.7012,-2.6953,-2.7109,-2.7207,-2.7246,-2.7344,-2.748,-2.7793,-2.7891,-2.7891,-2.7891,-2.7891,-2.7851,-2.7676,-2.75,-2.748,-2.7168,-2.7031,-2.7012,-2.7012,-2.6992,-2.6953,-2.6973,-2.7012,-2.7012,-2.7012,-2.7012,-2.7012,-2.7012,-2.7012,-2.6973,-2.6777,-2.6894,-2.6934,-2.6777,-2.6758,-2.6914,-2.6914,-2.6855,-2.6582,-2.625,-2.5898,-2.5664,-2.5605,-2.5527,-2.5508,-2.5527,-2.5488,-2.5293,-2.5059,-2.4844,-2.4913,-2.4941,-2.4877,-2.4865,-2.5084,-2.5221,-3.0898,-3.0898,-3.0898,-3.0898,-3.084,-3.0351,-3.0156,-3.0098,-2.9707,-2.9492,-2.9414,-2.9101,-2.9199,-2.9531,-2.959,-2.9844,-3.0254,-3.0586,-3.0742,-3.0664,-3.043,-3.0254,-3.0293,-3.0644,-3.082,-3.0879,-3.0898,-3.0898,-3.0898,-3.0898,-3.0879,-3.0898,-3.0898,-3.0898,-3.0879,-3.0879,-3.0879,-3.084,-3.084,-3.082,-3.0762,-3.0391,-3.0215,-3.0195,-2.9844,-2.9453,-2.9101,-2.9043,-2.875,-2.7851,-2.7402,-2.7207,-2.7129,-2.709,-2.7168,-2.7207,-2.7109,-2.7168,-2.7129,-2.7226,-2.7344,-2.7656,-2.7715,-2.7851,-2.8125,-2.8164,-2.8203,-2.8223,-2.8242,-2.8242,-2.8242,-2.8203,-2.8184,-2.8164,-2.7617,-2.7246,-2.7109,-2.7148,-2.7246,-2.7187,-2.7109,-2.7109,-2.7207,-2.7207,-2.7187,-2.7187,-2.7207,-2.7246,-2.7207,-2.7207,-2.7109,-2.7109,-2.7187,-2.7246,-2.7402,-2.7461,-2.7383,-2.709,-2.6797,-2.6504,-2.6094,-2.5977,-2.5898,-2.5859,-2.5762,-2.5742,-2.5644,-2.5467,-2.552,-2.5535,-2.5538,-2.5503,-2.5562,-2.5694,-2.5653,-3.0898,-3.0898,-3.0898,-3.0898,-3.082,-3.0391,-3.0215,-3.0137,-2.9766,-2.9648,-2.9551,-2.9453,-2.9629,-3.0,-3.0039,-3.0273,-3.0625,-3.082,-3.0898,-3.0879,-3.0781,-3.0703,-3.0723,-3.082,-3.0898,-3.0898,-3.0898,-3.0898,-3.0898,-3.0918,-3.0918,-3.0898,-3.0957,-3.0918,-3.0898,-3.0918,-3.0898,-3.0898,-3.0898,-3.0898,-3.082,-3.0449,-3.0391,-3.0644,-3.0254,-2.9844,-2.9375,-2.8887,-2.8691,-2.8613,-2.8184,-2.7969,-2.791,-2.791,-2.7871,-2.7891,-2.791,-2.793,-2.793,-2.793,-2.8008,-2.8105,-2.8086,-2.8184,-2.8262,-2.8301,-2.8301,-2.8301,-2.8301,-2.8301,-2.8301,-2.8301,-2.8301,-2.8281,-2.8008,-2.7891,-2.7891,-2.7969,-2.7949,-2.7949,-2.791,-2.7891,-2.7871,-2.7871,-2.7891,-2.7891,-2.7871,-2.7871,-2.7754,-2.7617,-2.7519,-2.7715,-2.7812,-2.7812,-2.7871,-2.7949,-2.7871,-2.7598,-2.7363,-2.7187,-2.6777,-2.6445,-2.6328,-2.623,-2.6153,-2.6152,-2.615,-2.6068,-2.6124,-2.6139,-2.6134,-2.604,-2.6023,-2.6054,-2.6013,-3.0898,-3.0898,-3.0898,-3.0898,-3.0859,-3.0586,-3.0488,-3.0449,-3.0234,-3.0137,-3.0098,-2.9902,-3.0078,-3.0449,-3.0293,-3.0449,-3.0859,-3.0898,-3.0898,-3.0898,-3.0879,-3.0879,-3.0879,-3.0898,-3.0898,-3.0898,-3.0898,-3.0996,-3.1133,-3.1152,-3.123,-3.1426,-3.1426,-3.1348,-3.1172,-3.1152,-3.1055,-3.0937,-3.0898,-3.0898,-3.0859,-3.0644,-3.047,-3.0645,-3.0451,-3.0351,-3.0019,-2.9141,-2.8613,-2.8613,-2.8418,-2.8301,-2.8301,-2.8301,-2.8301,-2.8301,-2.8301,-2.8281,-2.8301,-2.8301,-2.8301,-2.8301,-2.8301,-2.8301,-2.8301,-2.8301,-2.8301,-2.8301,-2.8301,-2.8301,-2.8301,-2.8301,-2.8301,-2.8301,-2.8301,-2.8301,-2.8301,-2.8262,-2.8281,-2.8301,-2.8301,-2.8301,-2.8301,-2.8301,-2.8301,-2.8281,-2.8203,-2.8223,-2.8203,-2.8047,-2.7949,-2.8066,-2.8144,-2.8086,-2.8066,-2.8125,-2.8144,-2.791,-2.7812,-2.7676,-2.7491,-2.7058,-2.6842,-2.6764,-2.6665,-2.6523,-2.654,-2.644,-2.6456,-2.6512,-2.6592,-2.6703,-2.6627,-2.6516,-2.6475,-3.0898,-3.0898,-3.0898,-3.0898,-3.0898,-3.0898,-3.084,-3.0879,-3.082,-3.082,-3.0742,-3.043,-3.0488,-3.0859,-3.0488,-3.0508,-3.0898,-3.0898,-3.0898,-3.0898,-3.0898,-3.0898,-3.0898,-3.0898,-3.0898,-3.0918,-3.0918,-3.1172,-3.1406,-3.1523,-3.1777,-3.1953,-3.207,-3.1934,-3.1621,-3.1523,-3.1309,-3.1035,-3.0918,-3.0898,-3.0859,-3.0742,-3.0568,-3.0374,-3.0548,-3.0664,-3.0371,-2.9629,-2.8867,-2.8457,-2.8379,-2.8398,-2.8398,-2.8379,-2.8379,-2.8398,-2.8418,-2.8418,-2.8379,-2.8418,-2.834,-2.832,-2.834,-2.832,-2.832,-2.8301,-2.8301,-2.8301,-2.8301,-2.8301,-2.8301,-2.8301,-2.8301,-2.8301,-2.8301,-2.8301,-2.8301,-2.8301,-2.8301,-2.8301,-2.8301,-2.8301,-2.8301,-2.8301,-2.8301,-2.8301,-2.8301,-2.8301,-2.8301,-2.8203,-2.8144,-2.8223,-2.8262,-2.8281,-2.8262,-2.8281,-2.8262,-2.8184,-2.8144,-2.8094,-2.8014,-2.7617,-2.7542,-2.7402,-2.7381,-2.708,-2.6835,-2.6754,-2.681,-2.6784,-2.688,-2.7071,-2.7125,-2.7002,-2.6919,-3.0898,-3.0898,-3.0898,-3.0898,-3.0898,-3.0898,-3.0898,-3.0898,-3.0898,-3.0898,-3.0859,-3.0762,-3.0801,-3.0879,-3.0762,-3.0801,-3.0879,-3.0898,-3.0898,-3.0898,-3.0898,-3.0898,-3.0898,-3.0898,-3.0898,-3.0976,-3.125,-3.1445,-3.1582,-3.1894,-3.207,-3.2187,-3.2285,-3.2129,-3.2031,-3.1738,-3.1504,-3.1328,-3.1074,-3.0937,-3.084,-3.0605,-3.0566,-3.0645,-3.0547,-3.0371,-3.0254,-2.9766,-2.9394,-2.9238,-2.9004,-2.8828,-2.8789,-2.8789,-2.8789,-2.8789,-2.8789,-2.8789,-2.8789,-2.8769,-2.8633,-2.8398,-2.8574,-2.8652,-2.832,-2.8301,-2.8301,-2.8301,-2.8301,-2.8301,-2.8301,-2.8301,-2.8301,-2.8301,-2.8301,-2.8301,-2.8301,-2.8301,-2.8301,-2.8301,-2.8301,-2.8301,-2.8301,-2.8301,-2.8301,-2.8301,-2.8301,-2.8301,-2.832,-2.834,-2.8359,-2.8379,-2.8301,-2.8301,-2.8301,-2.8301,-2.8301,-2.8281,-2.8281,-2.8495,-2.8396,-2.8364,-2.8104,-2.8127,-2.8087,-2.7722,-2.7394,-2.7488,-2.7606,-2.7435,-2.7228,-2.7324,-2.744,-2.7398,-2.7262,-3.0898,-3.0898,-3.0898,-3.0898,-3.0898,-3.0898,-3.0898,-3.0898,-3.0898,-3.0898,-3.0898,-3.0898,-3.0898,-3.0898,-3.0898,-3.0898,-3.0898,-3.0898,-3.0898,-3.0898,-3.0898,-3.0898,-3.0898,-3.0918,-3.0976,-3.1172,-3.1387,-3.168,-3.207,-3.2324,-3.2578,-3.2734,-3.2734,-3.2676,-3.248,-3.2207,-3.2031,-3.1777,-3.1406,-3.1054,-3.082,-3.0626,-3.0586,-3.0742,-3.0469,-3.0273,-3.0488,-3.0098,-3.0019,-3.0019,-2.9766,-2.9414,-2.9258,-2.9219,-2.9238,-2.9219,-2.9219,-2.9219,-2.9219,-2.9199,-2.9043,-2.8613,-2.8809,-2.8633,-2.8418,-2.8301,-2.8301,-2.8301,-2.8301,-2.8301,-2.8301,-2.8301,-2.8301,-2.8301,-2.8301,-2.8301,-2.8301,-2.8301,-2.8301,-2.8301,-2.8301,-2.8301,-2.8301,-2.8379,-2.8359,-2.8379,-2.8359,-2.8379,-2.8535,-2.8555,-2.8516,-2.8496,-2.8379,-2.8301,-2.8301,-2.8301,-2.8301,-2.8281,-2.8262,-2.8581,-2.876,-2.881,-2.8793,-2.8798,-2.8758,-2.8471,-2.8202,-2.8317,-2.8193,-2.8069,-2.7883,-2.771,-2.7502,-2.7461,-2.7398,-3.0898,-3.0898,-3.0898,-3.0898,-3.0898,-3.0898,-3.0898,-3.0898,-3.0898,-3.0898,-3.0898,-3.0898,-3.0898,-3.0898,-3.0898,-3.0898,-3.0898,-3.0898,-3.0898,-3.0898,-3.0898,-3.0898,-3.0898,-3.0918,-3.1172,-3.1562,-3.166,-3.2051,-3.2559,-3.2871,-3.3027,-3.334,-3.3379,-3.3164,-3.293,-3.2793,-3.2578,-3.2246,-3.1836,-3.1482,-3.1227,-3.1054,-3.0996,-3.0801,-3.0605,-3.0508,-3.0703,-3.0527,-3.0469,-3.084,-3.0508,-3.0156,-2.9863,-2.9668,-2.9668,-2.9668,-2.9668,-2.9668,-2.9668,-2.9629,-2.9453,-2.9004,-2.9121,-2.8887,-2.8574,-2.8555,-2.8633,-2.8466,-2.8466,-2.8388,-2.8398,-2.831,-2.8272,-2.832,-2.8301,-2.832,-2.8379,-2.8379,-2.8418,-2.8301,-2.8437,-2.8516,-2.8555,-2.8594,-2.8535,-2.8476,-2.8476,-2.8535,-2.873,-2.8809,-2.8828,-2.8711,-2.8594,-2.8379,-2.832,-2.8573,-2.8447,-2.8427,-2.8388,-2.8688,-2.9026,-2.9262,-2.9329,-2.9394,-2.925,-2.9104,-2.8817,-2.8773,-2.8669,-2.8628,-2.8359,-2.8105,-2.7814,-2.7639,-2.7502,-3.0898,-3.0898,-3.0898,-3.0898,-3.0898,-3.0898,-3.0898,-3.0898,-3.0898,-3.0898,-3.0898,-3.0898,-3.0898,-3.0898,-3.0898,-3.0898,-3.0898,-3.0898,-3.0898,-3.0898,-3.0898,-3.0898,-3.0898,-3.0918,-3.1289,-3.1894,-3.2051,-3.2305,-3.2812,-3.3144,-3.332,-3.3418,-3.3457,-3.3379,-3.3262,-3.3008,-3.2871,-3.2656,-3.2285,-3.2051,-3.1934,-3.1641,-3.1289,-3.1055,-3.0859,-3.084,-3.0859,-3.084,-3.082,-3.0879,-3.082,-3.0723,-3.0547,-3.0254,-3.0117,-3.0098,-3.0098,-3.0098,-3.0098,-3.0078,-2.9668,-2.9316,-2.9512,-2.9512,-2.9121,-2.9101,-2.918,-2.9089,-2.8771,-2.8454,-2.8719,-2.8661,-2.8358,-2.831,-2.8398,-2.8496,-2.873,-2.8809,-2.8711,-2.8535,-2.8672,-2.8828,-2.8887,-2.8965,-2.9023,-2.9023,-2.9043,-2.9141,-2.9316,-2.9297,-2.9238,-2.9062,-2.8867,-2.8594,-2.8359,-2.8613,-2.8739,-2.87,-2.8747,-2.8774,-2.9237,-2.972,-2.9848,-2.9787,-2.9704,-2.958,-2.9394,-2.9228,-2.9083,-2.898,-2.8669,-2.8359,-2.8173,-2.8063,-2.7772,-3.0898,-3.0898,-3.0898,-3.0898,-3.0898,-3.0898,-3.0898,-3.0898,-3.0898,-3.0898,-3.0898,-3.0898,-3.0898,-3.0898,-3.0898,-3.0898,-3.0898,-3.0898,-3.0898,-3.0898,-3.0898,-3.0898,-3.0898,-3.0898,-3.1426,-3.1953,-3.2187,-3.2519,-3.3086,-3.3301,-3.3535,-3.373,-3.375,-3.375,-3.373,-3.3594,-3.3301,-3.3105,-3.2715,-3.248,-3.2441,-3.207,-3.1738,-3.1562,-3.1309,-3.123,-3.1172,-3.0957,-3.0898,-3.0898,-3.0898,-3.0898,-3.082,-3.0703,-3.0547,-3.0547,-3.0527,-3.0547,-3.0547,-3.0527,-3.0254,-2.9766,-3.0,-2.9883,-2.9492,-2.9434,-2.9609,-2.957,-2.9551,-2.9191,-2.9277,-2.9128,-2.9141,-2.9023,-2.8926,-2.9023,-2.918,-2.9238,-2.9121,-2.8965,-2.916,-2.9297,-2.9277,-2.9375,-2.9512,-2.957,-2.9609,-2.9839,-2.9996,-2.9878,-2.9872,-2.9754,-2.9648,-2.9372,-2.9134,-2.9311,-2.9359,-2.9259,-2.9053,-2.9166,-2.9404,-2.9928,-2.9972,-2.9953,-2.9911,-2.987,-2.9829,-2.9642,-2.9477,-2.9332,-2.9104,-2.8897,-2.869,-2.8462,-2.8173,-3.0898,-3.0898,-3.0898,-3.0898,-3.0898,-3.0898,-3.0898,-3.0898,-3.0898,-3.0898,-3.0898,-3.0898,-3.0898,-3.0898,-3.0898,-3.0898,-3.0898,-3.0898,-3.0898,-3.0898,-3.0898,-3.0898,-3.0898,-3.0996,-3.1328,-3.207,-3.2329,-3.2617,-3.3223,-3.3418,-3.3672,-3.3906,-3.4043,-3.4062,-3.4023,-3.3945,-3.3789,-3.3457,-3.3125,-3.291,-3.2734,-3.248,-3.2246,-3.2168,-3.1816,-3.1601,-3.1445,-3.123,-3.0996,-3.0937,-3.0898,-3.0898,-3.0898,-3.0898,-3.0898,-3.0898,-3.0898,-3.0898,-3.0879,-3.0859,-3.0586,-3.0117,-3.0273,-3.0098,-2.9883,-2.9824,-2.9902,-2.9844,-3.0015,-2.9976,-2.9746,-2.9839,-2.978,-2.9643,-2.9492,-2.959,-2.9648,-2.9726,-2.9917,-2.9858,-2.9917,-2.9878,-2.9858,-3.0187,-3.0364,-3.0478,-3.0497,-3.0631,-3.075,-3.0497,-3.0512,-3.0545,-3.0478,-3.0329,-3.0169,-3.0198,-3.0207,-3.0045,-2.9796,-2.9675,-2.9855,-3.0072,-3.0116,-3.018,-2.9994,-2.9953,-2.9994,-2.9994,-2.9808,-2.9642,-2.9559,-2.9373,-2.9063,-2.8876,-2.8649,-3.0898,-3.0898,-3.0898,-3.0898,-3.0898,-3.0898,-3.0898,-3.0898,-3.0898,-3.0898,-3.0898,-3.0898,-3.0898,-3.0898,-3.0898,-3.0898,-3.0898,-3.0898,-3.0898,-3.0898,-3.0898,-3.0898,-3.0898,-3.0898,-3.1406,-3.207,-3.2368,-3.2819,-3.3242,-3.3418,-3.3672,-3.4023,-3.4101,-3.4101,-3.4258,-3.4121,-3.3848,-3.3496,-3.3359,-3.3164,-3.291,-3.2773,-3.2559,-3.2324,-3.2129,-3.1953,-3.1699,-3.1523,-3.1328,-3.0976,-3.0918,-3.0898,-3.0898,-3.0898,-3.0898,-3.0898,-3.0898,-3.0898,-3.0898,-3.0879,-3.0742,-3.0449,-3.0547,-3.0508,-3.0351,-3.041,-3.0586,-3.0742,-3.0703,-3.0623,-3.0195,-3.0117,-2.9922,-2.9805,-2.9766,-2.9902,-3.0039,-3.025,-3.0463,-3.0695,-3.0695,-3.0482,-3.0309,-3.0718,-3.1206,-3.1186,-3.1281,-3.1397,-3.1471,-3.1197,-3.1097,-3.1224,-3.1257,-3.1147,-3.1197,-3.1136,-3.0933,-3.086,-3.0628,-3.0336,-3.035,-3.0529,-3.0426,-3.0323,-3.0222,-3.0015,-2.9994,-2.9994,-2.9994,-2.9932,-2.9787,-2.958,-2.9332,-2.9187,-2.9104,-3.0898,-3.0898,-3.0898,-3.0898,-3.0898,-3.0898,-3.0898,-3.0898,-3.0898,-3.0898,-3.0898,-3.0898,-3.0898,-3.0898,-3.0898,-3.0898,-3.0898,-3.0898,-3.0898,-3.0898,-3.0898,-3.0898,-3.0957,-3.0996,-3.1324,-3.2051,-3.2441,-3.2832,-3.3262,-3.3476,-3.373,-3.4297,-3.4238,-3.4394,-3.4512,-3.4277,-3.4023,-3.3769,-3.3574,-3.3476,-3.3437,-3.3281,-3.3066,-3.2871,-3.2656,-3.2402,-3.2226,-3.1973,-3.1699,-3.1348,-3.125,-3.1113,-3.0957,-3.0898,-3.0898,-3.0898,-3.0898,-3.0898,-3.0898,-3.0898,-3.0762,-3.0684,-3.0762,-3.0762,-3.0664,-3.0742,-3.0898,-3.0879,-3.0898,-3.0762,-3.0625,-3.0586,-3.0488,-3.0351,-3.029,-3.0522,-3.0679,-3.0758,-3.0971,-3.1245,-3.1441,-3.1126,-3.0988,-3.1242,-3.1516,-3.1612,-3.1592,-3.1707,-3.1822,-3.1782,-3.1836,-3.1775,-3.1942,-3.1932,-3.1953,-3.2046,-3.1819,-3.1655,-3.1836,-3.1498,-3.1148,-3.1071,-3.0946,-3.0636,-3.0284,-3.0139,-3.0056,-2.9994,-2.9994,-2.9994,-2.9994,-2.9787,-2.9622,-2.9684,-2.9601,-3.0898,-3.0898,-3.0898,-3.0898,-3.0898,-3.0898,-3.0898,-3.0898,-3.0898,-3.0898,-3.0898,-3.0898,-3.0898,-3.0898,-3.0898,-3.0898,-3.0898,-3.0898,-3.0898,-3.0898,-3.0898,-3.0898,-3.0859,-3.0975,-3.1382,-3.2187,-3.2721,-3.2988,-3.3281,-3.3476,-3.3789,-3.4512,-3.4199,-3.4375,-3.4648,-3.4434,-3.4023,-3.4004,-3.3906,-3.3965,-3.4082,-3.3789,-3.3633,-3.3437,-3.3203,-3.2891,-3.2754,-3.2519,-3.2129,-3.1582,-3.1484,-3.1289,-3.0976,-3.0898,-3.0898,-3.0898,-3.0898,-3.0898,-3.0898,-3.0898,-3.0898,-3.0898,-3.0898,-3.0879,-3.0879,-3.0898,-3.0898,-3.0898,-3.0898,-3.0898,-3.0879,-3.0859,-3.0917,-3.0878,-3.0878,-3.1189,-3.1325,-3.1381,-3.1456,-3.1747,-3.1787,-3.1903,-3.1822,-3.1862,-3.2018,-3.1903,-3.2018,-3.2018,-3.2133,-3.2248,-3.2227,-3.226,-3.224,-3.2406,-3.2447,-3.2468,-3.2437,-3.2354,-3.2559,-3.2455,-3.1989,-3.1698,-3.1642,-3.1225,-3.0553,-3.0553,-3.0677,-3.0325,-2.9994,-2.9994,-2.9994,-2.9994,-2.9953,-2.9994,-2.9973,-3.0898,-3.0898,-3.0898,-3.0898,-3.0898,-3.0898,-3.0898,-3.0898,-3.0898,-3.0898,-3.0898,-3.0898,-3.0898,-3.0898,-3.0898,-3.0898,-3.0898,-3.0898,-3.0898,-3.0898,-3.0898,-3.0918,-3.0937,-3.1091,-3.132,-3.2226,-3.2858,-3.325,-3.334,-3.3418,-3.3711,-3.4043,-3.4082,-3.4121,-3.4258,-3.4297,-3.418,-3.4219,-3.4297,-3.4512,-3.4512,-3.4297,-3.4043,-3.3945,-3.3613,-3.3203,-3.2851,-3.2793,-3.2383,-3.168,-3.1621,-3.1328,-3.0996,-3.0898,-3.0898,-3.0898,-3.0898,-3.0898,-3.0898,-3.0898,-3.0898,-3.0898,-3.0898,-3.0898,-3.0898,-3.0898,-3.0898,-3.0898,-3.0898,-3.0898,-3.0898,-3.0898,-3.0995,-3.1112,-3.1112,-3.1325,-3.1556,-3.1672,-3.1883,-3.2133,-3.2248,-3.2248,-3.2268,-3.2268,-3.2268,-3.2248,-3.2248,-3.2383,-3.2383,-3.2498,-3.2612,-3.2592,-3.2592,-3.2571,-3.2571,-3.2644,-3.2582,-3.2561,-3.2654,-3.2695,-3.252,-3.2342,-3.1954,-3.1719,-3.1236,-3.1257,-3.1153,-3.0739,-3.0387,-3.0118,-3.0015,-3.0098,-3.0056,-2.9994,-2.9994,-3.0898,-3.0898,-3.0898,-3.0898,-3.0898,-3.0898,-3.0898,-3.0898,-3.0898,-3.0898,-3.0898,-3.0898,-3.0898,-3.0898,-3.0898,-3.0898,-3.0898,-3.0898,-3.0898,-3.0898,-3.0898,-3.1055,-3.1132,-3.1223,-3.1488,-3.2396,-3.3132,-3.3387,-3.3398,-3.3418,-3.3476,-3.3691,-3.3945,-3.4258,-3.4355,-3.4434,-3.4473,-3.4492,-3.4648,-3.4805,-3.5019,-3.4707,-3.4473,-3.4414,-3.4043,-3.3789,-3.3574,-3.3301,-3.2715,-3.2168,-3.1953,-3.1543,-3.1074,-3.0976,-3.0937,-3.0918,-3.0918,-3.0898,-3.0898,-3.0898,-3.0898,-3.0898,-3.0898,-3.0898,-3.0898,-3.0898,-3.0898,-3.0898,-3.0898,-3.0898,-3.0898,-3.0898,-3.1015,-3.1112,-3.1228,-3.1576,-3.1787,-3.2018,-3.2133,-3.2248,-3.2363,-3.2498,-3.2498,-3.2498,-3.2498,-3.2612,-3.2612,-3.2727,-3.2727,-3.2727,-3.2727,-3.2727,-3.2727,-3.2727,-3.2727,-3.2727,-3.2727,-3.2727,-3.2727,-3.2727,-3.2685,-3.2179,-3.1899,-3.1746,-3.1795,-3.1609,-3.136,-3.1091,-3.0801,-3.0553,-3.0387,-3.0325,-3.0201,-3.0056,-3.0015,-3.0898,-3.0898,-3.0898,-3.0898,-3.0898,-3.0898,-3.0898,-3.0898,-3.0898,-3.0898,-3.0898,-3.0898,-3.0898,-3.0898,-3.0898,-3.0898,-3.0898,-3.0898,-3.0898,-3.0957,-3.1055,-3.125,-3.1324,-3.1571,-3.1854,-3.2708,-3.3184,-3.3418,-3.3418,-3.3418,-3.3437,-3.3574,-3.3848,-3.4219,-3.4434,-3.4805,-3.4902,-3.4902,-3.5078,-3.5215,-3.5488,-3.5156,-3.4922,-3.4805,-3.4355,-3.4043,-3.3848,-3.3555,-3.3047,-3.2578,-3.2266,-3.1973,-3.1523,-3.1172,-3.1094,-3.1035,-3.0957,-3.0898,-3.0898,-3.0898,-3.0898,-3.0898,-3.0898,-3.0898,-3.0898,-3.0898,-3.0898,-3.0898,-3.0898,-3.0898,-3.0898,-3.0995,-3.1112,-3.1344,-3.1692,-3.1903,-3.2153,-3.2383,-3.2383,-3.2477,-3.2498,-3.2612,-3.2612,-3.2612,-3.2612,-3.2612,-3.2612,-3.2727,-3.2727,-3.2727,-3.2727,-3.2727,-3.2727,-3.2727,-3.2727,-3.2727,-3.2727,-3.2727,-3.2727,-3.2727,-3.2488,-3.2158,-3.2076,-3.2158,-3.2147,-3.1857,-3.1774,-3.1795,-3.1422,-3.0988,-3.0843,-3.0719,-3.0343,-3.0178,-3.0013,-3.0898,-3.0898,-3.0898,-3.0898,-3.0898,-3.0898,-3.0898,-3.0898,-3.0898,-3.0898,-3.0898,-3.0898,-3.0898,-3.0898,-3.0898,-3.0898,-3.0898,-3.0898,-3.0898,-3.0957,-3.123,-3.1445,-3.1657,-3.1944,-3.2247,-3.2727,-3.3184,-3.3418,-3.3418,-3.3418,-3.3418,-3.3535,-3.3828,-3.4141,-3.4199,-3.4941,-3.5332,-3.541,-3.5703,-3.5859,-3.582,-3.5547,-3.541,-3.5195,-3.459,-3.4199,-3.4101,-3.3672,-3.3164,-3.2754,-3.2676,-3.2363,-3.1914,-3.1562,-3.1426,-3.1505,-3.1055,-3.0918,-3.0898,-3.0898,-3.0898,-3.0898,-3.0898,-3.0898,-3.0898,-3.0898,-3.0898,-3.0898,-3.0898,-3.0898,-3.0995,-3.1112,-3.1441,-3.1672,-3.1903,-3.2133,-3.2383,-3.2498,-3.2612,-3.2612,-3.2612,-3.2727,-3.2727,-3.2727,-3.2727,-3.2727,-3.2727,-3.2727,-3.2727,-3.2727,-3.2727,-3.2727,-3.2727,-3.2727,-3.2727,-3.2727,-3.2727,-3.2727,-3.2727,-3.2727,-3.2727,-3.2468,-3.2447,-3.2644,-3.252,-3.2271,-3.2437,-3.2644,-3.2126,-3.1629,-3.134,-3.1133,-3.0714,-3.0405,-3.0219,-3.0898,-3.0898,-3.0898,-3.0898,-3.0898,-3.0898,-3.0898,-3.0898,-3.0898,-3.0898,-3.0898,-3.0898,-3.0898,-3.0898,-3.0898,-3.0898,-3.0898,-3.0898,-3.0898,-3.0957,-3.1348,-3.168,-3.191,-3.2196,-3.2603,-3.3019,-3.3379,-3.3418,-3.3418,-3.3418,-3.3418,-3.3535,-3.3867,-3.4219,-3.4473,-3.4883,-3.5019,-3.5391,-3.5762,-3.6016,-3.5996,-3.5859,-3.5781,-3.5742,-3.4922,-3.4473,-3.4414,-3.3867,-3.3262,-3.293,-3.2891,-3.2539,-3.2031,-3.1641,-3.1445,-3.125,-3.0918,-3.0898,-3.0898,-3.0898,-3.0898,-3.0918,-3.0898,-3.0898,-3.0898,-3.0898,-3.0898,-3.1015,-3.0995,-3.1112,-3.1228,-3.1441,-3.1672,-3.1787,-3.2018,-3.2248,-3.2363,-3.2612,-3.2612,-3.2612,-3.2727,-3.2727,-3.2727,-3.2727,-3.2727,-3.2789,-3.2809,-3.2747,-3.2747,-3.2727,-3.2727,-3.2727,-3.2727,-3.2727,-3.2727,-3.2727,-3.2727,-3.2727,-3.2727,-3.2727,-3.2727,-3.2727,-3.2727,-3.2685,-3.2706,-3.2727,-3.2727,-3.2706,-3.2623,-3.2313,-3.1919,-3.1547,-3.1236,-3.0756,-3.0298,-3.0898,-3.0898,-3.0898,-3.0898,-3.0898,-3.0898,-3.0898,-3.0898,-3.0898,-3.0898,-3.0898,-3.0898,-3.0898,-3.0898,-3.0898,-3.0898,-3.0898,-3.0898,-3.1074,-3.1133,-3.1562,-3.1992,-3.226,-3.2611,-3.2961,-3.3359,-3.3418,-3.3418,-3.3418,-3.3418,-3.3516,-3.3711,-3.3926,-3.4277,-3.4609,-3.4883,-3.5215,-3.5605,-3.5937,-3.6035,-3.6016,-3.5996,-3.5996,-3.5762,-3.5273,-3.4766,-3.4609,-3.4101,-3.3379,-3.3223,-3.3008,-3.2754,-3.2266,-3.1855,-3.1641,-3.1249,-3.1172,-3.123,-3.1348,-3.1406,-3.1387,-3.1172,-3.0996,-3.0898,-3.0898,-3.0898,-3.0898,-3.0995,-3.1132,-3.1228,-3.1344,-3.1672,-3.1943,-3.2058,-3.233,-3.2445,-3.2559,-3.2695,-3.2809,-3.2809,-3.283,-3.2789,-3.2789,-3.2727,-3.2727,-3.2809,-3.2871,-3.2851,-3.283,-3.2851,-3.2851,-3.2871,-3.2809,-3.2789,-3.2768,-3.2727,-3.2727,-3.2727,-3.2727,-3.2727,-3.2727,-3.2727,-3.2727,-3.2727,-3.2727,-3.2727,-3.2727,-3.2685,-3.2644,-3.254,-3.2313,-3.1981,-3.1671,-3.134,-3.088,-3.0898,-3.0898,-3.0898,-3.0898,-3.0898,-3.0898,-3.0898,-3.0898,-3.0898,-3.0898,-3.0898,-3.0898,-3.0898,-3.0898,-3.0898,-3.0898,-3.0898,-3.0898,-3.1133,-3.1484,-3.1855,-3.2305,-3.2734,-3.3125,-3.3301,-3.3379,-3.3418,-3.3418,-3.3418,-3.3418,-3.3613,-3.3945,-3.3965,-3.4336,-3.4726,-3.5039,-3.5391,-3.5664,-3.5918,-3.5996,-3.6035,-3.6035,-3.6035,-3.5781,-3.5312,-3.5098,-3.4824,-3.4297,-3.3945,-3.3769,-3.3652,-3.3476,-3.3125,-3.2598,-3.2144,-3.1813,-3.1641,-3.1936,-3.1934,-3.1953,-3.1855,-3.1543,-3.125,-3.1035,-3.0996,-3.1094,-3.127,-3.1191,-3.1269,-3.1287,-3.146,-3.1848,-3.214,-3.2411,-3.2683,-3.2819,-3.2819,-3.2934,-3.2954,-3.2954,-3.2996,-3.3016,-3.3058,-3.2996,-3.2942,-3.3203,-3.3306,-3.3402,-3.3244,-3.312,-3.3141,-3.312,-3.3037,-3.2892,-3.2851,-3.2913,-3.2768,-3.2789,-3.2727,-3.2727,-3.2727,-3.2727,-3.2727,-3.2727,-3.2727,-3.2727,-3.2727,-3.2727,-3.2727,-3.2602,-3.2499,-3.2395,-3.2106,-3.2246,-3.1954,-3.0898,-3.0898,-3.0898,-3.0898,-3.0898,-3.0898,-3.0898,-3.0898,-3.0898,-3.0898,-3.0898,-3.0898,-3.0898,-3.0898,-3.0898,-3.0898,-3.0898,-3.0957,-3.1172,-3.1543,-3.1992,-3.2402,-3.2812,-3.3203,-3.3379,-3.3418,-3.3418,-3.3418,-3.3418,-3.3418,-3.3848,-3.4375,-3.3965,-3.4316,-3.4746,-3.5019,-3.5293,-3.5586,-3.5859,-3.5996,-3.6035,-3.6035,-3.6035,-3.582,-3.5469,-3.5312,-3.5137,-3.4687,-3.4414,-3.4394,-3.4101,-3.3809,-3.3359,-3.2637,-3.207,-3.1638,-3.1956,-3.2352,-3.2289,-3.2168,-3.2129,-3.2051,-3.1855,-3.1621,-3.1543,-3.1523,-3.1701,-3.1663,-3.18,-3.1976,-3.215,-3.2383,-3.2793,-3.2991,-3.3306,-3.343,-3.343,-3.343,-3.343,-3.343,-3.3451,-3.3451,-3.3472,-3.3375,-3.3458,-3.3699,-3.3879,-3.3879,-3.3796,-3.3555,-3.3451,-3.3451,-3.343,-3.3348,-3.3244,-3.3265,-3.3016,-3.283,-3.283,-3.2789,-3.2727,-3.2727,-3.2727,-3.2727,-3.2727,-3.2727,-3.2727,-3.2727,-3.2727,-3.2727,-3.2644,-3.2623,-3.2561,-3.2642,-3.2609,-3.0898,-3.0898,-3.0898,-3.0898,-3.0898,-3.0898,-3.0898,-3.0898,-3.0898,-3.0898,-3.0898,-3.0898,-3.0898,-3.0898,-3.0898,-3.0898,-3.0898,-3.0937,-3.1211,-3.1797,-3.2031,-3.2559,-3.2969,-3.3262,-3.3379,-3.3418,-3.3418,-3.3418,-3.3437,-3.3476,-3.3809,-3.4277,-3.3828,-3.4316,-3.4805,-3.5059,-3.5176,-3.5488,-3.5762,-3.5957,-3.6016,-3.6016,-3.6016,-3.5937,-3.5605,-3.5527,-3.5527,-3.5078,-3.4824,-3.4805,-3.4473,-3.3984,-3.3555,-3.291,-3.2402,-3.2168,-3.2407,-3.2681,-3.2695,-3.2734,-3.2598,-3.25,-3.2539,-3.2544,-3.2411,-3.2293,-3.2315,-3.2296,-3.2475,-3.2771,-3.2926,-3.312,-3.3437,-3.3658,-3.3844,-3.401,-3.4031,-3.4031,-3.4031,-3.401,-3.401,-3.3989,-3.401,-3.3891,-3.3891,-3.401,-3.4274,-3.4419,-3.4295,-3.3989,-3.3886,-3.3824,-3.3865,-3.3865,-3.3762,-3.3617,-3.341,-3.3223,-3.3099,-3.3016,-3.2851,-3.2727,-3.2727,-3.2727,-3.2727,-3.2727,-3.2727,-3.2727,-3.2727,-3.2727,-3.2727,-3.2685,-3.2644,-3.2695,-3.2571,-3.0859,-3.0898,-3.0898,-3.0898,-3.0898,-3.0898,-3.0898,-3.0898,-3.0898,-3.0898,-3.0898,-3.0898,-3.0898,-3.0898,-3.0898,-3.0898,-3.0898,-3.0918,-3.1348,-3.2109,-3.2129,-3.2559,-3.3144,-3.3418,-3.3418,-3.3418,-3.3437,-3.3476,-3.3476,-3.3516,-3.3652,-3.4043,-3.3945,-3.4199,-3.457,-3.498,-3.5176,-3.541,-3.5684,-3.5898,-3.5976,-3.5996,-3.5976,-3.5957,-3.5762,-3.5586,-3.5684,-3.541,-3.4941,-3.4941,-3.4648,-3.4101,-3.3574,-3.3301,-3.291,-3.2812,-3.2832,-3.3047,-3.3223,-3.3262,-3.3105,-3.3066,-3.3184,-3.3296,-3.3144,-3.2966,-3.295,-3.2994,-3.3276,-3.3374,-3.351,-3.3731,-3.3974,-3.4196,-3.4341,-3.4486,-3.4548,-3.4548,-3.4548,-3.4548,-3.4527,-3.4527,-3.4527,-3.4427,-3.4448,-3.4445,-3.4507,-3.4776,-3.4714,-3.4486,-3.4383,-3.43,-3.4403,-3.4424,-3.4196,-3.4051,-3.3865,-3.3679,-3.3492,-3.3087,-3.2765,-3.2736,-3.2727,-3.2727,-3.2727,-3.2727,-3.2727,-3.2727,-3.2727,-3.2727,-3.2727,-3.2727,-3.2706,-3.2685,-3.2644,-3.0566,-3.0879,-3.0898,-3.0898,-3.0898,-3.0898,-3.0898,-3.0898,-3.0898,-3.0898,-3.0898,-3.0898,-3.0898,-3.0898,-3.0898,-3.0898,-3.0898,-3.0937,-3.1426,-3.1894,-3.2129,-3.2539,-3.3262,-3.3359,-3.3398,-3.3418,-3.3457,-3.3555,-3.3672,-3.3633,-3.3613,-3.3965,-3.3848,-3.3867,-3.4277,-3.4707,-3.498,-3.5293,-3.5371,-3.5664,-3.5918,-3.5742,-3.5625,-3.584,-3.5859,-3.5859,-3.584,-3.5586,-3.5332,-3.5234,-3.4512,-3.3828,-3.3125,-3.3203,-3.3262,-3.3262,-3.3301,-3.3555,-3.3691,-3.3672,-3.3544,-3.3591,-3.3737,-3.3968,-3.3888,-3.3789,-3.3753,-3.3882,-3.3923,-3.4001,-3.406,-3.4345,-3.4489,-3.4714,-3.4838,-3.4921,-3.5024,-3.5024,-3.5024,-3.5024,-3.5024,-3.5024,-3.5004,-3.5045,-3.5107,-3.5128,-3.5169,-3.5252,-3.5211,-3.5066,-3.5004,-3.4962,-3.5066,-3.5024,-3.4755,-3.4527,-3.4341,-3.4134,-3.3948,-3.3458,-3.2834,-3.2984,-3.3037,-3.2809,-3.2727,-3.2851,-3.2892,-3.2747,-3.2747,-3.2747,-3.2727,-3.2727,-3.2727,-3.2706,-3.2706,-3.0176,-3.0586,-3.0801,-3.0898,-3.0898,-3.0898,-3.0898,-3.0898,-3.0898,-3.0898,-3.0898,-3.0898,-3.0898,-3.0898,-3.0898,-3.0898,-3.0898,-3.0898,-3.1269,-3.1699,-3.2012,-3.2422,-3.2832,-3.3328,-3.332,-3.3359,-3.3418,-3.3535,-3.373,-3.3633,-3.3574,-3.373,-3.3535,-3.3633,-3.4043,-3.4355,-3.4668,-3.5039,-3.498,-3.5215,-3.5664,-3.5547,-3.5469,-3.5723,-3.5898,-3.5976,-3.5976,-3.5781,-3.5723,-3.5449,-3.4844,-3.418,-3.3691,-3.3633,-3.3711,-3.3769,-3.3887,-3.4101,-3.4141,-3.4113,-3.3946,-3.416,-3.4213,-3.4278,-3.4507,-3.4282,-3.4282,-3.4451,-3.4677,-3.4799,-3.4778,-3.5024,-3.5045,-3.5128,-3.5169,-3.5231,-3.5252,-3.5252,-3.5252,-3.5252,-3.5252,-3.5252,-3.5252,-3.5252,-3.5293,-3.5293,-3.5397,-3.5418,-3.5418,-3.5418,-3.5418,-3.5418,-3.5418,-3.5397,-3.5148,-3.4983,-3.4859,-3.4631,-3.4383,-3.4072,-3.3623,-3.3417,-3.3348,-3.3265,-3.3203,-3.3244,-3.3223,-3.3037,-3.2809,-3.2768,-3.2747,-3.2727,-3.2727,-3.2727,-3.2727,-2.9726,-3.0156,-3.0605,-3.0801,-3.082,-3.0879,-3.0898,-3.0898,-3.0898,-3.0898,-3.0898,-3.0898,-3.0898,-3.0898,-3.0898,-3.0898,-3.0898,-3.0898,-3.1191,-3.1465,-3.1562,-3.2187,-3.276,-3.3178,-3.327,-3.332,-3.3418,-3.3418,-3.3476,-3.3418,-3.3418,-3.3418,-3.3496,-3.3613,-3.3906,-3.418,-3.4453,-3.4687,-3.4766,-3.4844,-3.5078,-3.5351,-3.5391,-3.5547,-3.5801,-3.5996,-3.6035,-3.5957,-3.5937,-3.5547,-3.5,-3.4524,-3.4113,-3.3975,-3.428,-3.4359,-3.4348,-3.4733,-3.4871,-3.4794,-3.4744,-3.4712,-3.4518,-3.4568,-3.4922,-3.4922,-3.4922,-3.5046,-3.5294,-3.5418,-3.5397,-3.5376,-3.5397,-3.5418,-3.5438,-3.5459,-3.5459,-3.55,-3.5542,-3.5562,-3.5604,-3.5604,-3.5625,-3.5604,-3.5562,-3.5542,-3.548,-3.5459,-3.5438,-3.5438,-3.5418,-3.5418,-3.5418,-3.5397,-3.5376,-3.5293,-3.5148,-3.5066,-3.4797,-3.4548,-3.4279,-3.3948,-3.3803,-3.3886,-3.3844,-3.372,-3.3555,-3.3368,-3.3141,-3.2934,-3.2768,-3.2727,-3.2727,-3.2727,-3.2727,-2.9297,-2.9726,-3.0156,-3.0332,-3.0391,-3.0723,-3.0898,-3.0898,-3.0879,-3.0898,-3.0898,-3.0898,-3.0898,-3.0898,-3.0898,-3.0898,-3.0898,-3.0898,-3.1152,-3.1465,-3.1426,-3.2031,-3.2539,-3.2878,-3.3066,-3.3281,-3.3418,-3.3418,-3.3418,-3.3418,-3.3418,-3.3418,-3.3418,-3.3496,-3.3613,-3.3984,-3.4453,-3.459,-3.4844,-3.5039,-3.5059,-3.5273,-3.5371,-3.5605,-3.5976,-3.6016,-3.5957,-3.5684,-3.5566,-3.5254,-3.4916,-3.4615,-3.4339,-3.4182,-3.4389,-3.4774,-3.4913,-3.521,-3.5361,-3.528,-3.5208,-3.5275,-3.5184,-3.4922,-3.519,-3.5356,-3.5376,-3.5397,-3.5521,-3.5542,-3.5521,-3.55,-3.55,-3.5562,-3.5604,-3.5604,-3.5604,-3.5811,-3.5997,-3.6121,-3.6246,-3.6308,-3.639,-3.6328,-3.6204,-3.6142,-3.5976,-3.5914,-3.5707,-3.5583,-3.55,-3.5521,-3.5562,-3.5418,-3.5418,-3.5397,-3.5314,-3.5273,-3.5211,-3.4962,-3.4631,-3.4258,-3.4176,-3.4362,-3.4238,-3.4072,-3.3886,-3.3782,-3.3513,-3.3306,-3.2913,-3.2747,-3.2768,-3.2789,-3.283]},{"header":{"parameterUnit":"m.s-1","parameterCategory":1,"la1":31.0,"la2":29.5877,"lo1":-88.7671,"lo2":-86.6584,"dy":0.0162,"dx":0.0185,"nx":115,"ny":88,"refTime":"2023-06-19T12:00:00:Z","depth":0,"parameterNumber":3,"parameterNumberName":"V-component_of_WINDS"},"data":[0.0,0.0,0.0,0.0,0.0,0.0,0.0,0.0,0.0,0.0,0.0,0.0,0.0,0.0,0.0,0.0,0.0,0.0,0.0,0.0,0.0,0.0,0.0,0.0,0.0,0.0,0.0,0.0,0.0,0.0,0.0,0.0,0.0,0.0,0.0,0.0,0.0,0.0,0.0,0.0,0.0,0.0,0.0,0.0,0.0,0.0,0.0,0.0,0.0,0.0,0.0,0.0,0.0,0.0,0.0,0.0,0.0,0.0,0.0,0.0,0.0,0.0,0.0,0.0,0.0,0.0,0.0,0.0,0.0,0.0,0.0,0.0,0.0,0.0,0.0,0.0,0.0,0.0,0.0,0.0,0.0,0.0,0.0,0.0,0.0,0.0,0.0,0.0,0.0,0.0,0.0,0.0,0.0,0.0,0.0,0.0,0.0,0.0,0.0,0.0,0.0,0.0,0.0,0.0,0.0,0.0,0.0,0.0,0.0,0.0,0.0,0.0,0.0,0.0,0.0,0.0,0.0,0.0,0.0,0.0,0.0,0.0,0.0,0.0,0.0,0.0,0.0,0.0,0.0,0.0,0.0,0.0,0.0,0.0,0.0,0.0,0.0,0.0,0.0,0.0,0.0,0.0,0.0,0.0,0.0,0.0,0.0,0.0,0.0,0.0,0.0,0.0,0.0,0.0,0.0,0.0,0.0,0.0,0.0,0.0,0.0,0.0,0.0,0.0,0.0,0.0,0.0,0.0,0.0,0.0,0.0,0.0,0.0,0.0,0.0,0.0,0.0,0.0,0.0,0.0,0.0,0.0,0.0,0.0,0.0,0.0,0.0,0.0,0.0,0.0,0.0,0.0,0.0,0.0,0.0,0.0,0.0,0.0,0.0,0.0,0.0,0.0,0.0,0.0,0.0,0.0,0.0,0.0,0.0,0.0,0.0,0.0,0.0,0.0,0.0,0.0,0.0,0.0,0.0,0.0,0.0,0.0,0.0,0.0,0.0,0.0,0.0,0.0,0.0,0.0,0.0,0.0,0.0,0.0,0.0,0.0,0.0,0.0,0.0,0.0,0.0,0.0,0.0,0.0,0.0,0.0,0.0,0.0,0.0,0.0,0.0,0.0,0.0,0.0,0.0,0.0,0.0,0.0,0.0,0.0,0.0,0.0,0.0,0.0,0.0,0.0,0.0,0.0,0.0,0.0,0.0,0.0,0.0,0.0,0.0,0.0,0.0,0.0,0.0,0.0,0.0,0.0,0.0,0.0,0.0,0.0,0.0,0.0,0.0,0.0,0.0,0.0,0.0,0.0,0.0,0.0,0.0,0.0,0.0,0.0,0.0,0.0,0.0,0.0,0.0,0.0,0.0,0.0,0.0,0.0,0.0,0.0,0.0,0.0,0.0,0.0,0.0,0.0,0.0,0.0,0.0,0.0,0.0,0.0,0.0,0.0,0.0,0.0,0.0,0.0,0.0,0.0,0.0,0.0,0.0,0.0,0.0,0.0,0.0,0.0,0.0,0.0,0.0,0.0,0.0,0.0,0.0,0.0,0.0,0.0,0.0,0.0,0.0,0.0,0.0,0.0,0.0,0.0,0.0,0.0,0.0,0.0,0.0,0.0,0.0,0.0,0.0,0.0,0.0,0.0,0.0,0.0,0.0,0.0,0.0,0.0,0.0,0.0,0.0,0.0,0.0,0.0,0.0,0.0,0.0,0.0,0.0,0.0,0.0,0.0,0.0,0.0,0.0,0.0,0.0,0.0,0.0,0.0,0.0,0.0,0.0,0.0,0.0,0.0,0.0,0.0,0.0,0.0,0.0,0.0,0.0,0.0,0.0,0.0,0.0,0.0,0.0,0.0,0.0,0.0,0.0,0.0,0.0,0.0,0.0,0.0,0.0,0.0,0.0,0.0,0.0,0.0,0.0,0.0,0.0,0.0,0.0,0.0,0.0,0.0,0.0,0.0,0.0,0.0,0.0,0.0,0.0,0.0,0.0,0.0,0.0,0.0,0.0,0.0,0.0,0.0,0.0,0.0,0.0,0.0,0.0,0.0,0.0,0.0,0.0,0.0,0.0,0.0,0.0,0.0,0.0,0.0,0.0,0.0,0.0,0.0,0.0,0.0,0.0,0.0,0.0,0.0,0.0,0.0,0.0,0.0,0.0,0.0,0.0,0.0,0.0,0.0,0.0,0.0,0.0,0.0,0.0,0.0,0.0,0.0,0.0,0.0,0.0,0.0,0.0,0.0,0.0,0.0,0.0,0.0,0.0,0.0,0.0,0.0,0.0,0.0,0.0,0.0,0.0,0.0,0.0,0.0,0.0,0.0,0.0,0.0,0.0,0.0,0.0,0.0,0.0,0.0,0.0,0.0,0.0,0.0,0.0,0.0,0.0,0.0,0.0,0.0,0.0,0.0,0.0,0.0,0.0,0.0,0.0,0.0,0.0,0.0,0.0,0.0,0.0,0.0,0.0,0.0,0.0,0.0,0.0,0.0,0.0,0.0,0.0,0.0,0.0,0.0,0.0,0.0,0.0,0.0,0.0,0.0,0.0,0.0,0.0,0.0,0.0,0.0,0.0,0.0,0.0,0.0,0.0,0.0,0.0,0.0,0.0,0.0,0.0,0.0,0.0,0.0,0.0,0.0,0.0,0.0,0.0,0.0,0.0,0.0,0.0,0.0,0.0,0.0,0.0,0.0,0.0,0.0,0.0,0.0,0.0,0.0,0.0,0.0,0.0,0.0,0.0,0.0,0.0,0.0,0.0,0.0,0.0,0.0,0.0,0.0,0.0,0.0,0.0,0.0,0.0,0.0,0.0,0.0,0.0,0.0,0.0,0.0,0.0,0.0,0.0,0.0,0.0,0.0,0.0,0.0,0.0,0.0,0.0,0.0,0.0,0.0,0.0,0.0,0.0,0.0,0.0,0.0,0.0,0.0,0.0,0.0,0.0,0.0,0.0,0.0,0.0,0.0,0.0,0.0,0.0,0.0,0.0,0.0,0.0,0.0,0.0,0.0,0.0,0.0,0.0,0.0,0.0,0.0,0.0,0.0,0.0,0.0,0.0,0.0,0.0,0.0,0.0,0.0,0.0,0.0,0.0,0.0,0.0,0.0,0.0,0.0,0.0,0.0,0.0,0.0,0.0,0.0,0.0,0.0,0.0,0.0,0.0,0.0,0.0,0.0,0.0,0.0,0.0,0.0,0.0,0.0,0.0,0.0,0.0,0.0,0.0,0.0,0.0,0.0,0.0,0.0,0.0,0.0,0.0,0.0,0.0,0.0,0.0,0.0,0.0,0.0,0.0,0.0,0.0,0.0,0.0,0.0,0.0,0.0,0.0,0.0,0.0,0.0,0.0,0.0,0.0,0.0,0.0,0.0,0.0,0.0,0.0,0.0,0.0,0.0,0.0,0.0,0.0,0.0,0.0,0.0,0.0,0.0,0.0,0.0,0.0,0.0,0.0,0.0,0.0,0.0,0.0,0.0,0.0,0.0,0.0,0.0,0.0,0.0,0.0,0.0,0.0,0.0,0.0,0.0,0.0,0.0,0.0,0.0,0.0,0.0,0.0,0.0,0.0,0.0,0.0,0.0,0.0,0.0,0.0,0.0,0.0,0.0,0.0,0.0,0.0,0.0,0.0,0.0,0.0,0.0,0.0,0.0,0.0,0.0,0.0,0.0,0.0,0.0,0.0,0.0,0.0,0.0,0.0,0.0,0.0,0.0,0.0,0.0,0.0,0.0,0.0,0.0,0.0,0.0,0.0,0.0,0.0,0.0,0.0,0.0,0.0,0.0,0.0,0.0,0.0,0.0,0.0,0.0,0.0,0.0,0.0,0.0,0.0,0.0,0.0,0.0,0.0,0.0,0.0,0.0,0.0,0.0,0.0,0.0,0.0,0.0,0.0,0.0,0.0,0.0,0.0,0.0,0.0,0.0,0.0,0.0,0.0,0.0,0.0,0.0,0.0,0.0,0.0,0.0,0.0,0.0,0.0,0.0,0.0,0.0,0.0,0.0,0.0,0.0,0.0,0.0,0.0,0.0,0.0,0.0,0.0,0.0,0.0,0.0,0.0,0.0,0.0,0.0,0.0,0.0,0.0,0.0,0.0,0.0,0.0,0.0,0.0,0.0,0.0,0.0,0.0,0.0,0.0,0.0,0.0,0.0,0.0,0.0,0.0,0.0,0.0,0.0,0.0,0.0,0.0,0.0,0.0,0.0,0.0,0.0,0.0,0.0,0.0,0.0,0.0,0.0,0.0,0.0,0.0,0.0,0.0,0.0,-2.1779,0.0,0.0,0.0,0.0,0.0,0.0,0.0,0.0,0.0,0.0,0.0,0.0,0.0,0.0,0.0,0.0,0.0,0.0,0.0,0.0,0.0,0.0,0.0,0.0,0.0,0.0,0.0,0.0,0.0,0.0,0.0,0.0,0.0,0.0,0.0,0.0,0.0,0.0,0.0,0.0,0.0,0.0,0.0,0.0,0.0,0.0,0.0,0.0,0.0,0.0,0.0,0.0,0.0,0.0,0.0,0.0,0.0,0.0,0.0,0.0,0.0,0.0,0.0,0.0,0.0,0.0,0.0,0.0,0.0,0.0,0.0,0.0,0.0,0.0,0.0,0.0,0.0,0.0,0.0,0.0,0.0,0.0,0.0,0.0,0.0,0.0,0.0,0.0,0.0,0.0,0.0,0.0,0.0,0.0,0.0,0.0,0.0,0.0,0.0,0.0,0.0,0.0,0.0,0.0,0.0,0.0,0.0,0.0,0.0,0.0,-1.965,-1.949,-1.9863,-2.0409,-2.1119,0.0,0.0,0.0,0.0,0.0,0.0,0.0,0.0,0.0,0.0,0.0,0.0,0.0,0.0,0.0,0.0,0.0,0.0,0.0,0.0,0.0,0.0,0.0,0.0,0.0,0.0,0.0,0.0,0.0,0.0,0.0,0.0,0.0,0.0,0.0,0.0,0.0,0.0,0.0,0.0,0.0,0.0,0.0,0.0,0.0,0.0,0.0,0.0,0.0,0.0,0.0,0.0,0.0,0.0,0.0,0.0,0.0,0.0,0.0,0.0,0.0,0.0,0.0,0.0,0.0,0.0,0.0,0.0,0.0,0.0,0.0,0.0,0.0,0.0,0.0,0.0,0.0,0.0,0.0,0.0,0.0,0.0,0.0,0.0,0.0,0.0,0.0,0.0,0.0,0.0,0.0,0.0,0.0,0.0,0.0,0.0,0.0,0.0,0.0,0.0,0.0,0.0,0.0,0.0,0.0,0.0,0.0,0.0,0.0,0.0,0.0,0.0,-2.0987,-2.1298,-2.1498,0.0,0.0,0.0,0.0,0.0,0.0,0.0,0.0,0.0,0.0,0.0,0.0,0.0,0.0,0.0,0.0,0.0,0.0,0.0,0.0,0.0,0.0,0.0,0.0,0.0,0.0,0.0,0.0,0.0,0.0,0.0,0.0,0.0,0.0,0.0,0.0,0.0,0.0,0.0,0.0,0.0,0.0,0.0,0.0,0.0,0.0,0.0,0.0,0.0,0.0,0.0,0.0,0.0,0.0,0.0,0.0,0.0,0.0,0.0,0.0,0.0,0.0,0.0,0.0,0.0,0.0,0.0,0.0,0.0,0.0,0.0,0.0,0.0,0.0,0.0,0.0,0.0,0.0,0.0,0.0,0.0,0.0,0.0,0.0,0.0,0.0,0.0,0.0,0.0,0.0,0.0,0.0,0.0,0.0,0.0,0.0,0.0,0.0,0.0,0.0,0.0,0.0,0.0,0.0,0.0,0.0,0.0,0.0,0.0,0.0,-2.107,-2.4547,-2.3935,0.0,-2.4584,0.0,0.0,0.0,0.0,0.0,0.0,0.0,0.0,0.0,0.0,0.0,0.0,0.0,0.0,0.0,0.0,0.0,0.0,0.0,0.0,0.0,0.0,0.0,0.0,0.0,0.0,0.0,0.0,0.0,0.0,0.0,0.0,0.0,0.0,0.0,0.0,0.0,0.0,0.0,0.0,0.0,0.0,0.0,0.0,0.0,0.0,0.0,0.0,0.0,0.0,0.0,0.0,0.0,0.0,0.0,0.0,0.0,0.0,0.0,0.0,0.0,0.0,0.0,0.0,0.0,0.0,0.0,0.0,0.0,0.0,0.0,0.0,0.0,0.0,0.0,0.0,0.0,0.0,0.0,0.0,0.0,0.0,0.0,0.0,0.0,0.0,0.0,0.0,0.0,0.0,0.0,0.0,0.0,0.0,0.0,0.0,0.0,0.0,0.0,0.0,0.0,0.0,0.0,0.0,0.0,0.0,0.0,0.0,0.0,0.0,-2.2383,-2.4856,-2.4091,-2.3817,0.0,0.0,0.0,0.0,0.0,0.0,0.0,0.0,0.0,0.0,0.0,0.0,0.0,0.0,0.0,0.0,0.0,0.0,0.0,0.0,0.0,0.0,0.0,0.0,0.0,0.0,0.0,0.0,0.0,0.0,0.0,0.0,0.0,0.0,0.0,0.0,0.0,0.0,0.0,0.0,0.0,0.0,0.0,0.0,0.0,0.0,0.0,0.0,0.0,0.0,0.0,0.0,0.0,0.0,0.0,0.0,0.0,0.0,0.0,0.0,0.0,0.0,0.0,0.0,0.0,0.0,0.0,0.0,0.0,0.0,0.0,0.0,0.0,0.0,0.0,0.0,0.0,0.0,0.0,0.0,0.0,0.0,0.0,0.0,0.0,0.0,0.0,0.0,0.0,0.0,0.0,0.0,0.0,0.0,0.0,0.0,0.0,0.0,0.0,0.0,0.0,0.0,0.0,0.0,0.0,0.0,0.0,0.0,0.0,0.0,-2.3515,-2.4046,-2.575,-2.4594,-2.3908,-2.3932,0.0,0.0,0.0,0.0,0.0,0.0,0.0,0.0,0.0,0.0,0.0,0.0,0.0,0.0,0.0,0.0,0.0,0.0,0.0,0.0,0.0,0.0,0.0,0.0,0.0,0.0,0.0,0.0,0.0,0.0,0.0,0.0,0.0,0.0,0.0,0.0,0.0,0.0,0.0,0.0,0.0,0.0,0.0,0.0,0.0,0.0,0.0,0.0,0.0,0.0,0.0,0.0,0.0,0.0,0.0,0.0,0.0,0.0,0.0,0.0,0.0,0.0,0.0,0.0,0.0,0.0,0.0,0.0,0.0,0.0,0.0,0.0,0.0,0.0,0.0,0.0,0.0,0.0,0.0,0.0,0.0,0.0,0.0,0.0,0.0,0.0,0.0,0.0,0.0,0.0,0.0,0.0,0.0,0.0,0.0,0.0,0.0,0.0,0.0,0.0,0.0,0.0,0.0,0.0,0.0,0.0,0.0,0.0,-3.0268,-2.6778,-2.609,-2.867,-2.6266,-2.4919,0.0,0.0,0.0,0.0,0.0,0.0,0.0,0.0,0.0,0.0,0.0,0.0,0.0,0.0,0.0,0.0,0.0,0.0,0.0,0.0,0.0,0.0,0.0,0.0,0.0,0.0,0.0,0.0,0.0,0.0,0.0,0.0,0.0,0.0,0.0,0.0,0.0,0.0,0.0,0.0,0.0,0.0,0.0,0.0,0.0,0.0,0.0,0.0,0.0,0.0,0.0,0.0,0.0,0.0,0.0,0.0,0.0,0.0,0.0,0.0,0.0,0.0,0.0,0.0,0.0,0.0,0.0,0.0,0.0,0.0,0.0,0.0,0.0,0.0,0.0,0.0,0.0,0.0,0.0,0.0,0.0,0.0,0.0,0.0,0.0,0.0,0.0,0.0,0.0,0.0,0.0,0.0,0.0,0.0,0.0,0.0,0.0,0.0,0.0,0.0,0.0,0.0,0.0,0.0,0.0,0.0,0.0,0.0,0.0,-2.6129,-2.5922,-2.6746,-2.8623,-2.6318,-2.5016,0.0,0.0,0.0,0.0,0.0,0.0,0.0,0.0,0.0,0.0,0.0,0.0,0.0,0.0,0.0,0.0,0.0,0.0,0.0,0.0,0.0,0.0,0.0,0.0,0.0,0.0,0.0,0.0,0.0,0.0,0.0,0.0,0.0,0.0,0.0,0.0,0.0,0.0,0.0,0.0,0.0,0.0,0.0,0.0,0.0,0.0,0.0,0.0,0.0,0.0,0.0,0.0,0.0,0.0,0.0,0.0,0.0,0.0,0.0,0.0,0.0,0.0,0.0,0.0,0.0,0.0,0.0,0.0,0.0,0.0,0.0,0.0,0.0,0.0,0.0,0.0,0.0,0.0,0.0,0.0,0.0,0.0,0.0,0.0,0.0,0.0,0.0,0.0,0.0,0.0,0.0,0.0,0.0,0.0,0.0,0.0,0.0,0.0,0.0,0.0,0.0,0.0,0.0,0.0,0.0,0.0,0.0,0.0,0.0,-2.5535,0.0,-2.834,-2.8756,-2.6458,-2.455,0.0,0.0,0.0,0.0,0.0,0.0,0.0,0.0,0.0,0.0,0.0,0.0,0.0,0.0,0.0,0.0,0.0,0.0,0.0,0.0,0.0,0.0,0.0,0.0,0.0,0.0,0.0,0.0,0.0,0.0,0.0,0.0,0.0,0.0,0.0,0.0,0.0,0.0,0.0,0.0,0.0,0.0,0.0,0.0,0.0,0.0,0.0,0.0,0.0,0.0,0.0,0.0,0.0,0.0,0.0,0.0,0.0,0.0,0.0,0.0,0.0,0.0,0.0,0.0,0.0,0.0,0.0,0.0,0.0,0.0,0.0,0.0,0.0,0.0,0.0,0.0,0.0,0.0,0.0,0.0,0.0,0.0,0.0,0.0,0.0,0.0,0.0,0.0,0.0,0.0,0.0,0.0,0.0,0.0,0.0,0.0,0.0,0.0,0.0,0.0,0.0,0.0,0.0,0.0,0.0,0.0,0.0,0.0,-2.7118,-2.9607,-3.0837,-3.0695,-2.9523,-2.6691,-2.3577,0.0,0.0,0.0,0.0,0.0,0.0,0.0,0.0,0.0,0.0,0.0,0.0,0.0,0.0,0.0,0.0,0.0,0.0,0.0,0.0,0.0,0.0,0.0,0.0,0.0,0.0,0.0,0.0,0.0,0.0,0.0,0.0,0.0,0.0,0.0,0.0,0.0,0.0,0.0,0.0,0.0,0.0,0.0,0.0,0.0,0.0,0.0,0.0,0.0,0.0,0.0,0.0,0.0,0.0,0.0,0.0,0.0,0.0,0.0,0.0,0.0,0.0,0.0,0.0,0.0,0.0,0.0,0.0,0.0,0.0,0.0,0.0,0.0,0.0,0.0,0.0,0.0,0.0,0.0,0.0,0.0,0.0,0.0,0.0,0.0,0.0,0.0,0.0,0.0,0.0,0.0,0.0,0.0,0.0,0.0,0.0,0.0,0.0,0.0,0.0,0.0,0.0,0.0,0.0,0.0,0.0,0.0,0.0,0.0,-2.5779,-2.781,-2.9474,-3.05,-2.6691,-2.5045,0.0,0.0,0.0,0.0,0.0,0.0,0.0,0.0,0.0,0.0,0.0,0.0,0.0,0.0,0.0,0.0,0.0,0.0,0.0,0.0,0.0,0.0,0.0,0.0,0.0,0.0,0.0,0.0,0.0,0.0,0.0,0.0,0.0,0.0,0.0,0.0,0.0,0.0,0.0,0.0,0.0,0.0,0.0,0.0,0.0,0.0,0.0,0.0,0.0,0.0,0.0,0.0,0.0,0.0,0.0,0.0,0.0,0.0,0.0,0.0,0.0,0.0,0.0,0.0,0.0,0.0,0.0,0.0,0.0,0.0,0.0,0.0,0.0,0.0,0.0,0.0,0.0,0.0,0.0,0.0,0.0,0.0,0.0,0.0,0.0,0.0,0.0,0.0,0.0,0.0,0.0,0.0,0.0,0.0,0.0,0.0,0.0,0.0,0.0,0.0,0.0,0.0,0.0,0.0,0.0,0.0,0.0,0.0,0.0,-2.6785,-2.9231,-3.0774,-3.119,-2.7803,-2.6118,-2.6354,0.0,0.0,0.0,0.0,0.0,0.0,0.0,0.0,0.0,0.0,0.0,0.0,0.0,0.0,0.0,0.0,0.0,0.0,0.0,0.0,0.0,0.0,0.0,0.0,0.0,0.0,0.0,0.0,0.0,0.0,0.0,0.0,0.0,0.0,0.0,0.0,0.0,0.0,0.0,0.0,0.0,0.0,0.0,0.0,0.0,0.0,0.0,0.0,0.0,0.0,0.0,0.0,0.0,0.0,0.0,0.0,0.0,0.0,0.0,0.0,0.0,0.0,0.0,0.0,0.0,0.0,0.0,0.0,0.0,0.0,0.0,0.0,0.0,0.0,0.0,0.0,0.0,0.0,0.0,0.0,0.0,0.0,0.0,0.0,0.0,0.0,0.0,0.0,0.0,0.0,0.0,0.0,0.0,0.0,0.0,0.0,0.0,0.0,0.0,0.0,0.0,0.0,0.0,0.0,0.0,0.0,0.0,0.0,-3.1399,-3.437,-3.4539,-3.1698,-2.9863,-2.696,0.0,0.0,0.0,0.0,0.0,0.0,0.0,0.0,0.0,0.0,0.0,0.0,0.0,0.0,0.0,0.0,0.0,0.0,0.0,0.0,0.0,0.0,0.0,0.0,0.0,0.0,0.0,0.0,0.0,0.0,0.0,0.0,0.0,0.0,0.0,0.0,0.0,0.0,0.0,0.0,0.0,0.0,0.0,0.0,0.0,0.0,0.0,0.0,0.0,0.0,0.0,0.0,0.0,0.0,0.0,0.0,0.0,0.0,0.0,0.0,0.0,0.0,0.0,0.0,0.0,0.0,0.0,0.0,0.0,0.0,0.0,0.0,0.0,0.0,0.0,0.0,0.0,0.0,0.0,0.0,0.0,0.0,0.0,0.0,0.0,0.0,0.0,0.0,0.0,0.0,0.0,0.0,0.0,0.0,0.0,0.0,0.0,0.0,0.0,0.0,0.0,0.0,0.0,0.0,0.0,0.0,0.0,0.0,0.0,-3.4191,-3.7957,-3.8758,-3.6163,-3.2461,-2.9762,0.0,0.0,0.0,0.0,0.0,0.0,0.0,0.0,0.0,0.0,0.0,0.0,0.0,0.0,0.0,0.0,0.0,0.0,0.0,0.0,0.0,0.0,0.0,0.0,0.0,0.0,0.0,0.0,0.0,0.0,0.0,0.0,0.0,0.0,0.0,0.0,0.0,0.0,0.0,0.0,0.0,0.0,0.0,0.0,0.0,0.0,0.0,0.0,0.0,0.0,0.0,0.0,0.0,0.0,0.0,0.0,0.0,0.0,0.0,0.0,0.0,0.0,0.0,0.0,0.0,0.0,0.0,0.0,0.0,0.0,0.0,0.0,0.0,0.0,0.0,0.0,0.0,0.0,0.0,0.0,0.0,0.0,0.0,0.0,0.0,0.0,0.0,0.0,0.0,0.0,0.0,0.0,0.0,0.0,0.0,0.0,0.0,0.0,0.0,0.0,0.0,0.0,0.0,0.0,0.0,0.0,0.0,0.0,-3.5309,-3.7315,-4.0788,-4.204,-4.0934,-3.6457,-3.2611,0.0,0.0,0.0,0.0,0.0,0.0,0.0,0.0,0.0,0.0,0.0,0.0,0.0,0.0,0.0,0.0,0.0,0.0,0.0,0.0,0.0,0.0,0.0,0.0,0.0,0.0,0.0,0.0,0.0,0.0,0.0,0.0,0.0,0.0,0.0,0.0,0.0,0.0,0.0,0.0,0.0,0.0,0.0,0.0,0.0,0.0,0.0,0.0,0.0,0.0,0.0,0.0,0.0,0.0,0.0,0.0,0.0,0.0,0.0,0.0,0.0,0.0,0.0,0.0,0.0,0.0,0.0,0.0,0.0,0.0,0.0,0.0,0.0,0.0,0.0,0.0,0.0,0.0,0.0,0.0,0.0,0.0,0.0,0.0,0.0,0.0,0.0,0.0,0.0,0.0,0.0,0.0,0.0,0.0,0.0,0.0,0.0,0.0,0.0,0.0,0.0,0.0,0.0,0.0,0.0,0.0,0.0,0.0,-3.6928,-4.0431,-4.2826,-4.4365,-4.4824,-4.0421,-3.529,0.0,0.0,0.0,0.0,0.0,0.0,0.0,0.0,0.0,0.0,0.0,0.0,0.0,0.0,0.0,0.0,0.0,0.0,0.0,0.0,0.0,0.0,0.0,0.0,0.0,0.0,0.0,0.0,0.0,0.0,0.0,0.0,0.0,0.0,0.0,0.0,0.0,0.0,0.0,0.0,0.0,0.0,0.0,0.0,0.0,0.0,0.0,0.0,0.0,0.0,0.0,0.0,0.0,0.0,0.0,0.0,0.0,0.0,0.0,0.0,0.0,0.0,0.0,0.0,0.0,0.0,0.0,0.0,0.0,0.0,0.0,0.0,0.0,0.0,0.0,0.0,0.0,0.0,0.0,0.0,0.0,0.0,0.0,0.0,0.0,0.0,0.0,0.0,0.0,0.0,0.0,0.0,0.0,0.0,0.0,0.0,0.0,0.0,0.0,0.0,0.0,0.0,0.0,0.0,0.0,0.0,0.0,0.0,-3.7541,-4.0597,-4.3546,-4.5039,-4.4927,-3.9993,-3.5547,0.0,0.0,0.0,0.0,0.0,0.0,0.0,0.0,0.0,0.0,0.0,0.0,0.0,0.0,0.0,0.0,0.0,0.0,0.0,0.0,0.0,0.0,0.0,0.0,0.0,0.0,0.0,0.0,0.0,0.0,0.0,0.0,0.0,0.0,0.0,0.0,0.0,0.0,0.0,0.0,0.0,0.0,0.0,0.0,0.0,0.0,0.0,0.0,-2.6045,0.0,0.0,0.0,0.0,0.0,0.0,0.0,0.0,0.0,0.0,0.0,0.0,0.0,0.0,0.0,0.0,0.0,0.0,0.0,0.0,0.0,0.0,0.0,0.0,0.0,0.0,0.0,0.0,0.0,0.0,0.0,0.0,0.0,0.0,0.0,0.0,0.0,0.0,0.0,0.0,0.0,0.0,0.0,0.0,0.0,0.0,0.0,0.0,0.0,0.0,0.0,0.0,0.0,0.0,0.0,0.0,0.0,0.0,0.0,-3.9008,-4.229,-4.4716,-4.6094,-4.6103,-4.1469,-3.7227,0.0,0.0,0.0,0.0,0.0,0.0,0.0,0.0,0.0,0.0,0.0,0.0,0.0,0.0,0.0,0.0,0.0,0.0,0.0,0.0,0.0,0.0,0.0,0.0,0.0,0.0,0.0,0.0,0.0,0.0,0.0,0.0,0.0,0.0,0.0,0.0,0.0,0.0,0.0,0.0,0.0,0.0,0.0,0.0,0.0,0.0,0.0,0.0,0.0,0.0,0.0,0.0,0.0,0.0,0.0,0.0,0.0,0.0,0.0,0.0,0.0,0.0,0.0,0.0,0.0,0.0,0.0,0.0,0.0,0.0,0.0,0.0,0.0,0.0,0.0,0.0,0.0,0.0,0.0,0.0,0.0,0.0,0.0,0.0,0.0,0.0,0.0,0.0,0.0,0.0,0.0,0.0,0.0,0.0,0.0,0.0,0.0,0.0,0.0,0.0,0.0,0.0,0.0,0.0,0.0,0.0,0.0,-3.7102,-4.0422,-4.4458,-4.6044,-4.7024,-4.7575,-4.3338,-3.9147,-3.5266,0.0,0.0,0.0,0.0,0.0,0.0,0.0,0.0,0.0,0.0,0.0,0.0,0.0,0.0,0.0,0.0,0.0,0.0,0.0,0.0,0.0,0.0,0.0,0.0,0.0,0.0,0.0,0.0,0.0,0.0,0.0,0.0,0.0,0.0,0.0,0.0,0.0,0.0,-2.7247,-2.7921,0.0,0.0,0.0,0.0,0.0,0.0,0.0,0.0,-2.8887,0.0,0.0,0.0,0.0,0.0,0.0,0.0,0.0,0.0,0.0,0.0,0.0,0.0,0.0,0.0,0.0,0.0,0.0,0.0,0.0,0.0,0.0,0.0,0.0,0.0,0.0,0.0,0.0,0.0,0.0,0.0,0.0,0.0,0.0,0.0,0.0,0.0,0.0,0.0,0.0,0.0,0.0,0.0,0.0,0.0,0.0,0.0,0.0,0.0,0.0,0.0,0.0,0.0,0.0,0.0,0.0,-3.733,-3.7575,-4.0457,-4.6044,-4.6969,-4.743,-4.7464,-4.3597,-3.9713,-3.6071,0.0,0.0,0.0,0.0,0.0,0.0,0.0,0.0,0.0,0.0,0.0,0.0,0.0,0.0,0.0,0.0,0.0,0.0,0.0,0.0,0.0,0.0,0.0,0.0,0.0,0.0,0.0,0.0,0.0,0.0,0.0,0.0,0.0,0.0,0.0,0.0,0.0,0.0,0.0,-2.8973,-2.9245,0.0,0.0,0.0,0.0,0.0,0.0,0.0,0.0,-2.9589,0.0,0.0,0.0,0.0,0.0,0.0,0.0,0.0,0.0,0.0,0.0,0.0,0.0,0.0,0.0,0.0,0.0,0.0,0.0,0.0,0.0,0.0,0.0,0.0,0.0,0.0,0.0,0.0,0.0,0.0,0.0,0.0,0.0,0.0,0.0,0.0,0.0,0.0,0.0,0.0,0.0,0.0,0.0,0.0,0.0,0.0,0.0,0.0,0.0,0.0,0.0,0.0,0.0,0.0,0.0,-3.6917,-3.8903,-4.2009,-4.6458,-4.7644,-4.8002,-4.752,-4.3477,-3.9662,0.0,0.0,0.0,0.0,0.0,0.0,0.0,0.0,0.0,0.0,0.0,0.0,0.0,0.0,0.0,0.0,0.0,0.0,0.0,0.0,0.0,0.0,0.0,0.0,0.0,0.0,0.0,0.0,0.0,0.0,0.0,0.0,0.0,0.0,0.0,0.0,0.0,0.0,0.0,0.0,-3.0038,-3.0272,-2.9717,0.0,0.0,0.0,0.0,0.0,0.0,-2.9989,-3.0356,0.0,0.0,0.0,0.0,0.0,0.0,0.0,0.0,0.0,0.0,0.0,0.0,0.0,0.0,0.0,0.0,0.0,0.0,0.0,0.0,0.0,0.0,0.0,0.0,0.0,0.0,0.0,0.0,0.0,0.0,0.0,0.0,0.0,0.0,0.0,0.0,0.0,0.0,0.0,0.0,0.0,0.0,0.0,0.0,0.0,0.0,0.0,0.0,0.0,0.0,0.0,0.0,0.0,0.0,0.0,-3.6112,-3.98,-4.3212,-4.6251,-4.7782,-4.8127,-4.7162,-4.32,-3.948,0.0,0.0,0.0,0.0,0.0,0.0,0.0,0.0,0.0,0.0,0.0,0.0,0.0,0.0,0.0,0.0,0.0,0.0,0.0,0.0,0.0,0.0,0.0,0.0,0.0,0.0,0.0,0.0,0.0,0.0,0.0,0.0,0.0,0.0,0.0,0.0,0.0,0.0,0.0,0.0,0.0,-3.1466,-3.0196,-3.0717,0.0,0.0,0.0,0.0,-3.0523,-3.1199,0.0,0.0,0.0,0.0,0.0,0.0,0.0,0.0,0.0,0.0,0.0,0.0,0.0,0.0,0.0,0.0,0.0,0.0,0.0,0.0,0.0,0.0,0.0,0.0,0.0,0.0,0.0,0.0,0.0,0.0,0.0,0.0,0.0,0.0,0.0,0.0,0.0,0.0,0.0,0.0,0.0,0.0,0.0,0.0,0.0,0.0,0.0,0.0,0.0,0.0,0.0,0.0,0.0,0.0,0.0,0.0,-3.5709,-3.8888,-4.2149,-4.5389,-4.6914,-4.6983,-4.5539,-4.2912,-3.9521,0.0,0.0,0.0,0.0,0.0,0.0,0.0,0.0,0.0,0.0,0.0,0.0,0.0,0.0,0.0,0.0,0.0,0.0,0.0,0.0,0.0,0.0,0.0,0.0,0.0,0.0,0.0,0.0,0.0,0.0,0.0,0.0,0.0,0.0,0.0,0.0,0.0,0.0,0.0,0.0,0.0,-3.3291,-3.2799,-3.2311,-3.2135,0.0,0.0,-3.2914,-3.3573,-3.4106,0.0,0.0,0.0,0.0,0.0,0.0,0.0,0.0,0.0,0.0,0.0,0.0,0.0,0.0,0.0,0.0,0.0,0.0,0.0,0.0,0.0,0.0,0.0,0.0,0.0,0.0,0.0,0.0,0.0,0.0,0.0,0.0,0.0,0.0,0.0,0.0,0.0,0.0,0.0,0.0,0.0,0.0,0.0,0.0,0.0,0.0,0.0,0.0,0.0,0.0,0.0,0.0,0.0,0.0,0.0,-3.3635,-3.6076,-3.968,-4.2857,-4.532,-4.6886,-4.6866,-4.5318,-4.2156,-3.878,0.0,0.0,0.0,0.0,0.0,0.0,0.0,0.0,0.0,0.0,0.0,0.0,0.0,0.0,0.0,0.0,0.0,0.0,0.0,0.0,0.0,0.0,0.0,0.0,0.0,0.0,0.0,0.0,0.0,0.0,0.0,0.0,0.0,0.0,0.0,0.0,0.0,0.0,0.0,0.0,0.0,0.0,-3.3473,-3.3786,0.0,0.0,0.0,-3.4331,-3.413,0.0,0.0,0.0,0.0,0.0,0.0,0.0,0.0,0.0,0.0,0.0,0.0,0.0,0.0,0.0,0.0,0.0,0.0,0.0,0.0,0.0,0.0,0.0,0.0,0.0,0.0,0.0,0.0,0.0,0.0,0.0,0.0,0.0,0.0,0.0,0.0,0.0,0.0,0.0,0.0,0.0,0.0,0.0,0.0,0.0,0.0,0.0,0.0,0.0,0.0,0.0,0.0,0.0,0.0,0.0,0.0,0.0,-3.6502,-4.0389,-4.329,-4.4958,-4.6408,-4.632,-4.4561,-4.1547,0.0,0.0,0.0,0.0,0.0,0.0,0.0,0.0,0.0,0.0,0.0,0.0,0.0,0.0,0.0,0.0,0.0,0.0,0.0,0.0,0.0,0.0,0.0,0.0,0.0,0.0,0.0,-2.7136,0.0,0.0,0.0,0.0,0.0,0.0,0.0,0.0,0.0,0.0,0.0,0.0,0.0,0.0,-3.4486,-3.405,-3.5003,-3.535,0.0,0.0,-3.5685,-3.4764,-3.5479,-3.574,0.0,0.0,0.0,0.0,0.0,0.0,0.0,0.0,0.0,0.0,0.0,0.0,0.0,0.0,0.0,0.0,0.0,0.0,0.0,0.0,0.0,0.0,0.0,0.0,0.0,0.0,0.0,0.0,0.0,0.0,0.0,0.0,0.0,0.0,0.0,0.0,0.0,0.0,0.0,0.0,0.0,0.0,0.0,0.0,0.0,0.0,0.0,0.0,0.0,0.0,0.0,0.0,0.0,0.0,0.0,-3.6971,-4.0295,-4.2652,-4.3898,-4.4974,-4.4492,-4.2285,-4.1319,-3.8353,0.0,0.0,0.0,0.0,0.0,0.0,0.0,0.0,0.0,0.0,0.0,0.0,0.0,0.0,0.0,0.0,0.0,0.0,0.0,0.0,0.0,0.0,0.0,0.0,0.0,0.0,0.0,0.0,0.0,0.0,0.0,0.0,0.0,0.0,0.0,0.0,0.0,0.0,0.0,0.0,0.0,-3.5328,-3.5136,-3.5933,-3.6673,0.0,0.0,-3.7099,-3.6329,-3.7236,-3.717,-3.4643,0.0,0.0,0.0,0.0,0.0,0.0,0.0,0.0,0.0,0.0,0.0,0.0,0.0,0.0,0.0,0.0,0.0,0.0,0.0,0.0,0.0,0.0,0.0,0.0,0.0,0.0,0.0,0.0,0.0,0.0,0.0,0.0,0.0,0.0,0.0,0.0,0.0,0.0,0.0,0.0,0.0,0.0,0.0,0.0,0.0,0.0,0.0,0.0,0.0,0.0,0.0,0.0,0.0,-3.5202,-3.6272,-3.9584,-4.1881,-4.3068,-4.3707,-4.3388,-4.2009,-4.0754,-3.7861,0.0,0.0,0.0,0.0,0.0,0.0,0.0,0.0,0.0,0.0,0.0,0.0,0.0,0.0,0.0,0.0,0.0,0.0,0.0,0.0,0.0,0.0,0.0,0.0,0.0,0.0,0.0,0.0,-3.014,-3.0179,-3.0248,0.0,0.0,0.0,0.0,0.0,0.0,0.0,0.0,0.0,0.0,-3.6241,-3.6101,-3.7576,0.0,0.0,-3.7666,-3.7868,-3.6563,-3.7267,-3.7367,-3.584,-3.5496,0.0,0.0,0.0,0.0,0.0,0.0,0.0,0.0,0.0,0.0,0.0,0.0,0.0,0.0,0.0,0.0,0.0,0.0,0.0,0.0,0.0,0.0,0.0,0.0,0.0,0.0,0.0,0.0,0.0,0.0,0.0,0.0,0.0,0.0,0.0,0.0,0.0,0.0,0.0,0.0,0.0,0.0,0.0,0.0,0.0,0.0,0.0,0.0,0.0,0.0,0.0,0.0,-3.5506,-3.6711,-3.9373,-4.1416,-4.2758,-4.3184,-4.2708,-4.1319,-4.0238,-3.7507,0.0,0.0,0.0,0.0,0.0,0.0,0.0,0.0,0.0,0.0,0.0,0.0,0.0,0.0,0.0,0.0,0.0,0.0,0.0,0.0,0.0,0.0,0.0,0.0,0.0,0.0,0.0,0.0,-3.1211,-3.0995,-3.0396,0.0,0.0,0.0,0.0,0.0,0.0,0.0,0.0,0.0,0.0,-3.6455,-3.6599,-3.8246,-3.8888,-3.733,-3.7883,-3.81,-3.6947,-3.7095,-3.7076,-3.6303,0.0,0.0,0.0,0.0,0.0,0.0,0.0,0.0,0.0,0.0,0.0,0.0,0.0,0.0,0.0,0.0,0.0,0.0,0.0,0.0,0.0,0.0,0.0,0.0,0.0,0.0,0.0,0.0,0.0,0.0,0.0,0.0,0.0,0.0,0.0,0.0,0.0,0.0,0.0,0.0,0.0,0.0,0.0,0.0,0.0,0.0,0.0,0.0,0.0,0.0,0.0,0.0,0.0,-3.5625,-3.8759,-3.9833,-4.1351,-4.3166,-4.3613,-4.2486,-3.9951,-3.9698,-3.756,-3.3041,0.0,0.0,0.0,0.0,0.0,0.0,0.0,0.0,0.0,0.0,0.0,0.0,0.0,0.0,0.0,0.0,0.0,0.0,0.0,0.0,0.0,0.0,0.0,0.0,0.0,0.0,-3.1243,-3.157,-3.1301,0.0,0.0,0.0,0.0,0.0,0.0,0.0,0.0,0.0,0.0,-3.4709,-3.5881,-3.6451,-3.7354,-3.8212,-3.8605,-3.8134,-3.7696,-3.7595,-3.6961,-3.6209,0.0,0.0,0.0,0.0,0.0,0.0,0.0,0.0,0.0,0.0,0.0,0.0,0.0,0.0,0.0,0.0,0.0,0.0,0.0,0.0,0.0,0.0,0.0,0.0,0.0,0.0,0.0,-3.6303,-3.6266,0.0,0.0,0.0,0.0,0.0,0.0,0.0,0.0,0.0,0.0,0.0,-3.7941,-3.796,0.0,0.0,0.0,0.0,0.0,0.0,0.0,0.0,0.0,0.0,0.0,0.0,-3.6315,-3.7656,-3.9193,-4.0673,-4.2027,-4.1974,-4.144,-4.0491,-3.9491,-3.7042,-3.3041,0.0,0.0,0.0,0.0,0.0,0.0,0.0,0.0,0.0,0.0,0.0,0.0,0.0,0.0,0.0,0.0,0.0,0.0,0.0,0.0,0.0,0.0,0.0,0.0,0.0,-3.2255,0.0,0.0,0.0,0.0,0.0,0.0,0.0,0.0,0.0,0.0,0.0,-3.2747,-3.3964,-3.5453,-3.6468,-3.6692,-3.7821,-3.8396,0.0,0.0,0.0,0.0,0.0,0.0,0.0,0.0,0.0,0.0,0.0,0.0,0.0,0.0,-3.5791,-3.6299,-3.64,-3.6535,-3.7043,0.0,0.0,0.0,0.0,0.0,0.0,0.0,0.0,0.0,0.0,0.0,0.0,0.0,0.0,0.0,0.0,-3.7074,0.0,0.0,0.0,0.0,0.0,0.0,0.0,0.0,-3.8615,-3.9197,-4.0,-4.0314,-4.0308,0.0,-3.9564,-3.8345,0.0,0.0,0.0,0.0,0.0,0.0,0.0,0.0,-3.6581,-3.7624,-3.8941,-4.0178,-4.1294,-4.0961,-4.04,-3.9744,-3.8215,-3.6249,-3.3766,-3.2173,-3.1141,0.0,0.0,0.0,0.0,0.0,0.0,0.0,0.0,0.0,0.0,0.0,0.0,0.0,0.0,0.0,0.0,0.0,0.0,0.0,0.0,0.0,0.0,0.0,-3.2757,0.0,0.0,0.0,0.0,0.0,0.0,0.0,0.0,0.0,-3.3017,-3.3288,-3.3998,-3.5487,-3.6332,-3.6874,-3.7144,0.0,0.0,0.0,0.0,0.0,0.0,0.0,-3.6375,-3.6388,-3.7043,-3.755,-3.755,-3.7347,-3.7165,-3.7178,0.0,0.0,-3.64,-3.6366,-3.6535,-3.7009,-3.6705,-3.6287,-3.6093,-3.5802,-3.5723,0.0,0.0,0.0,0.0,0.0,0.0,0.0,0.0,-3.8872,-3.968,0.0,-3.8652,0.0,0.0,0.0,0.0,0.0,0.0,0.0,0.0,-4.0855,-4.1662,-4.2433,-4.3167,-4.313,-4.2396,-4.2279,-4.113,-3.8817,-3.6546,0.0,0.0,0.0,0.0,0.0,0.0,-3.6425,-3.8713,-3.9104,-3.9841,-4.1074,-4.0623,-3.9495,-3.7603,-3.6111,-3.5283,-3.5145,-3.3697,-3.2904,-3.2869,-3.2145,0.0,0.0,0.0,0.0,0.0,0.0,0.0,0.0,0.0,0.0,0.0,0.0,0.0,0.0,0.0,0.0,0.0,0.0,0.0,0.0,-3.28,0.0,0.0,0.0,0.0,0.0,0.0,0.0,0.0,0.0,0.0,-3.4607,-3.5182,-3.6197,-3.7686,0.0,0.0,0.0,0.0,-3.7077,-3.7787,-3.7922,-3.8125,-3.8768,-3.8294,-3.7855,-3.7821,0.0,0.0,-3.9005,-3.8434,-3.7947,-3.7908,-3.7855,-3.7415,-3.5949,-3.5825,-3.5825,-3.5893,-3.5859,-3.5926,-3.6535,-3.6129,-3.5825,-4.0824,0.0,0.0,0.0,0.0,-4.0489,-4.1282,-4.2103,-4.2103,-4.1735,-4.1075,-4.0377,0.0,0.0,0.0,0.0,0.0,0.0,-4.0634,-4.1699,-4.302,-4.4121,-4.4856,-4.5112,-4.4782,-4.4011,-4.3422,-4.2209,-4.0409,-3.8609,-3.719,-3.6186,0.0,0.0,0.0,0.0,-3.7631,-3.9097,-3.973,-4.0484,-4.1364,-4.0778,-3.946,-3.7569,-3.7077,-3.6318,-3.5249,-3.4169,-3.3377,-3.2904,-3.2104,0.0,0.0,0.0,0.0,0.0,0.0,0.0,0.0,0.0,0.0,0.0,0.0,0.0,0.0,0.0,0.0,0.0,0.0,0.0,-3.4073,-3.4491,-3.4582,0.0,0.0,0.0,0.0,0.0,0.0,0.0,0.0,0.0,-3.7516,-3.6468,-3.6163,0.0,0.0,-3.7652,-3.7889,-3.7719,-3.7652,-3.7889,0.0,0.0,0.0,-3.7686,-3.7719,-3.7212,-3.8173,-3.9156,-3.9681,-3.921,-3.8672,-3.8652,-3.7821,-3.711,-3.728,-3.7246,-3.7415,-3.7821,-3.7212,-3.6535,-3.6671,-3.6163,-3.569,-4.4279,-4.0588,-4.1298,-4.1573,-4.1677,-4.2262,-4.2887,-4.3497,-4.3497,-4.313,-4.2506,-4.1882,-4.1405,-4.1075,-4.0744,0.0,0.0,0.0,-4.247,-4.3314,-4.4599,-4.559,-4.6397,-4.6691,-4.6434,-4.5626,-4.4816,-4.3603,-4.2029,-4.0744,-3.9522,-3.8354,0.0,0.0,-3.6952,-3.7669,-3.8747,-4.0165,-4.0491,-4.0895,-4.1464,-4.0027,-3.8521,-3.712,-3.7008,-3.6559,-3.5663,-3.4863,-3.4238,-3.3835,-3.3033,-3.2483,0.0,0.0,0.0,0.0,0.0,0.0,0.0,0.0,0.0,0.0,0.0,-3.2136,-3.3069,0.0,0.0,0.0,-3.364,-3.4117,-3.4627,-3.4761,0.0,0.0,0.0,0.0,0.0,0.0,0.0,-3.6468,-3.6941,-3.7686,-3.8802,-3.7821,-3.7516,-3.9005,-3.8464,-3.799,-3.8294,0.0,-3.7787,-3.7516,-3.8193,-3.8497,-3.7787,-3.8294,-3.87,-3.8565,-3.902,-3.9664,-4.0358,-3.9919,-3.948,-3.9343,-3.8667,-3.8125,-3.8328,-3.8328,-3.8227,-3.8125,-3.7144,-3.6366,-3.6332,-3.596,-3.5622,-4.7229,-4.4987,-4.4681,-4.4173,-4.3558,-4.4047,-4.4157,-4.4013,-4.4011,-4.4342,-4.4782,-4.3277,-4.3351,-4.4562,-4.3828,0.0,0.0,-4.3314,-4.4121,-4.4929,-4.5736,-4.6507,-4.7241,-4.7939,-4.7902,-4.7095,-4.6358,-4.5215,-4.3718,-4.2839,-4.2103,-4.1392,-3.8255,-3.7081,-3.789,-3.8505,-3.9783,-4.1649,-4.1274,-4.112,-4.1288,-3.8894,-3.7146,-3.6353,-3.6284,-3.6284,-3.6249,-3.5594,-3.518,-3.518,-3.449,-3.3766,-3.3076,0.0,0.0,0.0,0.0,0.0,0.0,0.0,0.0,0.0,0.0,0.0,0.0,0.0,0.0,0.0,-3.3776,0.0,-3.4349,-3.4337,0.0,0.0,0.0,-3.6285,-3.5836,-3.711,-3.799,-3.799,0.0,0.0,-3.9005,0.0,-3.958,-4.0933,-3.9309,-3.8261,-3.8971,-3.8464,-3.7753,-3.7178,-3.8783,-3.9749,-3.887,-3.9309,-4.002,-4.0629,-4.0527,-4.029,-4.0832,-4.0527,-4.0121,-4.002,-4.002,-3.9783,-3.9174,-3.8971,-3.8497,-3.7313,-3.6434,-3.5893,-3.596,-3.596,-3.596,-4.9417,-4.8743,-4.8592,-4.7405,-4.5587,-4.6667,-4.7615,-4.8405,-4.8187,-4.7498,-4.6471,-4.548,-4.4562,-4.3791,-4.3571,-4.3718,-4.4158,-4.4966,-4.5773,-4.6581,-4.7352,-4.7865,-4.8012,-4.8233,-4.7902,-4.7131,-4.6912,-4.6323,-4.5333,-4.4162,-4.3688,-4.3683,-4.1143,-3.9986,-4.0325,-4.0112,-4.0817,-4.2481,-4.1791,-4.0942,-3.9856,-3.886,-3.7698,-3.6318,-3.6284,-3.6284,-3.6284,-3.5594,-3.518,-3.518,-3.449,-3.4007,-3.3835,-3.4007,0.0,0.0,0.0,0.0,0.0,0.0,0.0,0.0,0.0,-3.3798,-3.4235,0.0,-3.43,0.0,-3.4306,-3.5048,-3.6271,-3.6556,0.0,0.0,-3.7776,-3.7885,-3.7428,-3.8193,-3.8734,-3.8734,-3.9242,-3.9614,-3.9817,-3.9817,-3.9952,-4.029,-3.9411,-3.9005,-3.9681,-3.9208,-3.8667,-3.8565,-3.9343,-3.9614,-3.8565,-3.8768,-3.9546,-4.0223,-4.0189,-4.0155,-4.0324,-4.0223,-4.0087,-4.0054,-3.9614,-3.9411,-3.9715,-3.8971,-3.8362,-3.8362,-3.7889,-3.7347,-3.7347,-3.7347,-3.7347,-5.0149,-5.0011,-5.0011,-4.918,-4.791,-4.8514,-4.9222,-4.9981,-4.9404,-4.8587,-4.7609,-4.6801,-4.5736,-4.4635,-4.5296,-4.5663,-4.5847,-4.6617,-4.7205,-4.7682,-4.8086,-4.8306,-4.8306,-4.8306,-4.7934,-4.7338,-4.7166,-4.6763,-4.6059,-4.5062,-4.4663,-4.4892,-4.3084,-4.218,-4.2123,-4.1178,-4.1638,-4.3544,-4.2347,-4.1004,-3.9556,-3.8901,-3.8043,-3.687,-3.649,-3.6284,-3.6284,-3.5904,-3.5663,-3.5697,-3.5283,-3.4938,-3.4594,-3.4869,-3.4938,0.0,0.0,0.0,0.0,0.0,0.0,0.0,0.0,0.0,0.0,0.0,-3.4921,-3.5456,-3.5891,-3.6507,-3.7394,-3.7594,-3.7865,-3.8265,-3.8562,-3.8675,-3.8444,-3.9039,-3.9478,-3.9478,-3.9851,-4.0087,-4.0087,-4.0087,-4.0087,-4.0087,-3.9445,-3.914,-3.9478,-3.9242,-3.8903,-3.8599,-3.9411,-3.9817,-3.8971,-3.9208,-3.9614,-3.9986,-4.0087,-4.0087,-4.0087,-4.0087,-4.0087,-4.0054,-3.9749,-3.9478,-3.9546,-3.9276,-3.8971,-3.8903,-3.8937,-3.8633,-3.8058,-3.7922,-3.7922,-5.008,-5.0011,-5.0011,-5.0011,-4.9942,-4.9617,-4.9685,-4.9992,-4.9017,-4.8442,-4.8078,-4.738,-4.6724,-4.6138,-4.7492,-4.7748,-4.7124,-4.7821,-4.819,-4.8229,-4.8192,-4.8229,-4.8229,-4.8192,-4.7955,-4.7512,-4.7189,-4.6861,-4.6416,-4.5725,-4.5323,-4.5364,-4.435,-4.3814,-4.37,-4.2127,-4.2192,-4.4057,-4.28,-4.1388,-3.9905,-3.9215,-3.8525,-3.7801,-3.7008,-3.6594,-3.6594,-3.649,-3.649,-3.6551,-3.6525,-3.6215,-3.5697,-3.6215,-3.6318,0.0,-3.6249,0.0,0.0,0.0,0.0,0.0,0.0,0.0,0.0,-3.5125,-3.5839,-3.7171,-3.7657,-3.797,-3.8099,-3.8072,-3.8091,-3.8193,-3.8768,-3.914,-3.914,-3.9681,-4.0087,-4.0087,-4.0087,-4.0087,-4.0087,-4.0087,-4.0087,-4.0054,-3.958,-3.9242,-3.9174,-3.9106,-3.8768,-3.8125,-3.9106,-3.9817,-3.9918,-4.002,-4.0054,-4.0087,-4.0087,-4.0087,-4.0087,-4.0087,-4.0087,-4.0087,-4.0054,-3.9851,-3.9242,-3.9648,-3.9817,-3.9309,-3.9614,-3.958,-3.8599,-3.8328,-3.8193,-5.0562,-5.0011,-5.0011,-5.0011,-4.9942,-4.9262,-4.9486,-5.0247,-4.8816,-4.7833,-4.716,-4.7016,-4.6873,-4.6729,-4.7016,-4.7088,-4.6944,-4.7088,-4.7378,-4.7715,-4.7715,-4.7715,-4.7715,-4.7715,-4.7506,-4.7026,-4.6972,-4.69,-4.6811,-4.6258,-4.6187,-4.6552,-4.5019,-4.49,-4.6051,0.0,0.0,0.0,-4.2693,-4.2216,-4.0733,-4.0526,-4.0077,-3.9284,-3.856,0.0,-3.8146,-3.7594,-3.7482,-3.7978,-3.755,0.0,0.0,0.0,0.0,0.0,0.0,0.0,0.0,0.0,0.0,0.0,-3.7929,-3.7644,-3.761,-3.7558,-3.7626,-3.7945,-3.7963,-3.8159,-3.8749,-3.8768,-3.9039,-3.9614,-3.9783,-3.9884,-3.9884,-4.002,-4.0087,-4.0087,-4.0087,-4.0087,-4.0087,-4.0087,-4.0087,-4.0121,-3.9952,-3.9884,-3.9884,-3.9377,-3.8971,-3.8836,-3.914,-3.9445,-3.9986,-4.0087,-4.0087,-4.0087,-4.0087,-4.0087,-4.0087,-4.0087,-4.0087,-4.0087,-4.0087,-4.0054,-3.9884,-4.0036,-4.002,-3.9935,-3.9986,-3.9986,-3.9715,-3.9648,-3.9681,-5.0666,0.0,-5.0011,-5.0011,0.0,-4.9034,-4.9214,-4.9953,-4.8749,-4.8187,-4.8021,-4.8021,-4.7807,-4.7415,-4.7415,-4.7201,-4.6926,-4.6926,-4.7026,-4.7248,-4.7248,-4.7248,-4.7248,-4.7248,-4.7026,-4.6566,-4.6753,-4.6788,-4.6554,-4.6702,-4.6878,-4.7121,-4.6325,-4.6031,-4.6084,-4.4208,-4.2743,-4.1766,-4.2327,-4.2009,-4.094,-4.0491,-4.0112,-3.9698,0.0,0.0,0.0,0.0,0.0,0.0,0.0,0.0,0.0,0.0,0.0,-3.8594,-3.8594,-3.8732,-3.9112,-3.9101,-3.9227,-3.9606,-3.9465,-3.9063,-3.8265,-3.8431,-3.8574,-3.8622,-3.8831,-3.914,-3.9478,-3.9546,-3.9681,-4.002,-4.0087,-4.0087,-4.0087,-4.0087,-4.0087,-4.0087,-4.0087,-4.0087,-4.0087,-4.0087,-4.0257,-4.0561,-4.0629,-4.0629,-4.0561,-3.9986,-3.9546,-3.9546,-3.9546,-3.9648,-3.9986,-4.0087,-4.0087,-4.0087,-4.0087,-4.0087,-4.0087,-4.0087,-4.0087,-4.0087,-4.0087,-4.0087,-4.0087,-4.0087,-4.0087,-4.0087,-4.0087,-4.0087,-4.0087,-4.0087,-4.0087,-5.0607,-4.9918,-4.9952,-4.9918,-4.9825,-4.8976,-4.8916,-4.9361,0.0,0.0,0.0,-4.8515,-4.8125,-4.7523,-4.7523,-4.7216,-4.6649,-4.6613,-4.666,-4.6788,-4.6753,-4.6753,-4.6788,-4.6788,-4.6554,-4.6105,-4.6459,-4.6459,-4.614,-4.6825,-4.7175,-4.7194,-4.7538,-4.701,-4.563,-4.4389,-4.332,-4.2423,-4.2388,-4.2043,-4.1285,-4.0664,-4.025,-4.0112,-3.9388,-3.9008,-3.8974,-3.8836,-3.8836,-3.8974,-3.887,-3.8836,-3.8928,-3.8974,-3.8974,-3.9008,-3.8974,-3.9204,-3.9824,-3.9765,-3.9945,-4.0597,-4.0534,-3.989,-3.8533,-3.8899,-3.9223,-3.9223,-3.9799,-4.0087,-4.0087,-4.0087,-4.0087,-4.0087,-4.0087,-4.0087,-4.0087,-4.0087,-4.0121,-4.0223,-4.0324,-4.0358,-4.0493,-4.0561,-4.0663,-4.1204,-4.1238,-4.1204,-4.1102,-4.0493,-4.002,-4.002,-3.9986,-4.0054,-4.0087,-4.0087,-4.0087,-4.0087,-4.0087,-4.0087,-4.0087,-4.0087,-4.0087,-4.0087,-4.0087,-4.0087,-4.0087,-4.0087,-4.0087,-4.0087,-4.0087,-4.0087,-4.0087,-4.0087,-4.0087,-5.0488,-4.9708,-4.9767,-4.9649,-4.9496,-4.886,-4.8633,-4.87,-4.7876,-4.6812,-4.5752,-4.5857,-4.5823,-4.558,-4.5684,-4.5702,-4.5598,-4.5494,-4.5717,0.0,-4.6133,-4.6133,-4.6266,-4.6315,-4.602,-4.5546,-4.5598,-4.5581,-4.5598,-4.6323,-4.6704,-4.6773,-4.7355,-4.7286,-4.6493,-4.6217,-4.5423,-4.4009,-4.394,-4.3595,-4.2921,-4.2733,-4.2354,-4.1664,-4.094,-4.056,-4.0526,-3.9905,-3.9824,-4.035,-3.9859,-3.979,-4.0384,-4.0479,-4.056,-4.056,-4.0466,-4.0439,-4.0542,-4.0446,-4.0383,-4.0337,-4.0337,-4.0285,-4.0129,-4.0099,-4.0102,-4.0102,-4.012,-4.0087,-4.0087,-4.0121,-4.0121,-4.0121,-4.0087,-4.0087,-4.0121,-4.0121,-4.0358,-4.0899,-4.1035,-4.1305,-4.1745,-4.188,-4.1899,-4.2019,-4.1764,-4.1271,-4.1238,-4.0561,-4.0121,-4.0087,-4.0087,-4.0087,-4.0155,-4.0087,-4.0087,-4.0087,-4.0087,-4.0087,-4.0087,-4.0087,-4.0087,-4.0087,-4.0087,-4.0087,-4.0087,-4.0087,-4.0087,-4.0087,-4.0087,-4.0087,-4.0087,-4.0087,-4.0087,-5.0335,-4.9742,-4.959,-4.953,-4.9471,-4.9188,-4.8778,-4.8309,-4.8023,-4.7803,-4.7648,-4.7648,-4.7442,-4.7065,-4.7086,-4.6728,-4.6079,-4.5991,-4.5856,-4.5649,-4.5563,-4.5563,-4.5615,-4.5701,-4.5788,-4.601,-4.563,-4.5577,-4.5903,-4.637,-4.6507,-4.6488,-4.6886,-4.6941,-4.6596,-4.6182,-4.563,-4.4906,-4.4492,-4.3957,-4.3266,-4.3232,-4.3059,-4.263,-4.2201,-4.1773,-4.1395,-4.1051,-4.0762,-4.0583,-4.0336,-4.0384,-4.0549,-4.068,-4.0776,-4.0693,-4.068,-4.0666,-4.0588,-4.047,-4.0337,-4.0188,-4.0188,-4.0358,-4.0866,-4.0476,-4.0188,-4.0188,-4.0138,-4.0257,-4.0629,-4.0696,-4.0832,-4.1238,-4.0933,-4.0696,-4.0696,-4.0696,-4.0832,-4.117,-4.1576,-4.1914,-4.2252,-4.2286,-4.2509,-4.2765,-4.2543,-4.2354,-4.2354,-4.1745,-4.1271,-4.1238,-4.0967,-4.073,-4.0663,-4.0324,-4.0121,-4.0087,-4.0087,-4.0087,-4.0087,-4.0087,-4.0087,-4.0087,-4.0087,-4.0087,-4.0087,-4.0087,-4.0087,-4.0087,-4.0087,-4.0087,-4.0087,-4.0087,-4.0087,-4.9983,-4.959,-4.9471,-4.9411,-4.9411,-4.9411,-4.895,-4.8413,-4.8498,-4.8958,-4.9521,-4.9188,-4.8709,-4.8254,-4.8277,-4.7717,-4.6832,-4.6674,-4.6364,-4.576,-4.5692,-4.5692,-4.5692,-4.5554,-4.5883,-4.6542,-4.5818,-4.5627,-4.6247,-4.6473,-4.6611,-4.6605,-4.6783,-4.6769,-4.6596,-4.601,-4.5543,-4.5371,-4.501,-4.4354,-4.3508,-4.3473,-4.3404,-4.3182,-4.3012,-4.2687,-4.2087,-4.2053,-4.1728,-4.1047,-4.0925,-4.0857,-4.0774,-4.0686,-4.0631,-4.0514,-4.0549,-4.0637,-4.0678,-4.0764,-4.0697,-4.0646,-4.0595,-4.0832,-4.1305,-4.0933,-4.0561,-4.0561,-4.0663,-4.0865,-4.1339,-4.1441,-4.1677,-4.2185,-4.1813,-4.1474,-4.1441,-4.1441,-4.1542,-4.1711,-4.2219,-4.2591,-4.276,-4.2794,-4.2963,-4.3288,-4.3369,-4.3436,-4.3335,-4.2895,-4.2625,-4.2557,-4.1914,-4.1204,-4.117,-4.0561,-4.0155,-4.0087,-4.0087,-4.0087,-4.0087,-4.0087,-4.0087,-4.0087,-4.0087,-4.0087,-4.0087,-4.0087,-4.0087,-4.0087,-4.0087,-4.0087,-4.0087,-4.0087,-4.0087,-4.9297,-4.9229,-4.9229,-4.9229,-4.9263,-4.9141,-4.9073,-4.9067,-4.9006,-4.904,-4.9188,-4.7977,-4.7431,-4.718,-4.7329,-4.7318,-4.7113,-4.7033,-4.7079,-4.718,-4.7067,-4.7067,-4.7133,-4.6515,-4.6536,-4.6948,-4.5917,-4.5696,-4.6374,-4.6527,-4.6886,-4.7472,-4.7631,-4.7251,-4.6665,-4.6527,-4.6094,-4.5264,-4.5991,-4.5665,-4.4285,-4.4182,-4.3888,-4.3232,-4.3182,-4.3062,-4.2808,-4.2808,-4.2723,-4.2467,-4.1852,-4.151,-4.1442,-4.0861,-4.0534,-4.0549,-4.0436,-4.0544,-4.112,-4.1764,-4.2016,-4.2083,-4.2016,-4.2049,-4.2185,-4.2117,-4.2083,-4.2083,-4.2083,-4.2016,-4.2185,-4.2185,-4.2252,-4.2455,-4.2286,-4.2185,-4.2185,-4.2185,-4.2455,-4.3166,-4.32,-4.3538,-4.4045,-4.4181,-4.4012,-4.3538,-4.3529,-4.3563,-4.3517,-4.3436,-4.3538,-4.3741,-4.2658,-4.1441,-4.1271,-4.0595,-4.0358,-4.0223,-4.0121,-4.0206,-4.0239,-4.0172,-4.0087,-4.0087,-4.0087,-4.0087,-4.0087,-4.0087,-4.0087,-4.0087,-4.0087,-4.0087,-4.0087,-4.0087,-4.0087,-4.9107,-4.9168,-4.9107,-4.9317,-4.9622,-4.9187,-4.9317,-4.9656,-4.9187,-4.9046,-4.9012,-4.8523,-4.8286,-4.8311,-4.8371,-4.8192,-4.7933,-4.7841,-4.7602,-4.7227,-4.7101,-4.7135,-4.7158,-4.6885,-4.7136,-4.7786,-4.685,-4.67,-4.7189,-4.7099,-4.7202,-4.7533,-4.7567,-4.721,-4.6522,-4.679,-4.6357,-4.5245,-4.5912,-4.5829,-4.5042,-4.5371,-4.544,-4.5042,-4.4524,-4.3939,-4.3458,-4.3337,-4.3079,-4.2532,-4.2226,-4.2108,-4.2004,-4.1835,-4.1682,-4.158,-4.1545,-4.161,-4.1847,-4.2117,-4.2286,-4.2286,-4.2286,-4.2455,-4.2895,-4.2963,-4.3132,-4.347,-4.2828,-4.2455,-4.2861,-4.2963,-4.3132,-4.347,-4.3234,-4.2963,-4.2963,-4.2963,-4.3098,-4.3403,-4.3809,-4.4181,-4.4485,-4.4553,-4.4451,-4.4147,-4.4125,-4.4057,-4.4079,-4.4113,-4.4248,-4.4316,-4.3369,-4.2625,-4.2422,-4.188,-4.1474,-4.1305,-4.1001,-4.0781,-4.0679,-4.0273,-4.0087,-4.0087,-4.0087,-4.0087,-4.0087,-4.0087,-4.0087,-4.0087,-4.0087,-4.0087,-4.0087,-4.0037,-4.002,-4.9656,-4.9718,-4.9656,-4.9763,-5.0033,-4.9526,-4.9492,-4.9695,-4.9221,-4.9018,-4.9018,-4.9018,-4.908,-4.9107,-4.9168,-4.8923,-4.8601,-4.8567,-4.8201,-4.7665,-4.7597,-4.7631,-4.7597,-4.7359,-4.7749,-4.8309,-4.7578,-4.75,-4.7991,-4.7546,-4.7432,-4.7638,-4.7729,-4.7352,-4.679,-4.7204,-4.6965,-4.5946,-4.6383,-4.6418,-4.5925,-4.6584,-4.6742,-4.598,-4.5323,-4.4667,-4.4028,-4.396,-4.3634,-4.2963,-4.2833,-4.2732,-4.2591,-4.2528,-4.2411,-4.2325,-4.2503,-4.2584,-4.2625,-4.2794,-4.2929,-4.2929,-4.2929,-4.3132,-4.3606,-4.3741,-4.3978,-4.435,-4.3572,-4.32,-4.3606,-4.3741,-4.3978,-4.4451,-4.4045,-4.3741,-4.3741,-4.3741,-4.3741,-4.3809,-4.4215,-4.4553,-4.4553,-4.4553,-4.4553,-4.4519,-4.4553,-4.4553,-4.4553,-4.4553,-4.4553,-4.4553,-4.4045,-4.3673,-4.3436,-4.2658,-4.2388,-4.2151,-4.1644,-4.112,-4.1154,-4.0578,-4.0087,-4.0087,-4.0087,-4.0087,-4.0087,-4.0087,-4.0121,-4.0087,-4.0087,-4.0087,-4.0087,-4.002,-3.9969,-5.1116,-5.1082,-5.1116,-5.071,-5.0101,-5.0033,-4.9661,-4.9289,-4.9052,-4.9018,-4.9018,-4.9018,-4.9018,-4.8984,-4.9018,-4.8984,-4.8951,-4.8978,-4.8972,-4.8931,-4.8965,-4.9033,-4.9093,-4.8371,-4.8379,-4.8904,-4.797,-4.7717,-4.8387,-4.7877,-4.7775,-4.8343,-4.8387,-4.8059,-4.7695,-4.8104,-4.7875,-4.7216,-4.7796,-4.7807,-4.7077,-4.7739,-4.7204,-4.5405,-4.5029,-4.494,-4.4763,-4.4708,-4.4618,-4.4451,-4.3741,-4.3369,-4.3301,-4.2726,-4.2388,-4.2422,-4.2997,-4.3369,-4.3436,-4.3978,-4.435,-4.4384,-4.4282,-4.4418,-4.4384,-4.4485,-4.4587,-4.4621,-4.4519,-4.4451,-4.4485,-4.4418,-4.4451,-4.4553,-4.4519,-4.4451,-4.4485,-4.4384,-4.4519,-4.4451,-4.4519,-4.4553,-4.4553,-4.4553,-4.4553,-4.4553,-4.4553,-4.4553,-4.4553,-4.4553,-4.4553,-4.4553,-4.4451,-4.4282,-4.3538,-4.3132,-4.2625,-4.2455,-4.2219,-4.1391,-4.1019,-4.0679,-4.0425,-4.0189,-4.0392,-4.0392,-4.0189,-4.0087,-4.0155,-4.0155,-4.0087,-4.0087,-4.0037,-4.0087,-3.9986,-5.1217,-5.1217,-5.1217,-5.1319,-5.142,-5.0507,-5.0202,-5.0338,-4.939,-4.9018,-4.9018,-4.9018,-4.9018,-4.9018,-4.9018,-4.9018,-4.9018,-4.9018,-4.8984,-4.9046,-4.9046,-4.908,-4.908,-4.9243,-4.9474,-4.9616,-4.9695,-4.983,-5.0091,-5.0039,-5.0195,-5.04,-5.0407,-5.0059,-4.9641,-4.9937,-4.9406,-4.8031,-4.8481,-4.8184,-4.7189,-4.7233,-4.6927,-4.618,-4.5784,-4.5286,-4.4699,-4.4699,-4.4643,-4.4553,-4.4316,-4.4147,-4.4147,-4.391,-4.3741,-4.3775,-4.4012,-4.4147,-4.4181,-4.4418,-4.4553,-4.4553,-4.4553,-4.4621,-4.4654,-4.4993,-4.5297,-4.5297,-4.5297,-4.5297,-4.5196,-4.4891,-4.4587,-4.4553,-4.4553,-4.4553,-4.4553,-4.4553,-4.4553,-4.4553,-4.4553,-4.4553,-4.4553,-4.4553,-4.4553,-4.4553,-4.4553,-4.4553,-4.4553,-4.4553,-4.4553,-4.4553,-4.4553,-4.4485,-4.4282,-4.4012,-4.3741,-4.3538,-4.3234,-4.2814,-4.2426,-4.1816,-4.1441,-4.1321,-4.1253,-4.1238,-4.117,-4.0798,-4.0696,-4.0223,-4.0189,-3.9986,-4.002,-3.9935,-3.9781,-5.1961,-5.1961,-5.1961,-5.2063,-5.2131,-5.098,-5.0608,-5.071,-4.9526,-4.9018,-4.9018,-4.9018,-4.9018,-4.9052,-4.9255,-4.9357,-4.9323,-4.912,-4.9018,-4.9052,-4.9255,-4.9357,-4.9458,-5.013,-5.0464,-5.0532,-5.1017,-5.1358,-5.1522,-5.1511,-5.1673,-5.1843,-5.1847,-5.1439,-5.1089,-5.1312,-5.0706,-4.9542,-4.9554,-4.9182,-4.8124,-4.7894,-4.7597,-4.7158,-4.6767,-4.6157,-4.5331,-4.506,-4.4959,-4.4925,-4.4722,-4.4553,-4.4553,-4.4553,-4.4553,-4.4553,-4.4553,-4.4553,-4.4553,-4.4553,-4.4688,-4.4925,-4.4959,-4.5026,-4.5263,-4.5771,-4.6007,-4.6075,-4.6075,-4.6041,-4.5974,-4.5602,-4.5128,-4.4722,-4.4553,-4.4553,-4.4553,-4.4553,-4.4553,-4.4553,-4.4553,-4.4553,-4.4587,-4.4553,-4.4553,-4.4553,-4.4553,-4.4553,-4.4553,-4.4553,-4.4553,-4.4553,-4.4553,-4.4553,-4.4485,-4.435,-4.4316,-4.4181,-4.3741,-4.3538,-4.3335,-4.2794,-4.2489,-4.2348,-4.2314,-4.2354,-4.2083,-4.1644,-4.1136,-4.0561,-4.0121,-3.9935,-3.9833,-3.9763,-3.9659,-5.345,-5.3382,-5.3484,-5.2976,-5.2334,-5.1488,-5.0777,-5.0202,-4.9357,-4.9018,-4.9018,-4.9018,-4.9052,-4.9187,-4.9729,-5.0033,-4.9999,-4.9526,-4.9255,-4.9289,-4.983,-5.0101,-5.0135,-5.0841,-5.1282,-5.1319,-5.1463,-5.1866,-5.2266,-5.1922,-5.1953,-5.2264,-5.2399,-5.216,-5.1541,-5.2092,-5.1993,-5.141,-5.1146,-5.0744,-5.0168,-4.9932,-4.9323,-4.824,-4.8037,-4.7665,-4.6887,-4.6143,-4.5703,-4.5635,-4.5094,-4.4654,-4.4756,-4.479,-4.4688,-4.4756,-4.4688,-4.4654,-4.4688,-4.4756,-4.5128,-4.5568,-4.5703,-4.594,-4.6413,-4.6684,-4.6786,-4.6786,-4.6786,-4.6786,-4.6786,-4.665,-4.6109,-4.4925,-4.4857,-4.4857,-4.4756,-4.4654,-4.4621,-4.4756,-4.4823,-4.4654,-4.4654,-4.4823,-4.4891,-4.4891,-4.4857,-4.4891,-4.4925,-4.4857,-4.4654,-4.4722,-4.4823,-4.4891,-4.4756,-4.4621,-4.4621,-4.4553,-4.4012,-4.3639,-4.3606,-4.3234,-4.3064,-4.2976,-4.301,-4.2963,-4.2625,-4.2185,-4.1745,-4.1204,-4.0627,-4.0153,-4.005,-4.0012,-3.9707,-5.3518,-5.3518,-5.3518,-5.3382,-5.2976,-5.1758,-5.1048,-5.0744,-4.956,-4.9018,-4.9018,-4.9018,-4.9289,-4.9729,-4.9999,-5.0371,-5.0811,-5.0608,-5.0541,-5.0574,-5.0777,-5.0879,-5.1014,-5.1589,-5.2198,-5.2739,-5.2809,-5.2944,-5.3078,-5.2941,-5.2975,-5.3211,-5.3144,-5.3077,-5.3003,-5.3043,-5.2806,-5.2128,-5.1961,-5.1589,-5.0947,-5.0879,-5.0608,-5.027,-5.0202,-4.983,-4.9018,-4.7394,-4.6515,-4.6447,-4.6244,-4.6109,-4.6075,-4.6109,-4.6109,-4.6109,-4.6109,-4.6109,-4.6075,-4.6075,-4.6143,-4.6413,-4.6447,-4.6549,-4.6819,-4.7293,-4.7564,-4.7564,-4.7564,-4.7564,-4.7496,-4.7056,-4.6616,-4.6143,-4.6109,-4.6007,-4.5974,-4.6041,-4.6109,-4.6109,-4.6109,-4.6109,-4.6075,-4.6041,-4.5974,-4.5974,-4.6007,-4.6007,-4.5974,-4.5568,-4.5635,-4.5974,-4.5737,-4.55,-4.5602,-4.5602,-4.5534,-4.5263,-4.4688,-4.4045,-4.3944,-4.3842,-4.3673,-4.3606,-4.3639,-4.3504,-4.3166,-4.276,-4.232,-4.1996,-4.1553,-4.1076,-4.0687,-4.0327,-4.0154,-5.3518,-5.3518,-5.3518,-5.3518,-5.3348,-5.2131,-5.1623,-5.1454,-5.0371,-4.983,-4.9796,-4.9526,-4.9796,-5.0405,-5.0507,-5.0947,-5.1623,-5.1928,-5.2063,-5.1995,-5.1691,-5.1623,-5.1725,-5.2401,-5.2976,-5.3416,-5.3518,-5.3518,-5.3518,-5.3518,-5.3551,-5.3618,-5.3551,-5.3551,-5.3618,-5.3551,-5.3213,-5.2807,-5.2739,-5.2536,-5.2097,-5.1792,-5.1623,-5.1589,-5.1352,-5.0845,-5.0067,-4.8951,-4.8037,-4.7327,-4.6955,-4.6786,-4.6786,-4.6752,-4.6786,-4.6786,-4.6786,-4.6752,-4.6786,-4.6684,-4.6955,-4.7124,-4.7192,-4.7361,-4.7597,-4.8139,-4.8308,-4.8308,-4.8308,-4.8308,-4.824,-4.7936,-4.7631,-4.7597,-4.7056,-4.6819,-4.6786,-4.6786,-4.6752,-4.6684,-4.6718,-4.6786,-4.6786,-4.6786,-4.6786,-4.6786,-4.6786,-4.6786,-4.6718,-4.638,-4.6583,-4.665,-4.638,-4.6346,-4.6616,-4.6616,-4.6515,-4.6041,-4.5466,-4.4857,-4.4451,-4.435,-4.4215,-4.4181,-4.4215,-4.4147,-4.3809,-4.3403,-4.3031,-4.2719,-4.2341,-4.1607,-4.0976,-4.0933,-4.0757,-5.3518,-5.3518,-5.3518,-5.3518,-5.3416,-5.257,-5.2232,-5.2131,-5.1454,-5.1082,-5.0947,-5.0405,-5.0574,-5.115,-5.1251,-5.1691,-5.2401,-5.2976,-5.3247,-5.3112,-5.2706,-5.2401,-5.2469,-5.3078,-5.3382,-5.3484,-5.3518,-5.3518,-5.3518,-5.3518,-5.3484,-5.3518,-5.3518,-5.3518,-5.3484,-5.3484,-5.3484,-5.3416,-5.3416,-5.3382,-5.3281,-5.2638,-5.2334,-5.23,-5.1691,-5.1014,-5.0405,-5.0304,-4.9796,-4.824,-4.7462,-4.7124,-4.6989,-4.6921,-4.7056,-4.7124,-4.6955,-4.7056,-4.6989,-4.7158,-4.7361,-4.7902,-4.8003,-4.824,-4.8714,-4.8781,-4.8849,-4.8883,-4.8917,-4.8917,-4.8917,-4.8849,-4.8815,-4.8781,-4.7834,-4.7192,-4.6955,-4.7022,-4.7192,-4.709,-4.6955,-4.6955,-4.7124,-4.7124,-4.709,-4.709,-4.7124,-4.7192,-4.7124,-4.7124,-4.6955,-4.6955,-4.709,-4.7192,-4.7462,-4.7564,-4.7428,-4.6921,-4.6413,-4.5906,-4.5196,-4.4993,-4.4857,-4.479,-4.4621,-4.4587,-4.4418,-4.3888,-4.3541,-4.3351,-4.2713,-4.1822,-4.151,-4.1521,-4.1455,-5.3518,-5.3518,-5.3518,-5.3518,-5.3382,-5.2638,-5.2334,-5.2198,-5.1555,-5.1352,-5.1183,-5.1014,-5.1319,-5.1961,-5.2029,-5.2435,-5.3044,-5.3382,-5.3518,-5.3484,-5.3315,-5.3179,-5.3213,-5.3382,-5.3518,-5.3518,-5.3518,-5.3518,-5.3518,-5.3551,-5.3551,-5.3518,-5.3619,-5.3551,-5.3518,-5.3551,-5.3518,-5.3518,-5.3518,-5.3518,-5.3382,-5.2739,-5.2638,-5.3078,-5.2401,-5.1691,-5.0879,-5.0033,-4.9695,-4.956,-4.8815,-4.8443,-4.8342,-4.8342,-4.8274,-4.8308,-4.8342,-4.8376,-4.8376,-4.8376,-4.8511,-4.868,-4.8646,-4.8815,-4.8951,-4.9018,-4.9018,-4.9018,-4.9018,-4.9018,-4.9018,-4.9018,-4.9018,-4.8984,-4.8511,-4.8308,-4.8308,-4.8443,-4.8409,-4.8409,-4.8342,-4.8308,-4.8274,-4.8274,-4.8308,-4.8308,-4.8274,-4.8274,-4.8071,-4.7834,-4.7665,-4.8003,-4.8173,-4.8173,-4.8274,-4.8409,-4.8274,-4.78,-4.7394,-4.709,-4.638,-4.5805,-4.5602,-4.5432,-4.4845,-4.4619,-4.4394,-4.4034,-4.391,-4.3719,-4.3494,-4.2912,-4.2465,-4.2309,-4.2242,-5.3518,-5.3518,-5.3518,-5.3518,-5.345,-5.2976,-5.2807,-5.2739,-5.2367,-5.2198,-5.2131,-5.1792,-5.2097,-5.2739,-5.2469,-5.2739,-5.345,-5.3518,-5.3518,-5.3518,-5.3484,-5.3484,-5.3484,-5.3518,-5.3518,-5.3518,-5.3518,-5.3687,-5.3923,-5.3957,-5.4093,-5.4431,-5.4431,-5.4296,-5.3991,-5.3957,-5.3788,-5.3585,-5.3518,-5.3518,-5.345,-5.3078,-5.3043,-5.3348,-5.3009,-5.257,-5.1995,-5.0473,-4.956,-4.956,-4.9221,-4.9018,-4.9018,-4.9018,-4.9018,-4.9018,-4.9018,-4.8984,-4.9018,-4.9018,-4.9018,-4.9018,-4.9018,-4.9018,-4.9018,-4.9018,-4.9018,-4.9018,-4.9018,-4.9018,-4.9018,-4.9018,-4.9018,-4.9018,-4.9018,-4.9018,-4.9018,-4.8951,-4.8984,-4.9018,-4.9018,-4.9018,-4.9018,-4.9018,-4.9018,-4.8984,-4.8849,-4.8883,-4.8849,-4.8578,-4.8409,-4.8612,-4.8748,-4.8646,-4.8612,-4.8714,-4.8748,-4.8342,-4.8173,-4.7936,-4.714,-4.6397,-4.6026,-4.5664,-4.5043,-4.4582,-4.439,-4.4222,-4.403,-4.3905,-4.4039,-4.3789,-4.324,-4.285,-4.2783,-5.3518,-5.3518,-5.3518,-5.3518,-5.3518,-5.3518,-5.3416,-5.3484,-5.3382,-5.3382,-5.3247,-5.2706,-5.2807,-5.345,-5.2807,-5.2841,-5.3518,-5.3518,-5.3518,-5.3518,-5.3518,-5.3518,-5.3518,-5.3518,-5.3518,-5.3551,-5.3551,-5.3991,-5.4397,-5.46,-5.504,-5.5344,-5.5547,-5.531,-5.4769,-5.46,-5.4228,-5.3754,-5.3551,-5.3518,-5.345,-5.3247,-5.3212,-5.3413,-5.3178,-5.3112,-5.2604,-5.1319,-4.9999,-4.9289,-4.9154,-4.9187,-4.9187,-4.9154,-4.9154,-4.9187,-4.9221,-4.9221,-4.9154,-4.9221,-4.9086,-4.9052,-4.9086,-4.9052,-4.9052,-4.9018,-4.9018,-4.9018,-4.9018,-4.9018,-4.9018,-4.9018,-4.9018,-4.9018,-4.9018,-4.9018,-4.9018,-4.9018,-4.9018,-4.9018,-4.9018,-4.9018,-4.9018,-4.9018,-4.9018,-4.9018,-4.9018,-4.9018,-4.9018,-4.8849,-4.8748,-4.8883,-4.8951,-4.8984,-4.8951,-4.8984,-4.8951,-4.8815,-4.8748,-4.8416,-4.7558,-4.6885,-4.6294,-4.5831,-4.557,-4.5068,-4.444,-4.4307,-4.4181,-4.3923,-4.3864,-4.3747,-4.3621,-4.3422,-4.3289,-5.3518,-5.3518,-5.3518,-5.3518,-5.3518,-5.3518,-5.3518,-5.3518,-5.3518,-5.3518,-5.345,-5.3281,-5.3348,-5.3484,-5.3281,-5.3348,-5.3484,-5.3518,-5.3518,-5.3518,-5.3518,-5.3518,-5.3518,-5.3518,-5.3518,-5.3653,-5.4126,-5.4465,-5.4702,-5.5243,-5.5547,-5.575,-5.5919,-5.5649,-5.548,-5.4972,-5.4566,-5.4262,-5.3822,-5.3585,-5.3416,-5.301,-5.2942,-5.3348,-5.2909,-5.2604,-5.2401,-5.1555,-5.0913,-5.0642,-5.0236,-4.9932,-4.9864,-4.9864,-4.9864,-4.9864,-4.9864,-4.9864,-4.9864,-4.983,-4.9593,-4.9187,-4.9492,-4.9627,-4.9052,-4.9018,-4.9018,-4.9018,-4.9018,-4.9018,-4.9018,-4.9018,-4.9018,-4.9018,-4.9018,-4.9018,-4.9018,-4.9018,-4.9018,-4.9018,-4.9018,-4.9018,-4.9018,-4.9018,-4.9018,-4.9018,-4.9018,-4.9018,-4.9052,-4.9086,-4.912,-4.9154,-4.9018,-4.9018,-4.9018,-4.9018,-4.9018,-4.8984,-4.8984,-4.8861,-4.7967,-4.744,-4.7005,-4.6581,-4.6285,-4.5684,-4.4923,-4.4637,-4.461,-4.4119,-4.3787,-4.3727,-4.3701,-4.3635,-4.3628,-5.3518,-5.3518,-5.3518,-5.3518,-5.3518,-5.3518,-5.3518,-5.3518,-5.3518,-5.3518,-5.3518,-5.3518,-5.3518,-5.3518,-5.3518,-5.3518,-5.3518,-5.3518,-5.3518,-5.3518,-5.3518,-5.3518,-5.3518,-5.3551,-5.3653,-5.3991,-5.4363,-5.4871,-5.5547,-5.5987,-5.6427,-5.6697,-5.6697,-5.6596,-5.6258,-5.5784,-5.548,-5.504,-5.4397,-5.4059,-5.3923,-5.3314,-5.2976,-5.3247,-5.2773,-5.2435,-5.2807,-5.2131,-5.1995,-5.1995,-5.1555,-5.0947,-5.0676,-5.0608,-5.0642,-5.0608,-5.0608,-5.0608,-5.0608,-5.0574,-5.0304,-4.956,-4.9898,-4.9593,-4.9221,-4.9018,-4.9018,-4.9018,-4.9018,-4.9018,-4.9018,-4.9018,-4.9018,-4.9018,-4.9018,-4.9018,-4.9018,-4.9018,-4.9018,-4.9018,-4.9018,-4.9018,-4.9018,-4.9154,-4.912,-4.9154,-4.912,-4.9154,-4.9424,-4.9458,-4.939,-4.9357,-4.9154,-4.9018,-4.9018,-4.9018,-4.9018,-4.8984,-4.8951,-4.8765,-4.8341,-4.7948,-4.7684,-4.7224,-4.6699,-4.6234,-4.5573,-4.5317,-4.5119,-4.492,-4.4622,-4.4131,-4.38,-4.3734,-4.3635,-5.3518,-5.3518,-5.3518,-5.3518,-5.3518,-5.3518,-5.3518,-5.3518,-5.3518,-5.3518,-5.3518,-5.3518,-5.3518,-5.3518,-5.3518,-5.3518,-5.3518,-5.3518,-5.3518,-5.3518,-5.3518,-5.3518,-5.3518,-5.3551,-5.3991,-5.4668,-5.4837,-5.5513,-5.6393,-5.6934,-5.7205,-5.7746,-5.7814,-5.7442,-5.7036,-5.6799,-5.6427,-5.5852,-5.5141,-5.4804,-5.4635,-5.4059,-5.3687,-5.3348,-5.301,-5.2841,-5.3179,-5.2875,-5.2773,-5.3416,-5.2841,-5.2232,-5.1725,-5.1386,-5.1386,-5.1386,-5.1386,-5.1386,-5.1386,-5.1319,-5.1014,-5.0236,-5.0439,-5.0033,-4.9492,-4.9458,-4.9593,-4.9554,-4.9554,-4.9419,-4.9187,-4.9283,-4.9215,-4.9052,-4.9018,-4.9052,-4.9154,-4.9154,-4.9221,-4.9018,-4.9255,-4.939,-4.9458,-4.9526,-4.9424,-4.9323,-4.9323,-4.9424,-4.9763,-4.9898,-4.9932,-4.9729,-4.9526,-4.9154,-4.9052,-4.8996,-4.9024,-4.899,-4.8923,-4.8702,-4.8547,-4.8222,-4.7861,-4.75,-4.7038,-4.6576,-4.6341,-4.6046,-4.5881,-4.5814,-4.5384,-4.4759,-4.4296,-4.3806,-4.38,-5.3518,-5.3518,-5.3518,-5.3518,-5.3518,-5.3518,-5.3518,-5.3518,-5.3518,-5.3518,-5.3518,-5.3518,-5.3518,-5.3518,-5.3518,-5.3518,-5.3518,-5.3518,-5.3518,-5.3518,-5.3518,-5.3518,-5.3518,-5.3551,-5.4194,-5.5243,-5.5513,-5.5953,-5.6833,-5.7408,-5.7712,-5.7881,-5.7949,-5.7814,-5.7611,-5.7171,-5.6934,-5.6562,-5.5919,-5.5513,-5.531,-5.4803,-5.4194,-5.3788,-5.345,-5.3416,-5.345,-5.3416,-5.3382,-5.3484,-5.3382,-5.3213,-5.2909,-5.2401,-5.2164,-5.2131,-5.2131,-5.2131,-5.2131,-5.2097,-5.1386,-5.0777,-5.1116,-5.1116,-5.0439,-5.0405,-5.0541,-5.0638,-5.0595,-5.055,-4.9994,-4.9893,-4.9616,-4.9283,-4.9187,-4.9357,-4.9763,-4.9898,-4.9729,-4.9424,-4.9661,-4.9932,-5.0033,-5.0168,-5.027,-5.027,-5.0304,-5.0473,-5.0777,-5.0744,-5.0642,-5.0338,-4.9999,-4.9526,-4.912,-4.9063,-4.9034,-4.8967,-4.8803,-4.8606,-4.842,-4.8263,-4.8,-4.7669,-4.7537,-4.7338,-4.704,-4.6775,-4.6543,-4.6378,-4.5881,-4.5384,-4.5086,-4.4693,-4.423,-5.3518,-5.3518,-5.3518,-5.3518,-5.3518,-5.3518,-5.3518,-5.3518,-5.3518,-5.3518,-5.3518,-5.3518,-5.3518,-5.3518,-5.3518,-5.3518,-5.3518,-5.3518,-5.3518,-5.3518,-5.3518,-5.3518,-5.3518,-5.3518,-5.4431,-5.5344,-5.575,-5.6325,-5.7306,-5.7679,-5.8084,-5.8423,-5.8457,-5.8457,-5.8423,-5.8186,-5.7679,-5.734,-5.6664,-5.6258,-5.619,-5.5547,-5.4972,-5.4668,-5.4228,-5.4093,-5.3991,-5.3619,-5.3518,-5.3518,-5.3518,-5.3518,-5.3382,-5.3179,-5.2909,-5.2909,-5.2875,-5.2909,-5.2909,-5.2875,-5.2401,-5.1555,-5.1961,-5.1758,-5.1082,-5.098,-5.1285,-5.1217,-5.1183,-5.1074,-5.071,-5.0706,-5.0473,-5.027,-5.0101,-5.027,-5.0541,-5.0642,-5.0439,-5.0168,-5.0507,-5.0744,-5.071,-5.0879,-5.1116,-5.1217,-5.1285,-5.1423,-5.1693,-5.149,-5.1223,-5.102,-5.0584,-5.0113,-4.9708,-4.9513,-4.9349,-4.9181,-4.9076,-4.8782,-4.8456,-4.8364,-4.8199,-4.7934,-4.7868,-4.7802,-4.7736,-4.7438,-4.7173,-4.6941,-4.6576,-4.6245,-4.5914,-4.5549,-4.5086,-5.3518,-5.3518,-5.3518,-5.3518,-5.3518,-5.3518,-5.3518,-5.3518,-5.3518,-5.3518,-5.3518,-5.3518,-5.3518,-5.3518,-5.3518,-5.3518,-5.3518,-5.3518,-5.3518,-5.3518,-5.3518,-5.3518,-5.3518,-5.3687,-5.4262,-5.5547,-5.5714,-5.6494,-5.7543,-5.7881,-5.8321,-5.8727,-5.8964,-5.8998,-5.893,-5.8795,-5.8524,-5.7949,-5.7374,-5.7002,-5.6697,-5.6258,-5.5852,-5.5716,-5.5108,-5.4735,-5.4465,-5.4093,-5.3687,-5.3585,-5.3518,-5.3518,-5.3518,-5.3518,-5.3518,-5.3518,-5.3518,-5.3518,-5.3484,-5.345,-5.2976,-5.2164,-5.2435,-5.2131,-5.1758,-5.1657,-5.1792,-5.1691,-5.1727,-5.1659,-5.1522,-5.1423,-5.1321,-5.1085,-5.1082,-5.1251,-5.1352,-5.1488,-5.1558,-5.1457,-5.1558,-5.149,-5.1457,-5.1763,-5.2066,-5.2,-5.2034,-5.2001,-5.2202,-5.2034,-5.1799,-5.1597,-5.1229,-5.0726,-5.0458,-5.0258,-5.0025,-4.9757,-4.9588,-4.9387,-4.8959,-4.8596,-4.8431,-4.8299,-4.8001,-4.7934,-4.8001,-4.8001,-4.7703,-4.7438,-4.7305,-4.7007,-4.651,-4.6212,-4.5847,-5.3518,-5.3518,-5.3518,-5.3518,-5.3518,-5.3518,-5.3518,-5.3518,-5.3518,-5.3518,-5.3518,-5.3518,-5.3518,-5.3518,-5.3518,-5.3518,-5.3518,-5.3518,-5.3518,-5.3518,-5.3518,-5.3518,-5.3518,-5.3518,-5.4397,-5.5547,-5.5781,-5.6558,-5.7577,-5.7881,-5.8321,-5.893,-5.9066,-5.9066,-5.9336,-5.9099,-5.8626,-5.8017,-5.778,-5.7442,-5.7002,-5.6765,-5.6393,-5.5987,-5.5649,-5.5344,-5.4905,-5.46,-5.4262,-5.3653,-5.3551,-5.3518,-5.3518,-5.3518,-5.3518,-5.3518,-5.3518,-5.3518,-5.3518,-5.3484,-5.3247,-5.2739,-5.2909,-5.2841,-5.257,-5.2672,-5.2976,-5.3247,-5.3179,-5.2774,-5.23,-5.2164,-5.1826,-5.1623,-5.1555,-5.1792,-5.2029,-5.2132,-5.2235,-5.2371,-5.2371,-5.2269,-5.2234,-5.2674,-5.2977,-5.2943,-5.2841,-5.2773,-5.2637,-5.2437,-5.2269,-5.1966,-5.1764,-5.1328,-5.116,-5.106,-5.0726,-5.0359,-5.0226,-4.9992,-4.9526,-4.9094,-4.8929,-4.8763,-4.8365,-4.8034,-4.8001,-4.8001,-4.8001,-4.7901,-4.7669,-4.7338,-4.6941,-4.6709,-4.6576,-5.3518,-5.3518,-5.3518,-5.3518,-5.3518,-5.3518,-5.3518,-5.3518,-5.3518,-5.3518,-5.3518,-5.3518,-5.3518,-5.3518,-5.3518,-5.3518,-5.3518,-5.3518,-5.3518,-5.3518,-5.3518,-5.3518,-5.3619,-5.3957,-5.4805,-5.5513,-5.619,-5.6867,-5.7611,-5.7983,-5.8423,-5.9404,-5.9302,-5.9573,-5.9776,-5.937,-5.893,-5.849,-5.8152,-5.7983,-5.7915,-5.7645,-5.7273,-5.6934,-5.6562,-5.6122,-5.5818,-5.5378,-5.4905,-5.4296,-5.4126,-5.389,-5.3619,-5.3518,-5.3518,-5.3518,-5.3518,-5.3518,-5.3518,-5.3518,-5.3281,-5.3145,-5.3281,-5.3281,-5.3112,-5.3247,-5.3518,-5.3484,-5.3518,-5.3281,-5.3044,-5.2976,-5.2807,-5.257,-5.22,-5.2336,-5.2606,-5.2741,-5.2842,-5.3044,-5.311,-5.2842,-5.2606,-5.2774,-5.2974,-5.2872,-5.2838,-5.2769,-5.27,-5.2633,-5.2463,-5.2363,-5.2124,-5.1855,-5.1888,-5.1785,-5.142,-5.1154,-5.0949,-5.0653,-5.009,-4.9723,-4.9525,-4.9028,-4.8465,-4.8233,-4.81,-4.8001,-4.8001,-4.8001,-4.8001,-4.7669,-4.7404,-4.7504,-4.7371,-5.3518,-5.3518,-5.3518,-5.3518,-5.3518,-5.3518,-5.3518,-5.3518,-5.3518,-5.3518,-5.3518,-5.3518,-5.3518,-5.3518,-5.3518,-5.3518,-5.3518,-5.3518,-5.3518,-5.3518,-5.3518,-5.3518,-5.372,-5.4194,-5.4907,-5.575,-5.6389,-5.7137,-5.7645,-5.7983,-5.8524,-5.9776,-5.9235,-5.9539,-6.0013,-5.9641,-5.893,-5.8896,-5.8727,-5.8829,-5.9032,-5.8524,-5.8254,-5.7915,-5.7509,-5.6968,-5.6731,-5.6325,-5.5649,-5.4702,-5.4532,-5.4194,-5.3653,-5.3518,-5.3518,-5.3518,-5.3518,-5.3518,-5.3518,-5.3518,-5.3518,-5.3518,-5.3518,-5.3484,-5.3484,-5.3518,-5.3518,-5.3518,-5.3518,-5.3518,-5.3484,-5.345,-5.3281,-5.3213,-5.3213,-5.3213,-5.3179,-5.3009,-5.2874,-5.2836,-5.2903,-5.2834,-5.27,-5.2767,-5.2764,-5.2834,-5.2764,-5.2764,-5.2694,-5.2624,-5.259,-5.2387,-5.2354,-5.2113,-5.2179,-5.2213,-5.191,-5.1777,-5.1602,-5.1437,-5.0946,-5.0482,-5.0149,-4.9488,-4.8895,-4.8895,-4.9094,-4.8531,-4.8001,-4.8001,-4.8001,-4.8001,-4.7934,-4.8001,-4.7968,-5.3518,-5.3518,-5.3518,-5.3518,-5.3518,-5.3518,-5.3518,-5.3518,-5.3518,-5.3518,-5.3518,-5.3518,-5.3518,-5.3518,-5.3518,-5.3518,-5.3518,-5.3518,-5.3518,-5.3518,-5.3518,-5.3551,-5.3856,-5.4398,-5.5077,-5.5818,-5.6626,-5.7302,-5.7746,-5.7881,-5.8389,-5.8964,-5.9032,-5.9099,-5.9336,-5.9404,-5.9201,-5.9268,-5.9404,-5.9776,-5.9776,-5.9404,-5.8964,-5.8795,-5.822,-5.7509,-5.69,-5.6799,-5.6089,-5.4871,-5.4769,-5.4262,-5.3687,-5.3518,-5.3518,-5.3518,-5.3518,-5.3518,-5.3518,-5.3518,-5.3518,-5.3518,-5.3518,-5.3518,-5.3518,-5.3518,-5.3518,-5.3518,-5.3518,-5.3518,-5.3518,-5.3518,-5.3416,-5.3348,-5.3348,-5.3179,-5.3041,-5.2972,-5.28,-5.2694,-5.2624,-5.2624,-5.2657,-5.2657,-5.2657,-5.2624,-5.2624,-5.2587,-5.2587,-5.2516,-5.2445,-5.2412,-5.2412,-5.2378,-5.2378,-5.2241,-5.2142,-5.2108,-5.2004,-5.207,-5.2042,-5.1508,-5.0644,-5.0516,-4.9988,-5.0021,-4.9856,-4.9193,-4.863,-4.8199,-4.8034,-4.8166,-4.81,-4.8001,-4.8001,-5.3518,-5.3518,-5.3518,-5.3518,-5.3518,-5.3518,-5.3518,-5.3518,-5.3518,-5.3518,-5.3518,-5.3518,-5.3518,-5.3518,-5.3518,-5.3518,-5.3518,-5.3518,-5.3518,-5.3518,-5.3518,-5.3788,-5.4195,-5.4907,-5.5655,-5.6396,-5.7099,-5.7538,-5.7848,-5.7881,-5.7983,-5.8355,-5.8795,-5.9336,-5.9505,-5.9641,-5.9708,-5.9742,-6.0013,-6.0283,-6.0655,-6.0114,-5.9708,-5.9607,-5.8964,-5.8524,-5.8152,-5.7679,-5.6664,-5.5716,-5.5344,-5.4634,-5.3822,-5.3653,-5.3585,-5.3551,-5.3551,-5.3518,-5.3518,-5.3518,-5.3518,-5.3518,-5.3518,-5.3518,-5.3518,-5.3518,-5.3518,-5.3518,-5.3518,-5.3518,-5.3518,-5.3518,-5.345,-5.3348,-5.328,-5.3075,-5.2903,-5.2764,-5.2694,-5.2624,-5.2553,-5.2516,-5.2516,-5.2516,-5.2516,-5.2445,-5.2445,-5.2373,-5.2373,-5.2373,-5.2373,-5.2373,-5.2373,-5.2373,-5.2373,-5.2373,-5.2373,-5.2373,-5.2373,-5.2373,-5.2307,-5.1748,-5.1048,-5.1052,-5.0883,-5.0585,-5.0187,-4.9756,-4.9293,-4.8895,-4.863,-4.8531,-4.8332,-4.81,-4.8034,-5.3518,-5.3518,-5.3518,-5.3518,-5.3518,-5.3518,-5.3518,-5.3518,-5.3518,-5.3518,-5.3518,-5.3518,-5.3518,-5.3518,-5.3518,-5.3518,-5.3518,-5.3518,-5.3518,-5.3619,-5.3788,-5.4126,-5.4805,-5.5518,-5.6301,-5.6938,-5.7476,-5.7881,-5.7881,-5.7881,-5.7915,-5.8152,-5.8626,-5.9268,-5.9641,-6.0283,-6.0452,-6.0452,-6.0757,-6.0994,-6.1467,-6.0892,-6.0486,-6.0283,-5.9505,-5.8964,-5.8626,-5.8118,-5.7239,-5.6427,-5.5886,-5.5378,-5.46,-5.3991,-5.3856,-5.3754,-5.3619,-5.3518,-5.3518,-5.3518,-5.3518,-5.3518,-5.3518,-5.3518,-5.3518,-5.3518,-5.3518,-5.3518,-5.3518,-5.3518,-5.3518,-5.3416,-5.3348,-5.3212,-5.3006,-5.2834,-5.2727,-5.2587,-5.2587,-5.2483,-5.2516,-5.2445,-5.2445,-5.2445,-5.2445,-5.2445,-5.2445,-5.2373,-5.2373,-5.2373,-5.2373,-5.2373,-5.2373,-5.2373,-5.2373,-5.2373,-5.2373,-5.2373,-5.2373,-5.2373,-5.2246,-5.1715,-5.1582,-5.1715,-5.1446,-5.0982,-5.085,-5.0883,-5.0286,-4.9591,-4.9359,-4.916,-4.8796,-4.853,-4.8265,-5.3518,-5.3518,-5.3518,-5.3518,-5.3518,-5.3518,-5.3518,-5.3518,-5.3518,-5.3518,-5.3518,-5.3518,-5.3518,-5.3518,-5.3518,-5.3518,-5.3518,-5.3518,-5.3518,-5.3619,-5.4093,-5.4465,-5.5109,-5.589,-5.6707,-5.6972,-5.7476,-5.7881,-5.7881,-5.7881,-5.7881,-5.8084,-5.8592,-5.9133,-5.9235,-6.052,-6.1197,-6.1332,-6.1839,-6.211,-6.2042,-6.1569,-6.1332,-6.096,-5.9911,-5.9235,-5.9066,-5.8321,-5.7442,-5.6731,-5.6596,-5.6055,-5.5277,-5.4668,-5.4431,-5.4295,-5.3788,-5.3551,-5.3518,-5.3518,-5.3518,-5.3518,-5.3518,-5.3518,-5.3518,-5.3518,-5.3518,-5.3518,-5.3518,-5.3518,-5.3416,-5.3348,-5.311,-5.2972,-5.2834,-5.2694,-5.2587,-5.2516,-5.2445,-5.2445,-5.2445,-5.2373,-5.2373,-5.2373,-5.2373,-5.2373,-5.2373,-5.2373,-5.2373,-5.2373,-5.2373,-5.2373,-5.2373,-5.2373,-5.2373,-5.2373,-5.2373,-5.2373,-5.2373,-5.2373,-5.2373,-5.2213,-5.2179,-5.2241,-5.2042,-5.1645,-5.191,-5.2241,-5.1413,-5.0618,-5.0154,-4.9823,-4.9393,-4.8895,-4.8597,-5.3518,-5.3518,-5.3518,-5.3518,-5.3518,-5.3518,-5.3518,-5.3518,-5.3518,-5.3518,-5.3518,-5.3518,-5.3518,-5.3518,-5.3518,-5.3518,-5.3518,-5.3518,-5.3518,-5.3619,-5.4296,-5.4871,-5.5549,-5.6331,-5.7043,-5.748,-5.7814,-5.7881,-5.7881,-5.7881,-5.7881,-5.8084,-5.866,-5.9268,-5.9708,-6.0419,-6.0655,-6.1298,-6.1941,-6.2381,-6.2347,-6.211,-6.1975,-6.1907,-6.0486,-5.9708,-5.9607,-5.866,-5.7611,-5.7036,-5.6968,-5.6359,-5.548,-5.4803,-5.4465,-5.4126,-5.3551,-5.3518,-5.3518,-5.3518,-5.3518,-5.3551,-5.3518,-5.3518,-5.3518,-5.3518,-5.3518,-5.345,-5.3416,-5.3348,-5.328,-5.311,-5.2972,-5.2903,-5.2764,-5.2624,-5.2553,-5.2445,-5.2445,-5.2445,-5.2373,-5.2373,-5.2373,-5.2373,-5.2373,-5.2473,-5.2506,-5.2407,-5.2407,-5.2373,-5.2373,-5.2373,-5.2373,-5.2373,-5.2373,-5.2373,-5.2373,-5.2373,-5.2373,-5.2373,-5.2373,-5.2373,-5.2373,-5.2307,-5.234,-5.2373,-5.2373,-5.234,-5.2208,-5.1711,-5.1082,-5.0485,-4.9988,-4.9459,-4.8962,-5.3518,-5.3518,-5.3518,-5.3518,-5.3518,-5.3518,-5.3518,-5.3518,-5.3518,-5.3518,-5.3518,-5.3518,-5.3518,-5.3518,-5.3518,-5.3518,-5.3518,-5.3518,-5.3822,-5.3923,-5.4668,-5.5412,-5.6159,-5.6769,-5.7378,-5.778,-5.7881,-5.7881,-5.7881,-5.7881,-5.8051,-5.8389,-5.8761,-5.937,-5.9945,-6.0419,-6.0994,-6.167,-6.2245,-6.2415,-6.2381,-6.2347,-6.2347,-6.1941,-6.1095,-6.0216,-5.9945,-5.9066,-5.7814,-5.7543,-5.7171,-5.6731,-5.5886,-5.5175,-5.4803,-5.4398,-5.3991,-5.4093,-5.4296,-5.4397,-5.4363,-5.3991,-5.3687,-5.3518,-5.3518,-5.3518,-5.3518,-5.3416,-5.3382,-5.328,-5.3212,-5.2972,-5.2901,-5.2831,-5.2757,-5.2686,-5.2615,-5.2577,-5.2506,-5.2506,-5.2539,-5.2473,-5.2473,-5.2373,-5.2373,-5.2506,-5.2605,-5.2572,-5.2539,-5.2572,-5.2572,-5.2605,-5.2506,-5.2473,-5.244,-5.2373,-5.2373,-5.2373,-5.2373,-5.2373,-5.2373,-5.2373,-5.2373,-5.2373,-5.2373,-5.2373,-5.2373,-5.2307,-5.2241,-5.2075,-5.1711,-5.1181,-5.0684,-5.0154,-4.9658,-5.3518,-5.3518,-5.3518,-5.3518,-5.3518,-5.3518,-5.3518,-5.3518,-5.3518,-5.3518,-5.3518,-5.3518,-5.3518,-5.3518,-5.3518,-5.3518,-5.3518,-5.3518,-5.3923,-5.4532,-5.5175,-5.5953,-5.6697,-5.7374,-5.7679,-5.7814,-5.7881,-5.7881,-5.7881,-5.7881,-5.822,-5.8795,-5.8829,-5.9471,-6.0148,-6.0689,-6.1298,-6.1772,-6.2212,-6.2347,-6.2415,-6.2415,-6.2415,-6.1975,-6.1163,-6.0791,-6.0317,-5.9404,-5.8795,-5.849,-5.8287,-5.7983,-5.7374,-5.6461,-5.5956,-5.538,-5.4803,-5.5038,-5.531,-5.5344,-5.5175,-5.4634,-5.4126,-5.3754,-5.3687,-5.3856,-5.3889,-5.3754,-5.3618,-5.3382,-5.3144,-5.3004,-5.2964,-5.289,-5.2815,-5.2776,-5.2776,-5.2705,-5.2738,-5.2738,-5.2804,-5.2837,-5.2904,-5.2804,-5.2975,-5.3135,-5.3301,-5.3195,-5.3202,-5.3003,-5.3036,-5.3003,-5.287,-5.2638,-5.2572,-5.2672,-5.244,-5.2473,-5.2373,-5.2373,-5.2373,-5.2373,-5.2373,-5.2373,-5.2373,-5.2373,-5.2373,-5.2373,-5.2373,-5.2175,-5.2009,-5.1843,-5.138,-5.1107,-5.0644,-5.3518,-5.3518,-5.3518,-5.3518,-5.3518,-5.3518,-5.3518,-5.3518,-5.3518,-5.3518,-5.3518,-5.3518,-5.3518,-5.3518,-5.3518,-5.3518,-5.3518,-5.3619,-5.3991,-5.4634,-5.5412,-5.6122,-5.6833,-5.7509,-5.7814,-5.7881,-5.7881,-5.7881,-5.7881,-5.7881,-5.8626,-5.9539,-5.8829,-5.9438,-6.0182,-6.0655,-6.1129,-6.1637,-6.211,-6.2347,-6.2415,-6.2415,-6.2415,-6.2042,-6.1434,-6.1163,-6.0858,-6.008,-5.9607,-5.9573,-5.9066,-5.8558,-5.778,-5.6528,-5.5547,-5.5075,-5.5072,-5.5474,-5.5646,-5.5716,-5.5649,-5.5513,-5.5175,-5.4769,-5.4634,-5.46,-5.4633,-5.4293,-5.3986,-5.3746,-5.3506,-5.3365,-5.3252,-5.3313,-5.3301,-5.35,-5.35,-5.35,-5.35,-5.35,-5.3533,-5.3533,-5.3566,-5.3672,-5.3805,-5.393,-5.3956,-5.3956,-5.3824,-5.3699,-5.3533,-5.3533,-5.35,-5.3367,-5.3202,-5.3235,-5.2837,-5.2539,-5.2539,-5.2473,-5.2373,-5.2373,-5.2373,-5.2373,-5.2373,-5.2373,-5.2373,-5.2373,-5.2373,-5.2373,-5.2241,-5.2208,-5.2108,-5.1735,-5.1432,-5.3518,-5.3518,-5.3518,-5.3518,-5.3518,-5.3518,-5.3518,-5.3518,-5.3518,-5.3518,-5.3518,-5.3518,-5.3518,-5.3518,-5.3518,-5.3518,-5.3518,-5.3585,-5.4059,-5.5074,-5.548,-5.6393,-5.7103,-5.7611,-5.7814,-5.7881,-5.7881,-5.7881,-5.7915,-5.7983,-5.8558,-5.937,-5.8592,-5.9438,-6.0283,-6.0723,-6.0926,-6.1467,-6.1941,-6.2279,-6.2381,-6.2381,-6.2381,-6.2245,-6.167,-6.1535,-6.1535,-6.0757,-6.0317,-6.0283,-5.9708,-5.8863,-5.8118,-5.7002,-5.6122,-5.5716,-5.5849,-5.6322,-5.663,-5.6697,-5.6461,-5.6292,-5.6359,-5.6085,-5.5576,-5.5373,-5.5134,-5.4828,-5.4586,-5.4272,-5.3995,-5.3784,-5.3772,-5.3864,-5.4162,-5.4427,-5.446,-5.446,-5.446,-5.4427,-5.4427,-5.4394,-5.4427,-5.4501,-5.4501,-5.4427,-5.4585,-5.4816,-5.4618,-5.4394,-5.4229,-5.4129,-5.4195,-5.4195,-5.403,-5.3798,-5.3467,-5.3169,-5.297,-5.2837,-5.2572,-5.2373,-5.2373,-5.2373,-5.2373,-5.2373,-5.2373,-5.2373,-5.2373,-5.2373,-5.2373,-5.2307,-5.2241,-5.207,-5.1872,-5.345,-5.3518,-5.3518,-5.3518,-5.3518,-5.3518,-5.3518,-5.3518,-5.3518,-5.3518,-5.3518,-5.3518,-5.3518,-5.3518,-5.3518,-5.3518,-5.3518,-5.3551,-5.4296,-5.5615,-5.5649,-5.6393,-5.7408,-5.7881,-5.7881,-5.7881,-5.7915,-5.7983,-5.7983,-5.8051,-5.8287,-5.8964,-5.8795,-5.9235,-5.9877,-6.0588,-6.0926,-6.1332,-6.1806,-6.2178,-6.2313,-6.2347,-6.2313,-6.2279,-6.1941,-6.1637,-6.1806,-6.1332,-6.052,-6.052,-6.0013,-5.9066,-5.8152,-5.7679,-5.7002,-5.6833,-5.6867,-5.7239,-5.7543,-5.7611,-5.734,-5.7273,-5.7476,-5.7094,-5.6549,-5.6246,-5.5938,-5.5458,-5.5108,-5.4728,-5.4416,-5.4509,-5.4634,-5.4725,-5.4957,-5.5189,-5.5289,-5.5289,-5.5289,-5.5289,-5.5256,-5.5256,-5.5256,-5.5364,-5.5397,-5.5123,-5.5222,-5.5653,-5.5554,-5.5189,-5.5024,-5.4891,-5.5057,-5.509,-5.4725,-5.4494,-5.4195,-5.3897,-5.3599,-5.3208,-5.2948,-5.2644,-5.2373,-5.2373,-5.2373,-5.2373,-5.2373,-5.2373,-5.2373,-5.2373,-5.2373,-5.2373,-5.234,-5.2307,-5.2241,-5.2942,-5.3484,-5.3518,-5.3518,-5.3518,-5.3518,-5.3518,-5.3518,-5.3518,-5.3518,-5.3518,-5.3518,-5.3518,-5.3518,-5.3518,-5.3518,-5.3518,-5.3585,-5.4431,-5.5243,-5.5649,-5.6359,-5.7611,-5.778,-5.7848,-5.7881,-5.7949,-5.8118,-5.8321,-5.8254,-5.822,-5.8829,-5.8626,-5.866,-5.937,-6.0114,-6.0588,-6.1129,-6.1264,-6.1772,-6.2212,-6.1907,-6.1704,-6.2076,-6.211,-6.211,-6.2076,-6.1637,-6.1197,-6.1028,-5.9776,-5.8592,-5.7374,-5.7509,-5.7611,-5.7611,-5.7679,-5.8118,-5.8355,-5.8321,-5.7808,-5.76,-5.756,-5.7379,-5.7245,-5.7077,-5.6734,-5.6111,-5.5629,-5.5214,-5.504,-5.5231,-5.5463,-5.5554,-5.5752,-5.5885,-5.6051,-5.6051,-5.6051,-5.6051,-5.6051,-5.6051,-5.6017,-5.6084,-5.6183,-5.6216,-5.6282,-5.6415,-5.6349,-5.6117,-5.6017,-5.5951,-5.6117,-5.6051,-5.562,-5.5256,-5.4957,-5.4626,-5.4328,-5.3805,-5.3318,-5.3042,-5.287,-5.2506,-5.2373,-5.2572,-5.2638,-5.2407,-5.2407,-5.2407,-5.2373,-5.2373,-5.2373,-5.234,-5.234,-5.2266,-5.2976,-5.3348,-5.3518,-5.3518,-5.3518,-5.3518,-5.3518,-5.3518,-5.3518,-5.3518,-5.3518,-5.3518,-5.3518,-5.3518,-5.3518,-5.3518,-5.3518,-5.416,-5.4905,-5.5446,-5.6156,-5.6867,-5.7437,-5.7712,-5.778,-5.7881,-5.8084,-5.8423,-5.8254,-5.8152,-5.8423,-5.8084,-5.8254,-5.8964,-5.9505,-6.0047,-6.0689,-6.0588,-6.0994,-6.1772,-6.1569,-6.1434,-6.1873,-6.2178,-6.2313,-6.2313,-6.1975,-6.1873,-6.14,-6.0351,-5.9201,-5.8355,-5.8254,-5.8389,-5.849,-5.8693,-5.9066,-5.9133,-5.8788,-5.8208,-5.7992,-5.7506,-5.7331,-5.7147,-5.7055,-5.7055,-5.6496,-5.6312,-5.5961,-5.5928,-5.6051,-5.6084,-5.6216,-5.6282,-5.6382,-5.6415,-5.6415,-5.6415,-5.6415,-5.6415,-5.6415,-5.6415,-5.6415,-5.6481,-5.6481,-5.6647,-5.668,-5.668,-5.668,-5.668,-5.668,-5.668,-5.6647,-5.6249,-5.5984,-5.5786,-5.5421,-5.5024,-5.4527,-5.407,-5.3738,-5.3367,-5.3235,-5.3135,-5.3202,-5.3169,-5.287,-5.2506,-5.244,-5.2407,-5.2373,-5.2373,-5.2373,-5.2373,-5.1488,-5.2232,-5.301,-5.3348,-5.3382,-5.3484,-5.3518,-5.3518,-5.3518,-5.3518,-5.3518,-5.3518,-5.3518,-5.3518,-5.3518,-5.3518,-5.3518,-5.3518,-5.4025,-5.4499,-5.4668,-5.575,-5.6457,-5.6892,-5.7335,-5.7712,-5.7881,-5.7881,-5.7983,-5.7881,-5.7881,-5.7881,-5.8017,-5.822,-5.8727,-5.9201,-5.9674,-6.008,-6.0216,-6.0351,-6.0757,-6.1231,-6.1298,-6.1569,-6.2009,-6.2347,-6.2415,-6.2279,-6.2245,-6.1569,-6.0622,-5.9498,-5.8788,-5.8552,-5.8781,-5.8916,-5.9194,-5.9557,-5.9793,-5.9069,-5.869,-5.8346,-5.7733,-5.7248,-5.6987,-5.6987,-5.6987,-5.6911,-5.6757,-5.668,-5.6647,-5.6614,-5.6647,-5.668,-5.6713,-5.6746,-5.6746,-5.6812,-5.6879,-5.6912,-5.6978,-5.6978,-5.7011,-5.6978,-5.6912,-5.6879,-5.6779,-5.6746,-5.6713,-5.6713,-5.668,-5.668,-5.668,-5.6647,-5.6614,-5.6481,-5.6249,-5.6117,-5.5686,-5.5289,-5.4858,-5.4328,-5.4096,-5.4229,-5.4162,-5.3964,-5.3699,-5.34,-5.3036,-5.2705,-5.244,-5.2373,-5.2373,-5.2373,-5.2373,-5.0744,-5.1488,-5.2232,-5.2536,-5.2638,-5.3213,-5.3518,-5.3518,-5.3484,-5.3518,-5.3518,-5.3518,-5.3518,-5.3518,-5.3518,-5.3518,-5.3518,-5.3518,-5.3957,-5.4499,-5.4431,-5.548,-5.6359,-5.666,-5.7273,-5.7645,-5.7881,-5.7881,-5.7881,-5.7881,-5.7881,-5.7881,-5.7881,-5.8017,-5.822,-5.8863,-5.9674,-5.9911,-6.0351,-6.0689,-6.0723,-6.1095,-6.1264,-6.167,-6.2313,-6.2381,-6.2279,-6.1806,-6.1603,-6.1061,-6.0173,-5.9355,-5.8882,-5.8612,-5.8673,-5.9035,-5.9271,-5.9775,-5.9732,-5.9007,-5.8595,-5.8418,-5.7697,-5.6987,-5.6867,-5.6857,-5.689,-5.6923,-5.6846,-5.6879,-5.6846,-5.6812,-5.6812,-5.6912,-5.6978,-5.6978,-5.6978,-5.7309,-5.7608,-5.7806,-5.8005,-5.8104,-5.8237,-5.8138,-5.7939,-5.7839,-5.7574,-5.7475,-5.7144,-5.6945,-5.6812,-5.6846,-5.6912,-5.668,-5.668,-5.6647,-5.6514,-5.6448,-5.6349,-5.5951,-5.5421,-5.4825,-5.4692,-5.499,-5.4792,-5.4527,-5.4229,-5.4063,-5.3632,-5.3301,-5.2672,-5.2407,-5.244,-5.2473,-5.2539]}]]